Time,TemperatureF,DewpointF,PressureIn,WindDirection,WindDirectionDegrees,WindSpeedMPH,WindSpeedGustMPH,Humidity,HourlyPrecipIn,Conditions,Clouds,dailyrainin,SoftwareType,DateUTC
2013-03-13 00:00:00,46.8,32.3,30.06,SW,225,0.0,0.0,57,0.00,,---,0.00,VWS V14.01,2013-03-13 04:00:00,
2013-03-13 00:01:00,46.8,32.8,30.06,SW,225,0.0,0.0,58,0.00,,---,0.00,VWS V14.01,2013-03-13 04:01:00,
2013-03-13 00:02:00,46.8,32.8,30.06,SW,225,0.0,0.0,58,0.00,,---,0.00,VWS V14.01,2013-03-13 04:02:00,
2013-03-13 00:03:00,46.8,32.8,30.06,SW,225,0.0,0.0,58,0.00,,---,0.00,VWS V14.01,2013-03-13 04:03:00,
2013-03-13 00:04:00,46.8,32.8,30.06,SW,225,0.0,0.0,58,0.00,,---,0.00,VWS V14.01,2013-03-13 04:04:00,
2013-03-13 00:05:00,46.8,33.2,30.06,SW,225,0.0,0.0,59,0.00,,---,0.00,VWS V14.01,2013-03-13 04:05:00,
2013-03-13 00:06:00,46.8,32.8,30.06,SW,225,0.0,0.0,58,0.00,,---,0.00,VWS V14.01,2013-03-13 04:06:00,
2013-03-13 00:10:00,46.8,32.8,30.06,SW,225,0.0,0.0,58,0.00,,---,0.00,VWS V14.01,2013-03-13 04:10:00,
2013-03-13 00:11:00,46.6,32.6,30.06,SW,225,0.0,0.0,58,0.00,,---,0.00,VWS V14.01,2013-03-13 04:11:00,
2013-03-13 00:12:00,46.6,32.6,30.06,SW,225,0.0,0.0,58,0.00,,---,0.00,VWS V14.01,2013-03-13 04:12:00,
2013-03-13 00:13:00,46.6,32.6,30.06,SW,225,0.0,0.0,58,0.00,,---,0.00,VWS V14.01,2013-03-13 04:13:00,
2013-03-13 00:14:00,46.6,32.6,30.06,SW,225,0.0,0.0,58,0.00,,---,0.00,VWS V14.01,2013-03-13 04:14:00,
2013-03-13 00:15:00,46.6,32.6,30.06,SW,225,0.0,0.0,58,0.00,,---,0.00,VWS V14.01,2013-03-13 04:15:00,
2013-03-13 00:16:00,46.6,32.6,30.06,SW,225,0.0,0.0,58,0.00,,---,0.00,VWS V14.01,2013-03-13 04:16:00,
2013-03-13 00:17:00,46.6,32.6,30.06,SW,225,0.0,0.0,58,0.00,,---,0.00,VWS V14.01,2013-03-13 04:17:00,
2013-03-13 00:18:00,46.6,32.6,30.06,SW,225,0.0,0.0,58,0.00,,---,0.00,VWS V14.01,2013-03-13 04:18:00,
2013-03-13 00:19:00,46.6,32.6,30.06,SW,225,0.0,0.0,58,0.00,,---,0.00,VWS V14.01,2013-03-13 04:19:00,
2013-03-13 00:20:00,46.6,32.6,30.06,SW,225,0.0,0.0,58,0.00,,---,0.00,VWS V14.01,2013-03-13 04:20:00,
2013-03-13 00:24:00,46.6,32.6,30.06,SW,225,0.0,0.0,58,0.00,,---,0.00,VWS V14.01,2013-03-13 04:24:00,
2013-03-13 00:27:00,46.4,32.0,30.06,SW,225,0.0,0.0,57,0.00,,---,0.00,VWS V14.01,2013-03-13 04:27:00,
2013-03-13 00:28:00,46.4,32.0,30.06,SW,225,0.0,0.0,57,0.00,,---,0.00,VWS V14.01,2013-03-13 04:28:00,
2013-03-13 00:29:00,46.4,32.0,30.06,SW,225,0.0,0.0,57,0.00,,---,0.00,VWS V14.01,2013-03-13 04:29:00,
2013-03-13 00:30:00,46.4,32.0,30.06,SW,225,0.0,0.0,57,0.00,,---,0.00,VWS V14.01,2013-03-13 04:30:00,
2013-03-13 00:31:00,46.4,32.0,30.06,SW,225,0.0,0.0,57,0.00,,---,0.00,VWS V14.01,2013-03-13 04:31:00,
2013-03-13 00:32:00,46.4,32.0,30.06,SW,225,0.0,0.0,57,0.00,,---,0.00,VWS V14.01,2013-03-13 04:32:00,
2013-03-13 00:33:00,46.4,32.0,30.06,SW,225,0.0,0.0,57,0.00,,---,0.00,VWS V14.01,2013-03-13 04:33:00,
2013-03-13 00:35:00,47.3,33.3,30.06,West,270,0.0,0.0,58,0.00,,---,0.17,VWS V14.01,2013-03-13 04:35:00,
2013-03-13 00:36:00,46.4,32.4,30.06,SW,225,0.0,0.0,58,0.00,,---,0.00,VWS V14.01,2013-03-13 04:36:00,
2013-03-13 00:37:00,46.2,32.3,30.06,SW,225,0.0,0.0,58,0.00,,---,0.00,VWS V14.01,2013-03-13 04:37:00,
2013-03-13 00:38:00,46.2,32.3,30.09,SW,225,0.0,0.0,58,0.00,,---,0.00,VWS V14.01,2013-03-13 04:38:00,
2013-03-13 00:39:00,46.2,31.8,30.09,SW,225,0.0,0.0,57,0.00,,---,0.00,VWS V14.01,2013-03-13 04:39:00,
2013-03-13 00:40:00,47.1,32.7,30.06,West,270,0.0,0.0,57,0.00,,---,0.17,VWS V14.01,2013-03-13 04:40:00,
2013-03-13 00:41:00,46.2,31.8,30.09,SW,225,0.0,0.0,57,0.00,,---,0.00,VWS V14.01,2013-03-13 04:41:00,
2013-03-13 00:42:00,46.2,32.3,30.09,SW,225,0.0,0.0,58,0.00,,---,0.00,VWS V14.01,2013-03-13 04:42:00,
2013-03-13 00:43:00,46.2,32.3,30.09,SW,225,0.0,0.0,58,0.00,,---,0.00,VWS V14.01,2013-03-13 04:43:00,
2013-03-13 00:44:00,46.2,32.3,30.09,SW,225,0.0,0.0,58,0.00,,---,0.00,VWS V14.01,2013-03-13 04:44:00,
2013-03-13 00:45:00,46.2,32.3,30.09,SW,225,0.0,0.0,58,0.00,,---,0.00,VWS V14.01,2013-03-13 04:45:00,
2013-03-13 00:46:00,46.9,33.0,30.06,West,270,0.0,0.0,58,0.00,,---,0.17,VWS V14.01,2013-03-13 04:46:00,
2013-03-13 00:47:00,46.0,32.5,30.09,SW,225,0.0,0.0,59,0.00,,---,0.00,VWS V14.01,2013-03-13 04:47:00,
2013-03-13 00:50:00,46.0,32.5,30.09,SW,225,0.0,0.0,59,0.00,,---,0.00,VWS V14.01,2013-03-13 04:50:00,
2013-03-13 00:51:00,46.8,33.2,30.06,West,270,0.0,0.0,59,0.00,,---,0.17,VWS V14.01,2013-03-13 04:51:00,
2013-03-13 00:52:00,45.9,31.9,30.09,SW,225,0.0,0.0,58,0.00,,---,0.00,VWS V14.01,2013-03-13 04:52:00,
2013-03-13 00:53:00,45.9,31.9,30.09,SW,225,0.0,0.0,58,0.00,,---,0.00,VWS V14.01,2013-03-13 04:53:00,
2013-03-13 00:54:00,45.9,31.9,30.09,SW,225,0.0,0.0,58,0.00,,---,0.00,VWS V14.01,2013-03-13 04:54:00,
2013-03-13 00:56:00,46.8,32.8,30.06,South,180,0.0,0.0,58,0.00,,---,0.17,VWS V14.01,2013-03-13 04:56:00,
2013-03-13 01:00:00,45.9,31.9,30.09,SW,225,0.0,0.0,58,0.00,,---,0.00,VWS V14.01,2013-03-13 05:00:00,
2013-03-13 01:01:00,46.8,32.8,30.06,SW,225,0.0,0.0,58,0.00,,---,0.00,VWS V14.01,2013-03-13 05:01:00,
2013-03-13 01:03:00,45.7,31.8,30.09,SW,225,0.0,0.0,58,0.00,,---,0.00,VWS V14.01,2013-03-13 05:03:00,
2013-03-13 01:04:00,45.7,31.8,30.09,SW,225,0.0,0.0,58,0.00,,---,0.00,VWS V14.01,2013-03-13 05:04:00,
2013-03-13 01:06:00,46.8,32.8,30.06,SW,225,0.0,0.0,58,0.00,,---,0.00,VWS V14.01,2013-03-13 05:06:00,
2013-03-13 01:07:00,45.7,31.8,30.09,SW,225,0.0,0.0,58,0.00,,---,0.00,VWS V14.01,2013-03-13 05:07:00,
2013-03-13 01:08:00,45.5,31.6,30.09,SW,225,0.0,0.0,58,0.00,,---,0.00,VWS V14.01,2013-03-13 05:08:00,
2013-03-13 01:09:00,45.5,31.6,30.09,SW,225,0.0,0.0,58,0.00,,---,0.00,VWS V14.01,2013-03-13 05:09:00,
2013-03-13 01:10:00,45.5,31.6,30.09,SW,225,0.0,0.0,58,0.00,,---,0.00,VWS V14.01,2013-03-13 05:10:00,
2013-03-13 01:11:00,46.6,32.6,30.06,SW,225,0.0,0.0,58,0.00,,---,0.00,VWS V14.01,2013-03-13 05:11:00,
2013-03-13 01:12:00,45.5,31.6,30.09,SW,225,0.0,0.0,58,0.00,,---,0.00,VWS V14.01,2013-03-13 05:12:00,
2013-03-13 01:13:00,45.3,31.9,30.09,SW,225,0.0,0.0,59,0.00,,---,0.00,VWS V14.01,2013-03-13 05:13:00,
2013-03-13 01:14:00,45.3,31.9,30.09,SW,225,0.0,0.0,59,0.00,,---,0.00,VWS V14.01,2013-03-13 05:14:00,
2013-03-13 01:15:00,45.3,31.9,30.09,SW,225,0.0,0.0,59,0.00,,---,0.00,VWS V14.01,2013-03-13 05:15:00,
2013-03-13 01:16:00,45.3,31.9,30.09,SW,225,0.0,0.0,59,0.00,,---,0.00,VWS V14.01,2013-03-13 05:16:00,
2013-03-13 01:17:00,46.6,32.6,30.06,SW,225,0.0,0.0,58,0.00,,---,0.00,VWS V14.01,2013-03-13 05:17:00,
2013-03-13 01:21:00,45.1,31.3,30.09,SW,225,0.0,0.0,58,0.00,,---,0.00,VWS V14.01,2013-03-13 05:21:00,
2013-03-13 01:22:00,46.6,32.6,30.06,SW,225,0.0,0.0,58,0.00,,---,0.00,VWS V14.01,2013-03-13 05:22:00,
2013-03-13 01:23:00,45.1,31.7,30.09,SW,225,0.0,0.0,59,0.00,,---,0.00,VWS V14.01,2013-03-13 05:23:00,
2013-03-13 01:24:00,45.0,31.5,30.09,SW,225,0.0,0.0,59,0.00,,---,0.00,VWS V14.01,2013-03-13 05:24:00,
2013-03-13 01:27:00,46.6,32.2,30.06,SW,225,0.0,0.0,57,0.00,,---,0.00,VWS V14.01,2013-03-13 05:27:00,
2013-03-13 01:28:00,45.0,31.5,30.09,SW,225,0.0,0.0,59,0.00,,---,0.00,VWS V14.01,2013-03-13 05:28:00,
2013-03-13 01:29:00,45.0,31.5,30.09,SW,225,0.0,0.0,59,0.00,,---,0.00,VWS V14.01,2013-03-13 05:29:00,
2013-03-13 01:30:00,45.0,31.5,30.09,SW,225,0.0,0.0,59,0.00,,---,0.00,VWS V14.01,2013-03-13 05:30:00,
2013-03-13 01:31:00,45.0,31.5,30.09,SW,225,0.0,0.0,59,0.00,,---,0.00,VWS V14.01,2013-03-13 05:31:00,
2013-03-13 01:32:00,46.4,32.0,30.06,SW,225,0.0,0.0,57,0.00,,---,0.00,VWS V14.01,2013-03-13 05:32:00,
2013-03-13 01:33:00,44.8,31.3,30.09,SW,225,0.0,0.0,59,0.00,,---,0.00,VWS V14.01,2013-03-13 05:33:00,
2013-03-13 01:34:00,45.0,31.5,30.09,SW,225,0.0,0.0,59,0.00,,---,0.00,VWS V14.01,2013-03-13 05:34:00,
2013-03-13 01:35:00,45.0,31.5,30.09,SW,225,0.0,0.0,59,0.00,,---,0.00,VWS V14.01,2013-03-13 05:35:00,
2013-03-13 01:36:00,44.8,31.8,30.09,SW,225,0.0,0.0,60,0.00,,---,0.00,VWS V14.01,2013-03-13 05:36:00,
2013-03-13 01:37:00,46.2,32.3,30.06,SW,225,0.0,0.0,58,0.00,,---,0.00,VWS V14.01,2013-03-13 05:37:00,
2013-03-13 01:38:00,44.8,31.8,30.09,SW,225,0.0,0.0,60,0.00,,---,0.00,VWS V14.01,2013-03-13 05:38:00,
2013-03-13 01:39:00,44.8,31.8,30.09,SW,225,0.0,0.0,60,0.00,,---,0.00,VWS V14.01,2013-03-13 05:39:00,
2013-03-13 01:40:00,44.8,31.8,30.09,SW,225,0.0,0.0,60,0.00,,---,0.00,VWS V14.01,2013-03-13 05:40:00,
2013-03-13 01:41:00,44.8,31.8,30.09,SW,225,0.0,0.0,60,0.00,,---,0.00,VWS V14.01,2013-03-13 05:41:00,
2013-03-13 01:42:00,46.2,32.3,30.09,SW,225,0.0,0.0,58,0.00,,---,0.00,VWS V14.01,2013-03-13 05:42:00,
2013-03-13 01:43:00,44.6,31.6,30.09,SW,225,0.0,0.0,60,0.00,,---,0.00,VWS V14.01,2013-03-13 05:43:00,
2013-03-13 01:44:00,44.6,31.6,30.09,SW,225,0.0,0.0,60,0.00,,---,0.00,VWS V14.01,2013-03-13 05:44:00,
2013-03-13 01:45:00,44.6,31.6,30.09,SW,225,0.0,0.0,60,0.00,,---,0.00,VWS V14.01,2013-03-13 05:45:00,
2013-03-13 01:46:00,44.6,31.6,30.09,SW,225,0.0,0.0,60,0.00,,---,0.00,VWS V14.01,2013-03-13 05:46:00,
2013-03-13 01:47:00,46.0,32.5,30.09,SW,225,0.0,0.0,59,0.00,,---,0.00,VWS V14.01,2013-03-13 05:47:00,
2013-03-13 01:48:00,44.6,31.6,30.09,SW,225,0.0,0.0,60,0.00,,---,0.00,VWS V14.01,2013-03-13 05:48:00,
2013-03-13 01:49:00,44.4,31.8,30.09,SW,225,0.0,0.0,61,0.00,,---,0.00,VWS V14.01,2013-03-13 05:49:00,
2013-03-13 01:50:00,44.4,31.8,30.09,SW,225,0.0,0.0,61,0.00,,---,0.00,VWS V14.01,2013-03-13 05:50:00,
2013-03-13 01:51:00,44.4,31.4,30.09,SW,225,0.0,0.0,60,0.00,,---,0.00,VWS V14.01,2013-03-13 05:51:00,
2013-03-13 01:52:00,45.9,31.9,30.09,SW,225,0.0,0.0,58,0.00,,---,0.00,VWS V14.01,2013-03-13 05:52:00,
2013-03-13 01:53:00,44.4,31.4,30.09,SW,225,0.0,0.0,60,0.00,,---,0.00,VWS V14.01,2013-03-13 05:53:00,
2013-03-13 01:54:00,44.2,31.2,30.09,SW,225,0.0,0.0,60,0.00,,---,0.00,VWS V14.01,2013-03-13 05:54:00,
2013-03-13 01:55:00,44.2,31.2,30.09,SW,225,0.0,0.0,60,0.00,,---,0.00,VWS V14.01,2013-03-13 05:55:00,
2013-03-13 01:56:00,44.2,31.2,30.09,SW,225,0.0,0.0,60,0.00,,---,0.00,VWS V14.01,2013-03-13 05:56:00,
2013-03-13 01:57:00,45.9,31.9,30.09,SW,225,0.0,0.0,58,0.00,,---,0.00,VWS V14.01,2013-03-13 05:57:00,
2013-03-13 01:58:00,44.2,31.2,30.09,SW,225,0.0,0.0,60,0.00,,---,0.00,VWS V14.01,2013-03-13 05:58:00,
2013-03-13 01:59:00,44.2,31.2,30.09,SW,225,0.0,0.0,60,0.00,,---,0.00,VWS V14.01,2013-03-13 05:59:00,
2013-03-13 02:00:00,44.2,31.7,30.09,SW,225,0.0,0.0,61,0.00,,---,0.00,VWS V14.01,2013-03-13 06:00:00,
2013-03-13 02:03:00,45.9,31.9,30.09,SW,225,0.0,0.0,58,0.00,,---,0.00,VWS V14.01,2013-03-13 06:03:00,
2013-03-13 02:06:00,44.2,31.7,30.09,SW,225,0.0,0.0,61,0.00,,---,0.00,VWS V14.01,2013-03-13 06:06:00,
2013-03-13 02:07:00,44.1,31.9,30.09,SW,225,0.0,0.0,62,0.00,,---,0.00,VWS V14.01,2013-03-13 06:07:00,
2013-03-13 02:08:00,45.5,31.6,30.09,SW,225,0.0,0.0,58,0.00,,---,0.00,VWS V14.01,2013-03-13 06:08:00,
2013-03-13 02:09:00,44.1,31.9,30.09,SW,225,0.0,0.0,62,0.00,,---,0.00,VWS V14.01,2013-03-13 06:09:00,
2013-03-13 02:13:00,45.3,31.9,30.09,SW,225,0.0,0.0,59,0.00,,---,0.00,VWS V14.01,2013-03-13 06:13:00,
2013-03-13 02:14:00,43.9,32.1,30.09,SW,225,0.0,0.0,63,0.00,,---,0.00,VWS V14.01,2013-03-13 06:14:00,
2013-03-13 02:15:00,43.9,32.1,30.09,SW,225,0.0,0.0,63,0.00,,---,0.00,VWS V14.01,2013-03-13 06:15:00,
2013-03-13 02:16:00,43.9,32.1,30.09,SW,225,0.0,0.0,63,0.00,,---,0.00,VWS V14.01,2013-03-13 06:16:00,
2013-03-13 02:17:00,43.9,32.1,30.09,SW,225,0.0,0.0,63,0.00,,---,0.00,VWS V14.01,2013-03-13 06:17:00,
2013-03-13 02:18:00,45.1,31.3,30.09,SW,225,0.0,0.0,58,0.00,,---,0.00,VWS V14.01,2013-03-13 06:18:00,
2013-03-13 02:19:00,43.7,31.9,30.09,SW,225,0.0,0.0,63,0.00,,---,0.00,VWS V14.01,2013-03-13 06:19:00,
2013-03-13 02:22:00,43.9,32.1,30.09,SE,135,0.0,0.0,63,0.00,,---,0.00,VWS V14.01,2013-03-13 06:22:00,
2013-03-13 02:23:00,45.1,31.7,30.09,SW,225,0.0,0.0,59,0.00,,---,0.00,VWS V14.01,2013-03-13 06:23:00,
2013-03-13 02:24:00,43.9,32.1,30.09,South,180,0.0,0.0,63,0.00,,---,0.00,VWS V14.01,2013-03-13 06:24:00,
2013-03-13 02:25:00,43.9,31.7,30.09,South,180,0.0,0.0,62,0.00,,---,0.00,VWS V14.01,2013-03-13 06:25:00,
2013-03-13 02:26:00,43.9,31.7,30.09,South,180,0.0,0.0,62,0.00,,---,0.00,VWS V14.01,2013-03-13 06:26:00,
2013-03-13 02:27:00,43.9,32.1,30.09,South,180,0.0,0.0,63,0.00,,---,0.00,VWS V14.01,2013-03-13 06:27:00,
2013-03-13 02:28:00,45.0,31.5,30.09,SW,225,0.0,0.0,59,0.00,,---,0.00,VWS V14.01,2013-03-13 06:28:00,
2013-03-13 02:31:00,43.9,32.1,30.09,NW,315,1.3,2.0,63,0.00,,---,0.00,VWS V14.01,2013-03-13 06:31:00,
2013-03-13 02:32:00,44.1,32.3,30.09,NW,315,0.0,1.3,63,0.00,,---,0.00,VWS V14.01,2013-03-13 06:32:00,
2013-03-13 02:33:00,43.9,32.1,30.09,NW,315,0.0,0.0,63,0.00,,---,0.00,VWS V14.01,2013-03-13 06:33:00,
2013-03-13 02:34:00,45.0,31.5,30.09,SW,225,0.0,0.0,59,0.00,,---,0.00,VWS V14.01,2013-03-13 06:34:00,
2013-03-13 02:36:00,43.9,32.1,30.09,East,90,0.0,0.9,63,0.00,,---,0.00,VWS V14.01,2013-03-13 06:36:00,
2013-03-13 02:37:00,43.9,32.1,30.09,East,90,0.9,0.9,63,0.00,,---,0.00,VWS V14.01,2013-03-13 06:37:00,
2013-03-13 02:38:00,44.1,32.3,30.09,East,90,1.1,1.1,63,0.00,,---,0.00,VWS V14.01,2013-03-13 06:38:00,
2013-03-13 02:39:00,44.8,31.8,30.09,SW,225,0.0,0.0,60,0.00,,---,0.00,VWS V14.01,2013-03-13 06:39:00,
2013-03-13 02:40:00,44.1,32.7,30.09,East,90,0.0,0.0,64,0.00,,---,0.00,VWS V14.01,2013-03-13 06:40:00,
2013-03-13 02:41:00,44.1,32.7,30.09,East,90,0.0,0.0,64,0.00,,---,0.00,VWS V14.01,2013-03-13 06:41:00,
2013-03-13 02:44:00,44.6,31.6,30.09,SW,225,0.0,0.0,60,0.00,,---,0.00,VWS V14.01,2013-03-13 06:44:00,
2013-03-13 02:45:00,43.9,32.5,30.09,East,90,0.0,0.0,64,0.00,,---,0.00,VWS V14.01,2013-03-13 06:45:00,
2013-03-13 02:46:00,43.7,32.3,30.09,East,90,0.0,0.0,64,0.00,,---,0.00,VWS V14.01,2013-03-13 06:46:00,
2013-03-13 02:47:00,43.7,32.3,30.09,East,90,0.0,0.0,64,0.00,,---,0.00,VWS V14.01,2013-03-13 06:47:00,
2013-03-13 02:48:00,43.7,32.3,30.09,East,90,0.0,0.0,64,0.00,,---,0.00,VWS V14.01,2013-03-13 06:48:00,
2013-03-13 02:49:00,44.4,31.8,30.09,SW,225,0.0,0.0,61,0.00,,---,0.00,VWS V14.01,2013-03-13 06:49:00,
2013-03-13 02:51:00,43.7,32.3,30.09,East,90,0.0,0.0,64,0.00,,---,0.00,VWS V14.01,2013-03-13 06:51:00,
2013-03-13 02:52:00,43.5,31.8,30.09,East,90,0.0,0.0,63,0.00,,---,0.00,VWS V14.01,2013-03-13 06:52:00,
2013-03-13 02:54:00,44.2,31.2,30.09,SW,225,0.0,0.0,60,0.00,,---,0.00,VWS V14.01,2013-03-13 06:54:00,
2013-03-13 02:56:00,43.5,31.8,30.06,East,90,0.0,0.0,63,0.00,,---,0.00,VWS V14.01,2013-03-13 06:56:00,
2013-03-13 02:57:00,43.3,31.6,30.06,East,90,0.0,0.0,63,0.00,,---,0.00,VWS V14.01,2013-03-13 06:57:00,
2013-03-13 02:58:00,43.3,31.6,30.06,East,90,0.0,0.0,63,0.00,,---,0.00,VWS V14.01,2013-03-13 06:58:00,
2013-03-13 02:59:00,44.2,31.2,30.09,SW,225,0.0,0.0,60,0.00,,---,0.00,VWS V14.01,2013-03-13 06:59:00,
2013-03-13 03:00:00,43.2,31.8,30.06,East,90,0.0,0.0,64,0.00,,---,0.00,VWS V14.01,2013-03-13 07:00:00,
2013-03-13 03:01:00,43.2,31.8,30.06,East,90,0.0,0.0,64,0.00,,---,0.00,VWS V14.01,2013-03-13 07:01:00,
2013-03-13 03:02:00,43.2,32.2,30.06,East,90,0.0,0.0,65,0.00,,---,0.00,VWS V14.01,2013-03-13 07:02:00,
2013-03-13 03:03:00,43.2,32.2,30.06,East,90,0.0,0.0,65,0.00,,---,0.00,VWS V14.01,2013-03-13 07:03:00,
2013-03-13 03:04:00,44.2,31.7,30.09,SW,225,0.0,0.0,61,0.00,,---,0.00,VWS V14.01,2013-03-13 07:04:00,
2013-03-13 03:05:00,43.2,32.2,30.06,East,90,0.0,0.0,65,0.00,,---,0.00,VWS V14.01,2013-03-13 07:05:00,
2013-03-13 03:06:00,43.0,32.0,30.06,East,90,0.0,0.0,65,0.00,,---,0.00,VWS V14.01,2013-03-13 07:06:00,
2013-03-13 03:07:00,43.0,32.0,30.06,East,90,0.0,0.0,65,0.00,,---,0.00,VWS V14.01,2013-03-13 07:07:00,
2013-03-13 03:08:00,43.2,32.6,30.09,East,90,0.0,0.0,66,0.00,,---,0.00,VWS V14.01,2013-03-13 07:08:00,
2013-03-13 03:09:00,44.1,31.9,30.09,SW,225,0.0,0.0,62,0.00,,---,0.00,VWS V14.01,2013-03-13 07:09:00,
2013-03-13 03:10:00,43.2,32.2,30.09,East,90,0.0,0.0,65,0.00,,---,0.00,VWS V14.01,2013-03-13 07:10:00,
2013-03-13 03:11:00,43.2,32.2,30.09,East,90,0.0,0.0,65,0.00,,---,0.00,VWS V14.01,2013-03-13 07:11:00,
2013-03-13 03:12:00,43.2,32.2,30.09,East,90,0.0,0.0,65,0.00,,---,0.00,VWS V14.01,2013-03-13 07:12:00,
2013-03-13 03:15:00,43.9,32.1,30.09,SW,225,0.0,0.0,63,0.00,,---,0.00,VWS V14.01,2013-03-13 07:15:00,
2013-03-13 03:16:00,43.0,32.0,30.09,East,90,0.0,0.0,65,0.00,,---,0.00,VWS V14.01,2013-03-13 07:16:00,
2013-03-13 03:17:00,43.0,32.0,30.09,East,90,0.0,0.0,65,0.00,,---,0.00,VWS V14.01,2013-03-13 07:17:00,
2013-03-13 03:18:00,43.0,32.4,30.09,East,90,0.0,0.0,66,0.00,,---,0.00,VWS V14.01,2013-03-13 07:18:00,
2013-03-13 03:19:00,43.0,32.4,30.09,East,90,0.0,0.0,66,0.00,,---,0.00,VWS V14.01,2013-03-13 07:19:00,
2013-03-13 03:20:00,43.9,32.1,30.09,SW,225,0.0,0.0,63,0.00,,---,0.00,VWS V14.01,2013-03-13 07:20:00,
2013-03-13 03:21:00,43.0,32.4,30.09,East,90,0.0,0.0,66,0.00,,---,0.00,VWS V14.01,2013-03-13 07:21:00,
2013-03-13 03:25:00,43.9,31.7,30.09,South,180,0.0,0.0,62,0.00,,---,0.00,VWS V14.01,2013-03-13 07:25:00,
2013-03-13 03:26:00,43.0,32.4,30.09,East,90,0.0,0.0,66,0.00,,---,0.00,VWS V14.01,2013-03-13 07:26:00,
2013-03-13 03:27:00,42.8,32.2,30.09,East,90,0.0,0.0,66,0.00,,---,0.00,VWS V14.01,2013-03-13 07:27:00,
2013-03-13 03:28:00,42.8,32.2,30.09,East,90,0.0,0.0,66,0.00,,---,0.00,VWS V14.01,2013-03-13 07:28:00,
2013-03-13 03:29:00,42.8,32.2,30.09,East,90,0.0,0.0,66,0.00,,---,0.00,VWS V14.01,2013-03-13 07:29:00,
2013-03-13 03:30:00,43.9,32.1,30.09,SE,135,0.0,0.0,63,0.00,,---,0.00,VWS V14.01,2013-03-13 07:30:00,
2013-03-13 03:31:00,42.8,32.2,30.09,East,90,0.0,0.0,66,0.00,,---,0.00,VWS V14.01,2013-03-13 07:31:00,
2013-03-13 03:32:00,42.8,32.2,30.09,East,90,0.0,0.0,66,0.00,,---,0.00,VWS V14.01,2013-03-13 07:32:00,
2013-03-13 03:33:00,42.6,32.1,30.09,East,90,0.0,0.0,66,0.00,,---,0.00,VWS V14.01,2013-03-13 07:33:00,
2013-03-13 03:34:00,42.6,32.1,30.09,East,90,0.0,0.0,66,0.00,,---,0.00,VWS V14.01,2013-03-13 07:34:00,
2013-03-13 03:35:00,43.9,32.1,30.09,NW,315,0.0,0.0,63,0.00,,---,0.00,VWS V14.01,2013-03-13 07:35:00,
2013-03-13 03:36:00,42.6,32.1,30.09,East,90,0.0,0.0,66,0.00,,---,0.00,VWS V14.01,2013-03-13 07:36:00,
2013-03-13 03:37:00,42.4,32.3,30.09,East,90,0.0,0.0,67,0.00,,---,0.00,VWS V14.01,2013-03-13 07:37:00,
2013-03-13 03:38:00,42.4,32.3,30.09,East,90,0.0,0.0,67,0.00,,---,0.00,VWS V14.01,2013-03-13 07:38:00,
2013-03-13 03:39:00,42.4,32.3,30.09,East,90,0.0,0.0,67,0.00,,---,0.00,VWS V14.01,2013-03-13 07:39:00,
2013-03-13 03:40:00,44.1,32.7,30.09,East,90,0.0,0.0,64,0.00,,---,0.00,VWS V14.01,2013-03-13 07:40:00,
2013-03-13 03:41:00,42.4,32.3,30.09,East,90,0.0,0.0,67,0.00,,---,0.00,VWS V14.01,2013-03-13 07:41:00,
2013-03-13 03:42:00,42.4,32.3,30.09,East,90,0.0,0.0,67,0.00,,---,0.00,VWS V14.01,2013-03-13 07:42:00,
2013-03-13 03:45:00,43.9,32.5,30.09,East,90,0.0,0.0,64,0.00,,---,0.00,VWS V14.01,2013-03-13 07:45:00,
2013-03-13 03:49:00,42.3,32.1,30.09,East,90,0.0,0.0,67,0.00,,---,0.00,VWS V14.01,2013-03-13 07:49:00,
2013-03-13 03:50:00,43.7,32.3,30.09,East,90,0.0,0.0,64,0.00,,---,0.00,VWS V14.01,2013-03-13 07:50:00,
2013-03-13 03:51:00,42.1,31.9,30.09,East,90,0.0,0.0,67,0.00,,---,0.00,VWS V14.01,2013-03-13 07:51:00,
2013-03-13 03:52:00,42.1,32.3,30.09,East,90,0.0,0.0,68,0.00,,---,0.00,VWS V14.01,2013-03-13 07:52:00,
2013-03-13 03:53:00,41.9,32.1,30.09,East,90,0.0,0.0,68,0.00,,---,0.00,VWS V14.01,2013-03-13 07:53:00,
2013-03-13 03:54:00,41.9,32.1,30.09,East,90,0.0,0.0,68,0.00,,---,0.00,VWS V14.01,2013-03-13 07:54:00,
2013-03-13 03:55:00,43.5,31.8,30.06,East,90,0.0,0.0,63,0.00,,---,0.00,VWS V14.01,2013-03-13 07:55:00,
2013-03-13 03:56:00,41.7,32.0,30.09,East,90,0.0,0.0,68,0.00,,---,0.00,VWS V14.01,2013-03-13 07:56:00,
2013-03-13 03:57:00,41.7,32.0,30.09,East,90,0.0,0.0,68,0.00,,---,0.00,VWS V14.01,2013-03-13 07:57:00,
2013-03-13 04:00:00,41.7,32.0,30.09,East,90,0.0,0.0,68,0.00,,---,0.00,VWS V14.01,2013-03-13 08:00:00,
2013-03-13 04:01:00,43.2,31.8,30.06,East,90,0.0,0.0,64,0.00,,---,0.00,VWS V14.01,2013-03-13 08:01:00,
2013-03-13 04:02:00,41.7,32.0,30.09,East,90,0.0,0.0,68,0.00,,---,0.00,VWS V14.01,2013-03-13 08:02:00,
2013-03-13 04:03:00,41.7,32.0,30.09,East,90,0.0,0.0,68,0.00,,---,0.00,VWS V14.01,2013-03-13 08:03:00,
2013-03-13 04:04:00,41.5,31.8,30.09,East,90,0.0,0.0,68,0.00,,---,0.00,VWS V14.01,2013-03-13 08:04:00,
2013-03-13 04:05:00,41.5,31.8,30.09,East,90,0.0,0.0,68,0.00,,---,0.00,VWS V14.01,2013-03-13 08:05:00,
2013-03-13 04:06:00,41.5,31.8,30.09,East,90,0.0,0.0,68,0.00,,---,0.00,VWS V14.01,2013-03-13 08:06:00,
2013-03-13 04:07:00,41.4,31.6,30.09,East,90,0.0,0.0,68,0.00,,---,0.00,VWS V14.01,2013-03-13 08:07:00,
2013-03-13 04:08:00,43.2,32.6,30.09,East,90,0.0,0.0,66,0.00,,---,0.00,VWS V14.01,2013-03-13 08:08:00,
2013-03-13 04:09:00,41.4,31.6,30.12,East,90,0.0,0.0,68,0.00,,---,0.00,VWS V14.01,2013-03-13 08:09:00,
2013-03-13 04:10:00,41.2,31.4,30.12,East,90,0.0,0.0,68,0.00,,---,0.00,VWS V14.01,2013-03-13 08:10:00,
2013-03-13 04:11:00,41.2,31.4,30.12,East,90,0.0,0.0,68,0.00,,---,0.00,VWS V14.01,2013-03-13 08:11:00,
2013-03-13 04:12:00,41.2,31.4,30.12,East,90,0.0,0.0,68,0.00,,---,0.00,VWS V14.01,2013-03-13 08:12:00,
2013-03-13 04:13:00,43.0,32.0,30.09,East,90,0.0,0.0,65,0.00,,---,0.00,VWS V14.01,2013-03-13 08:13:00,
2013-03-13 04:14:00,41.2,31.4,30.12,East,90,0.0,0.0,68,0.00,,---,0.00,VWS V14.01,2013-03-13 08:14:00,
2013-03-13 04:15:00,41.2,31.4,30.12,East,90,0.0,0.0,68,0.00,,---,0.00,VWS V14.01,2013-03-13 08:15:00,
2013-03-13 04:16:00,41.2,31.4,30.12,East,90,0.0,0.0,68,0.00,,---,0.00,VWS V14.01,2013-03-13 08:16:00,
2013-03-13 04:17:00,41.2,31.4,30.12,East,90,0.0,0.0,68,0.00,,---,0.00,VWS V14.01,2013-03-13 08:17:00,
2013-03-13 04:18:00,43.0,32.4,30.09,East,90,0.0,0.0,66,0.00,,---,0.00,VWS V14.01,2013-03-13 08:18:00,
2013-03-13 04:19:00,41.2,31.4,30.12,East,90,0.0,0.0,68,0.00,,---,0.00,VWS V14.01,2013-03-13 08:19:00,
2013-03-13 04:20:00,41.2,31.4,30.12,East,90,0.0,0.0,68,0.00,,---,0.00,VWS V14.01,2013-03-13 08:20:00,
2013-03-13 04:21:00,41.2,31.4,30.12,East,90,0.0,0.0,68,0.00,,---,0.00,VWS V14.01,2013-03-13 08:21:00,
2013-03-13 04:22:00,41.0,31.3,30.12,East,90,0.0,0.0,68,0.00,,---,0.00,VWS V14.01,2013-03-13 08:22:00,
2013-03-13 04:23:00,43.0,32.4,30.09,East,90,0.0,0.0,66,0.00,,---,0.00,VWS V14.01,2013-03-13 08:23:00,
2013-03-13 04:24:00,41.0,31.3,30.15,East,90,0.0,0.0,68,0.00,,---,0.00,VWS V14.01,2013-03-13 08:24:00,
2013-03-13 04:25:00,41.0,31.3,30.15,East,90,0.0,0.0,68,0.00,,---,0.00,VWS V14.01,2013-03-13 08:25:00,
2013-03-13 04:26:00,41.0,31.3,30.15,East,90,0.0,0.0,68,0.00,,---,0.00,VWS V14.01,2013-03-13 08:26:00,
2013-03-13 04:28:00,42.8,32.2,30.09,East,90,0.0,0.0,66,0.00,,---,0.00,VWS V14.01,2013-03-13 08:28:00,
2013-03-13 04:29:00,40.6,31.3,30.15,East,90,0.0,0.0,69,0.00,,---,0.00,VWS V14.01,2013-03-13 08:29:00,
2013-03-13 04:30:00,40.6,31.3,30.15,East,90,0.0,0.0,69,0.00,,---,0.00,VWS V14.01,2013-03-13 08:30:00,
2013-03-13 04:31:00,40.6,31.3,30.15,East,90,0.0,0.0,69,0.00,,---,0.00,VWS V14.01,2013-03-13 08:31:00,
2013-03-13 04:33:00,42.6,32.1,30.09,East,90,0.0,0.0,66,0.00,,---,0.00,VWS V14.01,2013-03-13 08:33:00,
2013-03-13 04:35:00,40.6,31.3,30.15,East,90,0.0,0.0,69,0.00,,---,0.00,VWS V14.01,2013-03-13 08:35:00,
2013-03-13 04:36:00,40.5,31.1,30.15,East,90,0.0,0.0,69,0.00,,---,0.00,VWS V14.01,2013-03-13 08:36:00,
2013-03-13 04:37:00,40.5,31.1,30.15,East,90,0.0,0.0,69,0.00,,---,0.00,VWS V14.01,2013-03-13 08:37:00,
2013-03-13 04:38:00,42.4,32.3,30.09,East,90,0.0,0.0,67,0.00,,---,0.00,VWS V14.01,2013-03-13 08:38:00,
2013-03-13 04:39:00,40.5,31.5,30.15,East,90,0.0,0.0,70,0.00,,---,0.00,VWS V14.01,2013-03-13 08:39:00,
2013-03-13 04:40:00,40.5,31.5,30.15,East,90,0.0,0.0,70,0.00,,---,0.00,VWS V14.01,2013-03-13 08:40:00,
2013-03-13 04:41:00,40.3,30.9,30.15,East,90,0.0,0.0,69,0.00,,---,0.00,VWS V14.01,2013-03-13 08:41:00,
2013-03-13 04:42:00,40.3,30.9,30.15,East,90,0.0,0.0,69,0.00,,---,0.00,VWS V14.01,2013-03-13 08:42:00,
2013-03-13 04:43:00,40.3,30.9,30.15,East,90,0.0,0.0,69,0.00,,---,0.00,VWS V14.01,2013-03-13 08:43:00,
2013-03-13 04:44:00,42.3,32.1,30.09,East,90,0.0,0.0,67,0.00,,---,0.00,VWS V14.01,2013-03-13 08:44:00,
2013-03-13 04:45:00,40.3,30.9,30.15,East,90,0.0,0.0,69,0.00,,---,0.00,VWS V14.01,2013-03-13 08:45:00,
2013-03-13 04:46:00,40.3,30.9,30.15,East,90,0.0,0.0,69,0.00,,---,0.00,VWS V14.01,2013-03-13 08:46:00,
2013-03-13 04:47:00,40.3,31.3,30.15,East,90,0.0,0.0,70,0.00,,---,0.00,VWS V14.01,2013-03-13 08:47:00,
2013-03-13 04:48:00,40.3,31.3,30.15,East,90,0.0,0.0,70,0.00,,---,0.00,VWS V14.01,2013-03-13 08:48:00,
2013-03-13 04:49:00,42.3,32.1,30.09,East,90,0.0,0.0,67,0.00,,---,0.00,VWS V14.01,2013-03-13 08:49:00,
2013-03-13 04:52:00,40.3,31.3,30.18,East,90,0.0,0.0,70,0.00,,---,0.00,VWS V14.01,2013-03-13 08:52:00,
2013-03-13 04:53:00,40.1,31.1,30.18,East,90,0.0,0.0,70,0.00,,---,0.00,VWS V14.01,2013-03-13 08:53:00,
2013-03-13 04:54:00,41.9,32.1,30.09,East,90,0.0,0.0,68,0.00,,---,0.00,VWS V14.01,2013-03-13 08:54:00,
2013-03-13 04:55:00,40.1,30.8,30.18,East,90,0.0,0.0,69,0.00,,---,0.00,VWS V14.01,2013-03-13 08:55:00,
2013-03-13 04:56:00,39.9,30.6,30.18,East,90,0.0,0.0,69,0.00,,---,0.00,VWS V14.01,2013-03-13 08:56:00,
2013-03-13 04:57:00,39.9,30.6,30.18,East,90,0.0,0.0,69,0.00,,---,0.00,VWS V14.01,2013-03-13 08:57:00,
2013-03-13 04:58:00,39.9,30.6,30.18,East,90,0.0,0.0,69,0.00,,---,0.00,VWS V14.01,2013-03-13 08:58:00,
2013-03-13 04:59:00,41.7,32.0,30.09,East,90,0.0,0.0,68,0.00,,---,0.00,VWS V14.01,2013-03-13 08:59:00,
2013-03-13 05:00:00,39.9,30.9,30.18,East,90,0.0,0.0,70,0.00,,---,0.00,VWS V14.01,2013-03-13 09:00:00,
2013-03-13 05:01:00,39.9,30.9,30.18,East,90,0.0,0.0,70,0.00,,---,0.00,VWS V14.01,2013-03-13 09:01:00,
2013-03-13 05:02:00,39.9,30.9,30.18,East,90,0.0,0.0,70,0.00,,---,0.00,VWS V14.01,2013-03-13 09:02:00,
2013-03-13 05:03:00,39.9,30.9,30.18,East,90,0.0,0.0,70,0.00,,---,0.00,VWS V14.01,2013-03-13 09:03:00,
2013-03-13 05:04:00,41.5,31.8,30.09,East,90,0.0,0.0,68,0.00,,---,0.00,VWS V14.01,2013-03-13 09:04:00,
2013-03-13 05:05:00,39.9,30.9,30.18,East,90,0.0,0.0,70,0.00,,---,0.00,VWS V14.01,2013-03-13 09:05:00,
2013-03-13 05:06:00,39.9,30.9,30.18,East,90,0.0,0.0,70,0.00,,---,0.00,VWS V14.01,2013-03-13 09:06:00,
2013-03-13 05:07:00,39.9,30.9,30.18,East,90,0.0,0.0,70,0.00,,---,0.00,VWS V14.01,2013-03-13 09:07:00,
2013-03-13 05:08:00,39.9,30.9,30.15,East,90,0.0,0.0,70,0.00,,---,0.00,VWS V14.01,2013-03-13 09:08:00,
2013-03-13 05:10:00,41.4,31.6,30.12,East,90,0.0,0.0,68,0.00,,---,0.00,VWS V14.01,2013-03-13 09:10:00,
2013-03-13 05:12:00,39.9,31.3,30.15,East,90,0.0,0.0,71,0.00,,---,0.00,VWS V14.01,2013-03-13 09:12:00,
2013-03-13 05:13:00,39.7,31.1,30.15,East,90,0.0,0.0,71,0.00,,---,0.00,VWS V14.01,2013-03-13 09:13:00,
2013-03-13 05:14:00,39.7,31.1,30.15,East,90,0.0,0.0,71,0.00,,---,0.00,VWS V14.01,2013-03-13 09:14:00,
2013-03-13 05:15:00,41.2,31.4,30.12,East,90,0.0,0.0,68,0.00,,---,0.00,VWS V14.01,2013-03-13 09:15:00,
2013-03-13 05:16:00,39.7,31.1,30.15,East,90,0.0,0.0,71,0.00,,---,0.00,VWS V14.01,2013-03-13 09:16:00,
2013-03-13 05:17:00,39.7,31.1,30.15,East,90,0.0,0.0,71,0.00,,---,0.00,VWS V14.01,2013-03-13 09:17:00,
2013-03-13 05:18:00,39.7,31.1,30.15,East,90,0.0,0.0,71,0.00,,---,0.00,VWS V14.01,2013-03-13 09:18:00,
2013-03-13 05:19:00,39.6,31.0,30.15,East,90,0.0,0.0,71,0.00,,---,0.00,VWS V14.01,2013-03-13 09:19:00,
2013-03-13 05:20:00,41.2,31.4,30.12,East,90,0.0,0.0,68,0.00,,---,0.00,VWS V14.01,2013-03-13 09:20:00,
2013-03-13 05:21:00,39.6,31.0,30.15,East,90,0.0,0.0,71,0.00,,---,0.00,VWS V14.01,2013-03-13 09:21:00,
2013-03-13 05:22:00,39.4,30.8,30.15,East,90,0.0,0.0,71,0.00,,---,0.00,VWS V14.01,2013-03-13 09:22:00,
2013-03-13 05:23:00,39.4,30.8,30.15,East,90,0.0,0.0,71,0.00,,---,0.00,VWS V14.01,2013-03-13 09:23:00,
2013-03-13 05:24:00,39.4,30.8,30.15,East,90,0.0,0.0,71,0.00,,---,0.00,VWS V14.01,2013-03-13 09:24:00,
2013-03-13 05:25:00,41.0,31.3,30.15,East,90,0.0,0.0,68,0.00,,---,0.00,VWS V14.01,2013-03-13 09:25:00,
2013-03-13 05:26:00,39.4,30.8,30.15,East,90,0.0,0.0,71,0.00,,---,0.00,VWS V14.01,2013-03-13 09:26:00,
2013-03-13 05:27:00,39.4,30.8,30.15,East,90,0.0,0.0,71,0.00,,---,0.00,VWS V14.01,2013-03-13 09:27:00,
2013-03-13 05:28:00,39.4,30.8,30.15,East,90,0.0,0.0,71,0.00,,---,0.00,VWS V14.01,2013-03-13 09:28:00,
2013-03-13 05:29:00,39.4,31.1,30.15,East,90,0.0,0.0,72,0.00,,---,0.00,VWS V14.01,2013-03-13 09:29:00,
2013-03-13 05:30:00,40.6,31.3,30.15,East,90,0.0,0.0,69,0.00,,---,0.00,VWS V14.01,2013-03-13 09:30:00,
2013-03-13 05:31:00,39.4,31.1,30.15,East,90,0.0,0.0,72,0.00,,---,0.00,VWS V14.01,2013-03-13 09:31:00,
2013-03-13 05:32:00,39.4,31.1,30.15,East,90,0.0,0.0,72,0.00,,---,0.00,VWS V14.01,2013-03-13 09:32:00,
2013-03-13 05:33:00,39.4,31.1,30.15,East,90,0.0,0.0,72,0.00,,---,0.00,VWS V14.01,2013-03-13 09:33:00,
2013-03-13 05:34:00,39.4,31.1,30.15,East,90,0.0,0.0,72,0.00,,---,0.00,VWS V14.01,2013-03-13 09:34:00,
2013-03-13 05:35:00,40.6,31.3,30.15,East,90,0.0,0.0,69,0.00,,---,0.00,VWS V14.01,2013-03-13 09:35:00,
2013-03-13 05:36:00,39.2,31.0,30.15,East,90,0.0,0.0,72,0.00,,---,0.00,VWS V14.01,2013-03-13 09:36:00,
2013-03-13 05:37:00,39.2,31.0,30.15,East,90,0.0,0.0,72,0.00,,---,0.00,VWS V14.01,2013-03-13 09:37:00,
2013-03-13 05:40:00,40.5,31.5,30.15,East,90,0.0,0.0,70,0.00,,---,0.00,VWS V14.01,2013-03-13 09:40:00,
2013-03-13 05:41:00,39.2,31.0,30.15,East,90,0.0,0.0,72,0.00,,---,0.00,VWS V14.01,2013-03-13 09:41:00,
2013-03-13 05:42:00,39.2,31.0,30.15,East,90,0.0,0.0,72,0.00,,---,0.00,VWS V14.01,2013-03-13 09:42:00,
2013-03-13 05:43:00,39.2,31.0,30.15,East,90,0.0,0.0,72,0.00,,---,0.00,VWS V14.01,2013-03-13 09:43:00,
2013-03-13 05:44:00,39.0,30.8,30.15,East,90,0.0,0.0,72,0.00,,---,0.00,VWS V14.01,2013-03-13 09:44:00,
2013-03-13 05:45:00,40.3,30.9,30.15,East,90,0.0,0.0,69,0.00,,---,0.00,VWS V14.01,2013-03-13 09:45:00,
2013-03-13 05:46:00,39.0,30.8,30.15,East,90,0.0,0.0,72,0.00,,---,0.00,VWS V14.01,2013-03-13 09:46:00,
2013-03-13 05:47:00,39.0,31.1,30.15,East,90,0.0,0.0,73,0.00,,---,0.00,VWS V14.01,2013-03-13 09:47:00,
2013-03-13 05:48:00,39.0,31.1,30.15,East,90,0.0,0.0,73,0.00,,---,0.00,VWS V14.01,2013-03-13 09:48:00,
2013-03-13 05:49:00,39.0,31.1,30.15,East,90,0.0,0.0,73,0.00,,---,0.00,VWS V14.01,2013-03-13 09:49:00,
2013-03-13 05:50:00,40.3,31.3,30.15,East,90,0.0,0.0,70,0.00,,---,0.00,VWS V14.01,2013-03-13 09:50:00,
2013-03-13 05:51:00,38.8,30.9,30.15,East,90,0.0,0.0,73,0.00,,---,0.00,VWS V14.01,2013-03-13 09:51:00,
2013-03-13 05:52:00,38.8,30.9,30.15,East,90,0.0,0.0,73,0.00,,---,0.00,VWS V14.01,2013-03-13 09:52:00,
2013-03-13 05:53:00,38.8,30.9,30.15,East,90,0.0,0.0,73,0.00,,---,0.00,VWS V14.01,2013-03-13 09:53:00,
2013-03-13 05:54:00,38.8,30.9,30.15,East,90,0.0,0.0,73,0.00,,---,0.00,VWS V14.01,2013-03-13 09:54:00,
2013-03-13 05:55:00,40.1,30.8,30.18,East,90,0.0,0.0,69,0.00,,---,0.00,VWS V14.01,2013-03-13 09:55:00,
2013-03-13 05:56:00,38.8,30.9,30.15,East,90,0.0,0.0,73,0.00,,---,0.00,VWS V14.01,2013-03-13 09:56:00,
2013-03-13 05:57:00,38.8,30.9,30.15,East,90,0.0,0.0,73,0.00,,---,0.00,VWS V14.01,2013-03-13 09:57:00,
2013-03-13 05:58:00,38.7,30.8,30.15,East,90,0.0,0.0,73,0.00,,---,0.00,VWS V14.01,2013-03-13 09:58:00,
2013-03-13 05:59:00,38.7,30.8,30.15,East,90,0.0,0.0,73,0.00,,---,0.00,VWS V14.01,2013-03-13 09:59:00,
2013-03-13 06:00:00,39.9,30.9,30.18,East,90,0.0,0.0,70,0.00,,---,0.00,VWS V14.01,2013-03-13 10:00:00,
2013-03-13 06:01:00,38.7,30.8,30.15,East,90,0.0,0.0,73,0.00,,---,0.00,VWS V14.01,2013-03-13 10:01:00,
2013-03-13 06:02:00,38.7,30.8,30.15,East,90,0.0,0.0,73,0.00,,---,0.00,VWS V14.01,2013-03-13 10:02:00,
2013-03-13 06:05:00,39.9,30.9,30.18,East,90,0.0,0.0,70,0.00,,---,0.00,VWS V14.01,2013-03-13 10:05:00,
2013-03-13 06:08:00,38.7,30.8,30.18,East,90,0.0,0.0,73,0.00,,---,0.00,VWS V14.01,2013-03-13 10:08:00,
2013-03-13 06:10:00,39.9,31.3,30.15,East,90,0.0,0.0,71,0.00,,---,0.00,VWS V14.01,2013-03-13 10:10:00,
2013-03-13 06:11:00,38.7,30.8,30.18,East,90,0.0,0.0,73,0.00,,---,0.00,VWS V14.01,2013-03-13 10:11:00,
2013-03-13 06:12:00,38.5,30.6,30.18,East,90,0.0,0.0,73,0.00,,---,0.00,VWS V14.01,2013-03-13 10:12:00,
2013-03-13 06:13:00,38.3,30.4,30.18,East,90,0.0,0.0,73,0.00,,---,0.00,VWS V14.01,2013-03-13 10:13:00,
2013-03-13 06:14:00,38.3,30.4,30.18,East,90,0.0,0.0,73,0.00,,---,0.00,VWS V14.01,2013-03-13 10:14:00,
2013-03-13 06:15:00,39.7,31.1,30.15,East,90,0.0,0.0,71,0.00,,---,0.00,VWS V14.01,2013-03-13 10:15:00,
2013-03-13 06:16:00,38.3,30.4,30.18,East,90,0.0,0.0,73,0.00,,---,0.00,VWS V14.01,2013-03-13 10:16:00,
2013-03-13 06:19:00,38.1,30.2,30.18,East,90,0.0,0.0,73,0.00,,---,0.00,VWS V14.01,2013-03-13 10:19:00,
2013-03-13 06:20:00,39.6,31.0,30.15,East,90,0.0,0.0,71,0.00,,---,0.00,VWS V14.01,2013-03-13 10:20:00,
2013-03-13 06:21:00,38.1,30.2,30.18,East,90,0.0,0.0,73,0.00,,---,0.00,VWS V14.01,2013-03-13 10:21:00,
2013-03-13 06:22:00,38.1,30.2,30.18,East,90,0.0,0.0,73,0.00,,---,0.00,VWS V14.01,2013-03-13 10:22:00,
2013-03-13 06:23:00,38.1,30.2,30.18,East,90,0.0,0.0,73,0.00,,---,0.00,VWS V14.01,2013-03-13 10:23:00,
2013-03-13 06:24:00,38.1,30.2,30.18,East,90,0.0,0.0,73,0.00,,---,0.00,VWS V14.01,2013-03-13 10:24:00,
2013-03-13 06:25:00,39.4,30.8,30.15,East,90,0.0,0.0,71,0.00,,---,0.00,VWS V14.01,2013-03-13 10:25:00,
2013-03-13 06:26:00,38.1,30.6,30.18,East,90,0.0,0.0,74,0.00,,---,0.00,VWS V14.01,2013-03-13 10:26:00,
2013-03-13 06:27:00,38.1,30.6,30.18,East,90,0.0,0.0,74,0.00,,---,0.00,VWS V14.01,2013-03-13 10:27:00,
2013-03-13 06:30:00,39.4,31.1,30.15,East,90,0.0,0.0,72,0.00,,---,0.00,VWS V14.01,2013-03-13 10:30:00,
2013-03-13 06:31:00,37.9,30.4,30.18,East,90,0.0,0.0,74,0.00,,---,0.00,VWS V14.01,2013-03-13 10:31:00,
2013-03-13 06:34:00,37.9,30.4,30.18,East,90,0.0,0.0,74,0.00,,---,0.00,VWS V14.01,2013-03-13 10:34:00,
2013-03-13 06:36:00,39.2,31.0,30.15,East,90,0.0,0.0,72,0.00,,---,0.00,VWS V14.01,2013-03-13 10:36:00,
2013-03-13 06:38:00,37.9,30.4,30.18,East,90,0.0,0.0,74,0.00,,---,0.00,VWS V14.01,2013-03-13 10:38:00,
2013-03-13 06:39:00,37.9,30.4,30.18,East,90,0.0,0.0,74,0.00,,---,0.00,VWS V14.01,2013-03-13 10:39:00,
2013-03-13 06:40:00,37.8,30.2,30.18,East,90,0.0,0.0,74,0.00,,---,0.00,VWS V14.01,2013-03-13 10:40:00,
2013-03-13 06:41:00,39.2,31.0,30.15,East,90,0.0,0.0,72,0.00,,---,0.00,VWS V14.01,2013-03-13 10:41:00,
2013-03-13 06:42:00,37.8,30.2,30.18,East,90,0.0,0.0,74,0.00,,---,0.00,VWS V14.01,2013-03-13 10:42:00,
2013-03-13 06:43:00,37.8,30.2,30.18,East,90,0.0,0.0,74,0.00,,---,0.00,VWS V14.01,2013-03-13 10:43:00,
2013-03-13 06:44:00,37.8,30.2,30.18,East,90,0.0,0.0,74,0.00,,---,0.00,VWS V14.01,2013-03-13 10:44:00,
2013-03-13 06:45:00,37.8,30.2,30.18,East,90,0.0,0.0,74,0.00,,---,0.00,VWS V14.01,2013-03-13 10:45:00,
2013-03-13 06:46:00,39.0,30.8,30.15,East,90,0.0,0.0,72,0.00,,---,0.00,VWS V14.01,2013-03-13 10:46:00,
2013-03-13 06:47:00,37.8,30.2,30.18,East,90,0.0,0.0,74,0.00,,---,0.00,VWS V14.01,2013-03-13 10:47:00,
2013-03-13 06:48:00,37.8,30.2,30.18,East,90,0.0,0.0,74,0.00,,---,0.00,VWS V14.01,2013-03-13 10:48:00,
2013-03-13 06:49:00,37.8,30.2,30.18,East,90,0.0,0.0,74,0.00,,---,0.00,VWS V14.01,2013-03-13 10:49:00,
2013-03-13 06:50:00,37.8,30.6,30.18,East,90,0.0,0.0,75,0.00,,---,0.00,VWS V14.01,2013-03-13 10:50:00,
2013-03-13 06:51:00,37.8,30.6,30.18,East,90,0.0,0.0,75,0.00,,---,0.00,VWS V14.01,2013-03-13 10:51:00,
2013-03-13 06:52:00,38.8,30.9,30.15,East,90,0.0,0.0,73,0.00,,---,0.00,VWS V14.01,2013-03-13 10:52:00,
2013-03-13 06:53:00,37.8,30.6,30.21,East,90,0.0,0.0,75,0.00,,---,0.00,VWS V14.01,2013-03-13 10:53:00,
2013-03-13 06:54:00,37.8,30.6,30.21,East,90,0.0,0.0,75,0.00,,---,0.00,VWS V14.01,2013-03-13 10:54:00,
2013-03-13 06:57:00,38.8,30.9,30.15,East,90,0.0,0.0,73,0.00,,---,0.00,VWS V14.01,2013-03-13 10:57:00,
2013-03-13 06:58:00,37.8,30.6,30.21,East,90,0.0,0.0,75,0.00,,---,0.00,VWS V14.01,2013-03-13 10:58:00,
2013-03-13 06:59:00,37.8,30.9,30.21,East,90,0.0,0.0,76,0.00,,---,0.00,VWS V14.01,2013-03-13 10:59:00,
2013-03-13 07:00:00,37.8,30.9,30.21,East,90,0.0,0.0,76,0.00,,---,0.00,VWS V14.01,2013-03-13 11:00:00,
2013-03-13 07:01:00,37.9,31.1,30.21,East,90,0.0,0.0,76,0.00,,---,0.00,VWS V14.01,2013-03-13 11:01:00,
2013-03-13 07:02:00,38.7,30.8,30.15,East,90,0.0,0.0,73,0.00,,---,0.00,VWS V14.01,2013-03-13 11:02:00,
2013-03-13 07:03:00,37.9,31.1,30.21,East,90,0.0,0.0,76,0.00,,---,0.00,VWS V14.01,2013-03-13 11:03:00,
2013-03-13 07:04:00,37.9,31.1,30.21,East,90,0.0,0.0,76,0.00,,---,0.00,VWS V14.01,2013-03-13 11:04:00,
2013-03-13 07:05:00,37.9,31.1,30.21,East,90,0.0,0.0,76,0.00,,---,0.00,VWS V14.01,2013-03-13 11:05:00,
2013-03-13 07:07:00,38.7,30.8,30.15,East,90,0.0,0.0,73,0.00,,---,0.00,VWS V14.01,2013-03-13 11:07:00,
2013-03-13 07:08:00,37.9,31.1,30.21,East,90,0.0,0.0,76,0.00,,---,0.00,VWS V14.01,2013-03-13 11:08:00,
2013-03-13 07:09:00,38.1,31.2,30.21,East,90,0.0,0.0,76,0.00,,---,0.00,VWS V14.01,2013-03-13 11:09:00,
2013-03-13 07:10:00,38.1,31.2,30.21,East,90,0.0,0.0,76,0.00,,---,0.00,VWS V14.01,2013-03-13 11:10:00,
2013-03-13 07:11:00,38.1,31.6,30.21,East,90,0.0,0.0,77,0.00,,---,0.00,VWS V14.01,2013-03-13 11:11:00,
2013-03-13 07:12:00,38.3,30.4,30.18,East,90,0.0,0.0,73,0.00,,---,0.00,VWS V14.01,2013-03-13 11:12:00,
2013-03-13 07:13:00,38.1,31.6,30.21,East,90,0.0,0.0,77,0.00,,---,0.00,VWS V14.01,2013-03-13 11:13:00,
2013-03-13 07:14:00,38.1,31.6,30.21,East,90,0.0,0.0,77,0.00,,---,0.00,VWS V14.01,2013-03-13 11:14:00,
2013-03-13 07:15:00,38.1,31.6,30.21,East,90,0.0,0.0,77,0.00,,---,0.00,VWS V14.01,2013-03-13 11:15:00,
2013-03-13 07:16:00,38.3,31.7,30.21,East,90,0.0,0.0,77,0.00,,---,0.00,VWS V14.01,2013-03-13 11:16:00,
2013-03-13 07:17:00,38.3,30.4,30.18,East,90,0.0,0.0,73,0.00,,---,0.00,VWS V14.01,2013-03-13 11:17:00,
2013-03-13 07:18:00,38.3,31.7,30.21,East,90,0.0,0.0,77,0.00,,---,0.00,VWS V14.01,2013-03-13 11:18:00,
2013-03-13 07:19:00,38.5,31.9,30.21,East,90,0.0,0.0,77,0.00,,---,0.00,VWS V14.01,2013-03-13 11:19:00,
2013-03-13 07:20:00,38.5,31.9,30.21,East,90,0.0,0.0,77,0.00,,---,0.00,VWS V14.01,2013-03-13 11:20:00,
2013-03-13 07:21:00,38.5,31.9,30.21,East,90,0.0,0.0,77,0.00,,---,0.00,VWS V14.01,2013-03-13 11:21:00,
2013-03-13 07:22:00,38.1,30.2,30.18,East,90,0.0,0.0,73,0.00,,---,0.00,VWS V14.01,2013-03-13 11:22:00,
2013-03-13 07:25:00,38.7,32.1,30.21,East,90,0.0,0.0,77,0.00,,---,0.00,VWS V14.01,2013-03-13 11:25:00,
2013-03-13 07:26:00,38.7,32.1,30.21,East,90,0.0,0.0,77,0.00,,---,0.00,VWS V14.01,2013-03-13 11:26:00,
2013-03-13 07:27:00,37.9,30.4,30.18,East,90,0.0,0.0,74,0.00,,---,0.00,VWS V14.01,2013-03-13 11:27:00,
2013-03-13 07:28:00,38.8,32.3,30.21,East,90,0.0,0.0,77,0.00,,---,0.00,VWS V14.01,2013-03-13 11:28:00,
2013-03-13 07:29:00,38.8,32.3,30.21,East,90,0.0,0.0,77,0.00,,---,0.00,VWS V14.01,2013-03-13 11:29:00,
2013-03-13 07:30:00,39.0,32.4,30.21,East,90,0.0,0.0,77,0.00,,---,0.00,VWS V14.01,2013-03-13 11:30:00,
2013-03-13 07:31:00,39.2,32.6,30.21,East,90,0.0,0.0,77,0.00,,---,0.00,VWS V14.01,2013-03-13 11:31:00,
2013-03-13 07:32:00,37.9,30.4,30.18,East,90,0.0,0.0,74,0.00,,---,0.00,VWS V14.01,2013-03-13 11:32:00,
2013-03-13 07:33:00,39.2,32.6,30.21,East,90,0.0,0.0,77,0.00,,---,0.00,VWS V14.01,2013-03-13 11:33:00,
2013-03-13 07:34:00,39.4,33.1,30.21,East,90,0.0,0.0,78,0.00,,---,0.00,VWS V14.01,2013-03-13 11:34:00,
2013-03-13 07:35:00,39.4,33.1,30.21,East,90,0.0,0.0,78,0.00,,---,0.00,VWS V14.01,2013-03-13 11:35:00,
2013-03-13 07:36:00,39.6,33.3,30.21,East,90,0.0,0.0,78,0.00,,---,0.00,VWS V14.01,2013-03-13 11:36:00,
2013-03-13 07:38:00,37.9,30.4,30.18,East,90,0.0,0.0,74,0.00,,---,0.00,VWS V14.01,2013-03-13 11:38:00,
2013-03-13 07:39:00,39.6,33.3,30.18,East,90,0.0,0.0,78,0.00,,---,0.00,VWS V14.01,2013-03-13 11:39:00,
2013-03-13 07:40:00,39.9,33.6,30.18,East,90,0.0,0.0,78,0.00,,---,0.00,VWS V14.01,2013-03-13 11:40:00,
2013-03-13 07:43:00,37.8,30.2,30.18,East,90,0.0,0.0,74,0.00,,---,0.00,VWS V14.01,2013-03-13 11:43:00,
2013-03-13 07:44:00,40.3,34.0,30.18,East,90,0.0,0.0,78,0.00,,---,0.00,VWS V14.01,2013-03-13 11:44:00,
2013-03-13 07:45:00,40.3,34.0,30.18,East,90,0.0,0.0,78,0.00,,---,0.00,VWS V14.01,2013-03-13 11:45:00,
2013-03-13 07:46:00,40.3,34.0,30.18,East,90,0.0,0.0,78,0.00,,---,0.00,VWS V14.01,2013-03-13 11:46:00,
2013-03-13 07:47:00,40.5,34.2,30.18,East,90,0.0,0.0,78,0.00,,---,0.00,VWS V14.01,2013-03-13 11:47:00,
2013-03-13 07:48:00,37.8,30.2,30.18,East,90,0.0,0.0,74,0.00,,---,0.00,VWS V14.01,2013-03-13 11:48:00,
2013-03-13 07:49:00,40.6,34.3,30.18,East,90,0.0,0.0,78,0.00,,---,0.00,VWS V14.01,2013-03-13 11:49:00,
2013-03-13 07:50:00,40.6,34.3,30.18,East,90,0.0,0.0,78,0.00,,---,0.00,VWS V14.01,2013-03-13 11:50:00,
2013-03-13 07:51:00,40.8,34.5,30.18,East,90,0.0,0.0,78,0.00,,---,0.00,VWS V14.01,2013-03-13 11:51:00,
2013-03-13 07:52:00,41.0,34.7,30.18,East,90,0.0,1.1,78,0.00,,---,0.00,VWS V14.01,2013-03-13 11:52:00,
2013-03-13 07:53:00,37.8,30.6,30.21,East,90,0.0,0.0,75,0.00,,---,0.00,VWS V14.01,2013-03-13 11:53:00,
2013-03-13 07:54:00,41.0,34.7,30.18,East,90,0.0,0.0,78,0.00,,---,0.00,VWS V14.01,2013-03-13 11:54:00,
2013-03-13 07:57:00,41.0,34.7,30.18,East,90,0.0,0.0,78,0.00,,---,0.00,VWS V14.01,2013-03-13 11:57:00,
2013-03-13 07:58:00,37.8,30.6,30.21,East,90,0.0,0.0,75,0.00,,---,0.00,VWS V14.01,2013-03-13 11:58:00,
2013-03-13 07:59:00,41.9,35.2,30.18,East,90,0.0,0.0,77,0.00,,---,0.00,VWS V14.01,2013-03-13 11:59:00,
2013-03-13 08:00:00,42.1,35.4,30.18,East,90,0.0,0.0,77,0.00,,---,0.00,VWS V14.01,2013-03-13 12:00:00,
2013-03-13 08:01:00,42.1,35.4,30.18,East,90,0.0,0.0,77,0.00,,---,0.00,VWS V14.01,2013-03-13 12:01:00,
2013-03-13 08:02:00,42.4,35.8,30.18,ESE,112,1.3,2.2,77,0.00,,---,0.00,VWS V14.01,2013-03-13 12:02:00,
2013-03-13 08:03:00,37.9,31.1,30.21,East,90,0.0,0.0,76,0.00,,---,0.00,VWS V14.01,2013-03-13 12:03:00,
2013-03-13 08:04:00,42.8,35.8,30.18,East,90,1.1,1.6,76,0.00,,---,0.00,VWS V14.01,2013-03-13 12:04:00,
2013-03-13 08:05:00,43.0,36.0,30.18,East,90,0.0,1.1,76,0.00,,---,0.00,VWS V14.01,2013-03-13 12:05:00,
2013-03-13 08:06:00,43.3,36.3,30.18,West,270,0.9,0.9,76,0.00,,---,0.00,VWS V14.01,2013-03-13 12:06:00,
2013-03-13 08:07:00,43.5,36.5,30.18,North,0,2.5,2.5,76,0.00,,---,0.00,VWS V14.01,2013-03-13 12:07:00,
2013-03-13 08:08:00,37.9,31.1,30.21,East,90,0.0,0.0,76,0.00,,---,0.00,VWS V14.01,2013-03-13 12:08:00,
2013-03-13 08:09:00,44.2,37.5,30.21,NW,315,1.1,2.0,77,0.00,,---,0.00,VWS V14.01,2013-03-13 12:09:00,
2013-03-13 08:10:00,44.8,37.7,30.21,NW,315,1.3,1.3,76,0.00,,---,0.00,VWS V14.01,2013-03-13 12:10:00,
2013-03-13 08:11:00,45.9,39.1,30.21,NE,45,1.6,1.6,77,0.00,,---,0.00,VWS V14.01,2013-03-13 12:11:00,
2013-03-13 08:12:00,46.2,39.4,30.21,NE,45,0.0,1.6,77,0.00,,---,0.00,VWS V14.01,2013-03-13 12:12:00,
2013-03-13 08:13:00,38.1,31.6,30.21,East,90,0.0,0.0,77,0.00,,---,0.00,VWS V14.01,2013-03-13 12:13:00,
2013-03-13 08:14:00,47.3,40.8,30.21,NE,45,0.0,0.0,78,0.00,,---,0.00,VWS V14.01,2013-03-13 12:14:00,
2013-03-13 08:15:00,48.0,41.8,30.21,East,90,0.0,0.0,79,0.00,,---,0.00,VWS V14.01,2013-03-13 12:15:00,
2013-03-13 08:18:00,48.6,42.3,30.21,NE,45,2.2,2.7,79,0.00,,---,0.00,VWS V14.01,2013-03-13 12:18:00,
2013-03-13 08:19:00,38.3,31.7,30.21,East,90,0.0,0.0,77,0.00,,---,0.00,VWS V14.01,2013-03-13 12:19:00,
2013-03-13 08:23:00,50.4,44.8,30.21,NE,45,1.1,2.5,81,0.00,,---,0.00,VWS V14.01,2013-03-13 12:23:00,
2013-03-13 08:24:00,38.7,32.1,30.21,East,90,0.0,0.0,77,0.00,,---,0.00,VWS V14.01,2013-03-13 12:24:00,
2013-03-13 08:25:00,53.2,41.4,30.21,South,180,1.3,2.7,64,0.00,,---,0.00,VWS V14.01,2013-03-13 12:25:00,
2013-03-13 08:26:00,53.6,39.6,30.21,NE,45,2.0,2.7,59,0.00,,---,0.00,VWS V14.01,2013-03-13 12:26:00,
2013-03-13 08:27:00,54.0,38.2,30.21,East,90,1.1,2.2,55,0.00,,---,0.00,VWS V14.01,2013-03-13 12:27:00,
2013-03-13 08:28:00,54.5,36.8,30.21,East,90,0.9,1.3,51,0.00,,---,0.00,VWS V14.01,2013-03-13 12:28:00,
2013-03-13 08:29:00,38.8,32.3,30.21,East,90,0.0,0.0,77,0.00,,---,0.00,VWS V14.01,2013-03-13 12:29:00,
2013-03-13 08:32:00,54.7,35.9,30.21,NE,45,0.9,2.2,49,0.00,,---,0.00,VWS V14.01,2013-03-13 12:32:00,
2013-03-13 08:33:00,56.5,35.4,30.21,NE,45,2.0,2.7,45,0.00,,---,0.00,VWS V14.01,2013-03-13 12:33:00,
2013-03-13 08:34:00,39.4,33.1,30.21,East,90,0.0,0.0,78,0.00,,---,0.00,VWS V14.01,2013-03-13 12:34:00,
2013-03-13 08:35:00,56.8,35.7,30.21,SE,135,2.2,2.2,45,0.00,,---,0.00,VWS V14.01,2013-03-13 12:35:00,
2013-03-13 08:38:00,56.8,35.7,30.21,NE,45,2.7,3.4,45,0.00,,---,0.00,VWS V14.01,2013-03-13 12:38:00,
2013-03-13 08:39:00,39.6,33.3,30.21,East,90,0.0,0.0,78,0.00,,---,0.00,VWS V14.01,2013-03-13 12:39:00,
2013-03-13 08:40:00,58.5,31.6,30.21,NE,45,2.2,2.5,36,0.00,,---,0.00,VWS V14.01,2013-03-13 12:40:00,
2013-03-13 08:41:00,58.6,31.1,30.21,East,90,2.0,2.7,35,0.00,,---,0.00,VWS V14.01,2013-03-13 12:41:00,
2013-03-13 08:42:00,59.0,31.4,30.21,East,90,0.0,2.0,35,0.00,,---,0.00,VWS V14.01,2013-03-13 12:42:00,
2013-03-13 08:43:00,59.2,31.6,30.21,NE,45,1.1,2.0,35,0.00,,---,0.00,VWS V14.01,2013-03-13 12:43:00,
2013-03-13 08:44:00,40.3,34.0,30.18,East,90,0.0,0.0,78,0.00,,---,0.00,VWS V14.01,2013-03-13 12:44:00,
2013-03-13 08:45:00,59.4,30.3,30.21,West,270,1.1,2.7,33,0.00,,---,0.00,VWS V14.01,2013-03-13 12:45:00,
2013-03-13 08:46:00,59.5,30.4,30.21,NE,45,3.1,3.1,33,0.00,,---,0.00,VWS V14.01,2013-03-13 12:46:00,
2013-03-13 08:47:00,59.7,29.8,30.21,North,0,2.7,4.0,32,0.00,,---,0.00,VWS V14.01,2013-03-13 12:47:00,
2013-03-13 08:48:00,60.1,26.9,30.21,SE,135,2.5,2.7,28,0.00,,---,0.00,VWS V14.01,2013-03-13 12:48:00,
2013-03-13 08:49:00,40.6,34.3,30.18,East,90,0.0,0.0,78,0.00,,---,0.00,VWS V14.01,2013-03-13 12:49:00,
2013-03-13 08:50:00,60.4,28.9,30.21,NE,45,0.0,2.7,30,0.00,,---,0.00,VWS V14.01,2013-03-13 12:50:00,
2013-03-13 08:51:00,61.0,30.2,30.21,NE,45,1.1,1.1,31,0.00,,---,0.00,VWS V14.01,2013-03-13 12:51:00,
2013-03-13 08:54:00,41.0,34.7,30.18,East,90,0.0,0.0,78,0.00,,---,0.00,VWS V14.01,2013-03-13 12:54:00,
2013-03-13 08:55:00,62.2,28.8,30.21,SE,135,2.7,2.7,28,0.00,,---,0.00,VWS V14.01,2013-03-13 12:55:00,
2013-03-13 08:56:00,62.2,28.8,30.21,NW,315,2.0,2.7,28,0.00,,---,0.00,VWS V14.01,2013-03-13 12:56:00,
2013-03-13 08:57:00,62.2,27.9,30.21,North,0,2.2,2.5,27,0.00,,---,0.00,VWS V14.01,2013-03-13 12:57:00,
2013-03-13 08:58:00,62.4,26.2,30.21,NE,45,2.9,2.9,25,0.00,,---,0.00,VWS V14.01,2013-03-13 12:58:00,
2013-03-13 08:59:00,42.1,35.4,30.18,East,90,0.0,0.0,77,0.00,,---,0.00,VWS V14.01,2013-03-13 12:59:00,
2013-03-13 09:00:00,62.4,26.2,30.21,NE,45,2.0,4.0,25,0.00,,---,0.00,VWS V14.01,2013-03-13 13:00:00,
2013-03-13 09:01:00,62.1,24.9,30.21,NE,45,3.1,4.0,24,0.00,,---,0.00,VWS V14.01,2013-03-13 13:01:00,
2013-03-13 09:02:00,62.2,25.0,30.21,NE,45,2.5,3.6,24,0.00,,---,0.00,VWS V14.01,2013-03-13 13:02:00,
2013-03-13 09:03:00,62.2,25.0,30.21,NW,315,2.7,2.7,24,0.00,,---,0.00,VWS V14.01,2013-03-13 13:03:00,
2013-03-13 09:04:00,42.8,35.8,30.18,East,90,0.0,1.1,76,0.00,,---,0.00,VWS V14.01,2013-03-13 13:04:00,
2013-03-13 09:05:00,62.6,25.3,30.21,West,270,1.1,2.5,24,0.00,,---,0.00,VWS V14.01,2013-03-13 13:05:00,
2013-03-13 09:06:00,63.0,24.6,30.21,NW,315,2.9,3.8,23,0.00,,---,0.00,VWS V14.01,2013-03-13 13:06:00,
2013-03-13 09:07:00,63.0,22.4,30.21,East,90,2.5,3.4,21,0.00,,---,0.00,VWS V14.01,2013-03-13 13:07:00,
2013-03-13 09:08:00,63.0,22.4,30.21,SW,225,2.5,2.7,21,0.00,,---,0.00,VWS V14.01,2013-03-13 13:08:00,
2013-03-13 09:09:00,44.8,37.7,30.21,NW,315,1.3,1.3,76,0.00,,---,0.00,VWS V14.01,2013-03-13 13:09:00,
2013-03-13 09:10:00,62.8,18.7,30.21,NE,45,2.5,4.9,18,0.00,,---,0.00,VWS V14.01,2013-03-13 13:10:00,
2013-03-13 09:11:00,62.8,18.7,30.21,North,0,1.6,2.5,18,0.00,,---,0.00,VWS V14.01,2013-03-13 13:11:00,
2013-03-13 09:12:00,62.8,18.7,30.21,NW,315,1.3,3.6,18,0.00,,---,0.00,VWS V14.01,2013-03-13 13:12:00,
2013-03-13 09:13:00,63.3,22.8,30.21,North,0,0.9,2.5,21,0.00,,---,0.00,VWS V14.01,2013-03-13 13:13:00,
2013-03-13 09:14:00,63.7,23.0,30.21,South,180,1.6,2.0,21,0.00,,---,0.00,VWS V14.01,2013-03-13 13:14:00,
2013-03-13 09:15:00,48.0,41.8,30.21,NE,45,0.0,0.0,79,0.00,,---,0.00,VWS V14.01,2013-03-13 13:15:00,
2013-03-13 09:16:00,64.0,23.3,30.21,West,270,2.5,2.5,21,0.00,,---,0.00,VWS V14.01,2013-03-13 13:16:00,
2013-03-13 09:17:00,64.2,23.5,30.21,West,270,2.2,2.7,21,0.00,,---,0.00,VWS V14.01,2013-03-13 13:17:00,
2013-03-13 09:18:00,64.6,20.1,30.21,SW,225,1.3,2.2,18,0.00,,---,0.00,VWS V14.01,2013-03-13 13:18:00,
2013-03-13 09:19:00,64.6,20.1,30.21,NW,315,2.0,2.9,18,0.00,,---,0.00,VWS V14.01,2013-03-13 13:19:00,
2013-03-13 09:20:00,50.4,44.8,30.21,SE,135,1.3,2.5,81,0.00,,---,0.00,VWS V14.01,2013-03-13 13:20:00,
2013-03-13 09:21:00,64.8,20.3,30.21,West,270,2.2,2.5,18,0.00,,---,0.00,VWS V14.01,2013-03-13 13:21:00,
2013-03-13 09:22:00,64.9,20.4,30.21,SE,135,3.4,4.0,18,0.00,,---,0.00,VWS V14.01,2013-03-13 13:22:00,
2013-03-13 09:23:00,64.4,15.8,30.18,NE,45,2.0,6.0,15,0.00,,---,0.00,VWS V14.01,2013-03-13 13:23:00,
2013-03-13 09:24:00,64.6,15.9,30.18,NW,315,2.5,4.0,15,0.00,,---,0.00,VWS V14.01,2013-03-13 13:24:00,
2013-03-13 09:25:00,53.2,41.4,30.21,South,180,1.3,2.7,64,0.00,,---,0.00,VWS V14.01,2013-03-13 13:25:00,
2013-03-13 09:26:00,65.1,16.4,30.18,NW,315,2.7,2.9,15,0.00,,---,0.00,VWS V14.01,2013-03-13 13:26:00,
2013-03-13 09:27:00,65.3,16.5,30.18,NW,315,2.0,2.7,15,0.00,,---,0.00,VWS V14.01,2013-03-13 13:27:00,
2013-03-13 09:28:00,65.5,16.6,30.18,East,90,2.2,2.5,15,0.00,,---,0.00,VWS V14.01,2013-03-13 13:28:00,
2013-03-13 09:30:00,54.7,35.9,30.21,NE,45,2.2,2.2,49,0.00,,---,0.00,VWS V14.01,2013-03-13 13:30:00,
2013-03-13 09:31:00,66.0,17.1,30.18,West,270,0.9,2.2,15,0.00,,---,0.00,VWS V14.01,2013-03-13 13:31:00,
2013-03-13 09:32:00,66.0,17.1,30.18,NW,315,1.6,1.6,15,0.00,,---,0.00,VWS V14.01,2013-03-13 13:32:00,
2013-03-13 09:33:00,66.2,17.2,30.18,West,270,2.2,2.5,15,0.00,,---,0.00,VWS V14.01,2013-03-13 13:33:00,
2013-03-13 09:35:00,56.8,35.7,30.21,SE,135,2.2,2.2,45,0.00,,---,0.00,VWS V14.01,2013-03-13 13:35:00,
2013-03-13 09:39:00,66.7,12.5,30.21,NE,45,2.9,2.9,12,0.00,,---,0.00,VWS V14.01,2013-03-13 13:39:00,
2013-03-13 09:40:00,58.5,31.6,30.21,NE,45,2.7,2.7,36,0.00,,---,0.00,VWS V14.01,2013-03-13 13:40:00,
2013-03-13 09:41:00,66.4,12.3,30.21,NE,45,2.9,3.1,12,0.00,,---,0.00,VWS V14.01,2013-03-13 13:41:00,
2013-03-13 09:42:00,66.6,12.4,30.21,North,0,2.0,2.9,12,0.00,,---,0.00,VWS V14.01,2013-03-13 13:42:00,
2013-03-13 09:43:00,66.6,12.4,30.21,South,180,3.6,3.6,12,0.00,,---,0.00,VWS V14.01,2013-03-13 13:43:00,
2013-03-13 09:44:00,66.7,12.5,30.21,NE,45,3.1,3.6,12,0.00,,---,0.00,VWS V14.01,2013-03-13 13:44:00,
2013-03-13 09:45:00,66.7,12.5,30.21,NW,315,2.9,3.1,12,0.00,,---,0.00,VWS V14.01,2013-03-13 13:45:00,
2013-03-13 09:46:00,59.5,30.4,30.21,North,0,2.0,2.0,33,0.00,,---,0.00,VWS V14.01,2013-03-13 13:46:00,
2013-03-13 09:47:00,66.7,12.5,30.21,South,180,2.0,3.8,12,0.00,,---,0.00,VWS V14.01,2013-03-13 13:47:00,
2013-03-13 09:50:00,66.7,12.5,30.21,NE,45,1.3,2.0,12,0.00,,---,0.00,VWS V14.01,2013-03-13 13:50:00,
2013-03-13 09:51:00,66.9,12.7,30.21,North,0,4.0,4.0,12,0.00,,---,0.00,VWS V14.01,2013-03-13 13:51:00,
2013-03-13 09:52:00,61.2,28.7,30.21,East,90,1.6,1.6,29,0.00,,---,0.00,VWS V14.01,2013-03-13 13:52:00,
2013-03-13 09:53:00,67.1,12.8,30.21,NE,45,2.5,2.5,12,0.00,,---,0.00,VWS V14.01,2013-03-13 13:53:00,
2013-03-13 09:54:00,67.6,13.2,30.21,NE,45,2.9,3.1,12,0.00,,---,0.00,VWS V14.01,2013-03-13 13:54:00,
2013-03-13 09:55:00,67.6,13.2,30.21,NE,45,7.8,7.8,12,0.00,,---,0.00,VWS V14.01,2013-03-13 13:55:00,
2013-03-13 09:56:00,67.3,13.0,30.21,SW,225,3.6,7.8,12,0.00,,---,0.00,VWS V14.01,2013-03-13 13:56:00,
2013-03-13 09:57:00,62.2,27.9,30.21,North,0,2.2,2.5,27,0.00,,---,0.00,VWS V14.01,2013-03-13 13:57:00,
2013-03-13 09:58:00,66.7,12.5,30.21,North,0,3.8,4.3,12,0.00,,---,0.00,VWS V14.01,2013-03-13 13:58:00,
2013-03-13 09:59:00,66.6,12.4,30.21,West,270,2.0,3.8,12,0.00,,---,0.00,VWS V14.01,2013-03-13 13:59:00,
2013-03-13 10:00:00,66.6,12.4,30.21,SE,135,2.0,3.1,12,0.00,,---,0.00,VWS V14.01,2013-03-13 14:00:00,
2013-03-13 10:01:00,67.3,13.0,30.21,NW,315,2.9,3.6,12,0.00,,---,0.00,VWS V14.01,2013-03-13 14:01:00,
2013-03-13 10:02:00,62.2,25.0,30.21,NE,45,2.5,3.6,24,0.00,,---,0.00,VWS V14.01,2013-03-13 14:02:00,
2013-03-13 10:03:00,67.8,13.4,30.21,South,180,2.0,2.9,12,0.00,,---,0.00,VWS V14.01,2013-03-13 14:03:00,
2013-03-13 10:04:00,68.0,13.5,30.21,South,180,1.3,2.5,12,0.00,,---,0.00,VWS V14.01,2013-03-13 14:04:00,
2013-03-13 10:05:00,68.0,13.5,30.21,NE,45,2.2,2.9,12,0.00,,---,0.00,VWS V14.01,2013-03-13 14:05:00,
2013-03-13 10:06:00,68.2,13.7,30.21,NW,315,2.7,4.3,12,0.00,,---,0.00,VWS V14.01,2013-03-13 14:06:00,
2013-03-13 10:07:00,63.0,22.5,30.21,East,90,2.5,3.4,21,0.00,,---,0.00,VWS V14.01,2013-03-13 14:07:00,
2013-03-13 10:09:00,68.0,13.5,30.21,North,0,2.9,3.1,12,0.00,,---,0.00,VWS V14.01,2013-03-13 14:09:00,
2013-03-13 10:10:00,68.2,13.7,30.21,East,90,2.0,2.9,12,0.00,,---,0.00,VWS V14.01,2013-03-13 14:10:00,
2013-03-13 10:12:00,62.8,18.7,30.21,NW,315,1.3,3.6,18,0.00,,---,0.00,VWS V14.01,2013-03-13 14:12:00,
2013-03-13 10:13:00,68.2,13.7,30.21,NW,315,2.9,4.9,12,0.00,,---,0.00,VWS V14.01,2013-03-13 14:13:00,
2013-03-13 10:14:00,68.2,13.7,30.21,East,90,3.8,3.8,12,0.00,,---,0.00,VWS V14.01,2013-03-13 14:14:00,
2013-03-13 10:17:00,64.4,22.5,30.21,West,270,1.6,2.2,20,0.00,,---,0.00,VWS V14.01,2013-03-13 14:17:00,
2013-03-13 10:18:00,68.5,13.9,30.21,SE,135,2.9,2.9,12,0.00,,---,0.00,VWS V14.01,2013-03-13 14:18:00,
2013-03-13 10:21:00,69.4,14.6,30.21,NW,315,0.0,2.9,12,0.00,,---,0.00,VWS V14.01,2013-03-13 14:21:00,
2013-03-13 10:22:00,64.4,15.8,30.18,North,0,6.0,6.0,15,0.00,,---,0.00,VWS V14.01,2013-03-13 14:22:00,
2013-03-13 10:23:00,69.6,14.8,30.21,East,90,3.1,3.6,12,0.00,,---,0.00,VWS V14.01,2013-03-13 14:23:00,
2013-03-13 10:24:00,70.0,8.6,30.21,West,270,2.0,3.1,9,0.00,,---,0.00,VWS V14.01,2013-03-13 14:24:00,
2013-03-13 10:25:00,69.8,8.5,30.21,North,0,2.0,3.8,9,0.00,,---,0.00,VWS V14.01,2013-03-13 14:25:00,
2013-03-13 10:26:00,69.8,8.5,30.21,West,270,2.0,2.0,9,0.00,,---,0.00,VWS V14.01,2013-03-13 14:26:00,
2013-03-13 10:27:00,70.0,8.6,30.21,SW,225,4.3,4.3,9,0.00,,---,0.00,VWS V14.01,2013-03-13 14:27:00,
2013-03-13 10:28:00,65.3,16.5,30.18,West,270,2.5,2.5,15,0.00,,---,0.00,VWS V14.01,2013-03-13 14:28:00,
2013-03-13 10:29:00,69.6,10.7,30.21,SW,225,1.3,3.1,10,0.00,,---,0.00,VWS V14.01,2013-03-13 14:29:00,
2013-03-13 10:30:00,69.8,8.5,30.21,NE,45,2.9,4.0,9,0.00,,---,0.00,VWS V14.01,2013-03-13 14:30:00,
2013-03-13 10:33:00,66.2,17.2,30.18,West,270,2.2,2.5,15,0.00,,---,0.00,VWS V14.01,2013-03-13 14:33:00,
2013-03-13 10:34:00,70.5,9.0,30.21,SW,225,2.0,2.9,9,0.00,,---,0.00,VWS V14.01,2013-03-13 14:34:00,
2013-03-13 10:35:00,70.2,8.7,30.21,SW,225,2.7,4.0,9,0.00,,---,0.00,VWS V14.01,2013-03-13 14:35:00,
2013-03-13 10:36:00,70.0,8.6,30.21,SW,225,1.6,2.7,9,0.00,,---,0.00,VWS V14.01,2013-03-13 14:36:00,
2013-03-13 10:38:00,66.6,17.5,30.18,NE,45,2.0,3.1,15,0.00,,---,0.00,VWS V14.01,2013-03-13 14:38:00,
2013-03-13 10:39:00,70.2,8.7,30.21,NW,315,3.1,3.1,9,0.00,,---,0.00,VWS V14.01,2013-03-13 14:39:00,
2013-03-13 10:40:00,70.5,9.0,30.18,NW,315,2.5,3.1,9,0.00,,---,0.00,VWS V14.01,2013-03-13 14:40:00,
2013-03-13 10:41:00,70.7,9.1,30.18,East,90,3.1,3.1,9,0.00,,---,0.00,VWS V14.01,2013-03-13 14:41:00,
2013-03-13 10:43:00,66.6,12.4,30.21,South,180,3.6,3.6,12,0.00,,---,0.00,VWS V14.01,2013-03-13 14:43:00,
2013-03-13 10:44:00,70.7,9.1,30.18,West,270,1.3,3.1,9,0.00,,---,0.00,VWS V14.01,2013-03-13 14:44:00,
2013-03-13 10:45:00,71.2,9.6,30.18,West,270,2.0,3.1,9,0.00,,---,0.00,VWS V14.01,2013-03-13 14:45:00,
2013-03-13 10:46:00,71.4,9.7,30.18,SW,225,1.6,2.2,9,0.00,,---,0.00,VWS V14.01,2013-03-13 14:46:00,
2013-03-13 10:47:00,71.4,9.7,30.18,West,270,4.7,4.7,9,0.00,,---,0.00,VWS V14.01,2013-03-13 14:47:00,
2013-03-13 10:48:00,66.7,12.5,30.21,South,180,2.0,3.8,12,0.00,,---,0.00,VWS V14.01,2013-03-13 14:48:00,
2013-03-13 10:49:00,71.2,9.6,30.18,North,0,9.6,9.6,9,0.00,,---,0.00,VWS V14.01,2013-03-13 14:49:00,
2013-03-13 10:50:00,71.1,9.4,30.18,SW,225,3.1,9.6,9,0.00,,---,0.00,VWS V14.01,2013-03-13 14:50:00,
2013-03-13 10:51:00,71.1,9.4,30.18,NW,315,2.7,4.0,9,0.00,,---,0.00,VWS V14.01,2013-03-13 14:51:00,
2013-03-13 10:52:00,71.4,9.7,30.24,NW,315,2.0,3.8,9,0.00,,---,0.00,VWS V14.01,2013-03-13 14:52:00,
2013-03-13 10:53:00,71.4,9.7,30.24,North,0,3.1,4.3,9,0.00,,---,0.00,VWS V14.01,2013-03-13 14:53:00,
2013-03-13 10:54:00,67.3,13.0,30.21,SE,135,2.7,3.1,12,0.00,,---,0.00,VWS V14.01,2013-03-13 14:54:00,
2013-03-13 10:55:00,71.8,10.0,30.24,SE,135,2.0,2.9,9,0.00,,---,0.00,VWS V14.01,2013-03-13 14:55:00,
2013-03-13 10:56:00,71.8,10.0,30.24,East,90,3.1,3.6,9,0.00,,---,0.00,VWS V14.01,2013-03-13 14:56:00,
2013-03-13 10:57:00,72.0,10.1,30.24,NW,315,2.0,3.1,9,0.00,,---,0.00,VWS V14.01,2013-03-13 14:57:00,
2013-03-13 10:58:00,72.0,10.1,30.24,NW,315,2.5,2.9,9,0.00,,---,0.00,VWS V14.01,2013-03-13 14:58:00,
2013-03-13 10:59:00,66.6,12.4,30.21,North,0,3.1,3.8,12,0.00,,---,0.00,VWS V14.01,2013-03-13 14:59:00,
2013-03-13 11:00:00,72.0,10.1,30.24,North,0,4.0,5.6,9,0.00,,---,0.00,VWS V14.01,2013-03-13 15:00:00,
2013-03-13 11:01:00,72.0,10.1,30.24,NW,315,2.5,4.0,9,0.00,,---,0.00,VWS V14.01,2013-03-13 15:01:00,
2013-03-13 11:02:00,72.0,10.1,30.24,NW,315,2.5,2.9,9,0.00,,---,0.00,VWS V14.01,2013-03-13 15:02:00,
2013-03-13 11:04:00,67.8,13.4,30.21,SE,135,2.0,2.5,12,0.00,,---,0.00,VWS V14.01,2013-03-13 15:04:00,
2013-03-13 11:05:00,72.9,10.8,30.24,NW,315,1.1,2.5,9,0.00,,---,0.00,VWS V14.01,2013-03-13 15:05:00,
2013-03-13 11:06:00,72.5,10.5,30.24,NW,315,3.8,4.9,9,0.00,,---,0.00,VWS V14.01,2013-03-13 15:06:00,
2013-03-13 11:07:00,72.9,10.8,30.21,NW,315,3.6,3.8,9,0.00,,---,0.00,VWS V14.01,2013-03-13 15:07:00,
2013-03-13 11:08:00,73.0,10.9,30.21,South,180,3.1,3.6,9,0.00,,---,0.00,VWS V14.01,2013-03-13 15:08:00,
2013-03-13 11:09:00,68.0,13.5,30.21,East,90,2.5,3.1,12,0.00,,---,0.00,VWS V14.01,2013-03-13 15:09:00,
2013-03-13 11:10:00,73.2,11.1,30.21,NE,45,2.0,2.7,9,0.00,,---,0.00,VWS V14.01,2013-03-13 15:10:00,
2013-03-13 11:11:00,73.2,11.1,30.21,SW,225,2.9,5.6,9,0.00,,---,0.00,VWS V14.01,2013-03-13 15:11:00,
2013-03-13 11:12:00,73.0,10.9,30.21,West,270,4.9,4.9,9,0.00,,---,0.00,VWS V14.01,2013-03-13 15:12:00,
2013-03-13 11:13:00,73.0,10.9,30.21,South,180,4.3,4.9,9,0.00,,---,0.00,VWS V14.01,2013-03-13 15:13:00,
2013-03-13 11:14:00,68.2,13.7,30.21,East,90,3.8,3.8,12,0.00,,---,0.00,VWS V14.01,2013-03-13 15:14:00,
2013-03-13 11:15:00,72.9,10.8,30.21,NW,315,2.9,4.7,9,0.00,,---,0.00,VWS V14.01,2013-03-13 15:15:00,
2013-03-13 11:16:00,72.9,10.8,30.21,West,270,1.3,2.9,9,0.00,,---,0.00,VWS V14.01,2013-03-13 15:16:00,
2013-03-13 11:17:00,73.0,10.9,30.21,SE,135,3.4,7.6,9,0.00,,---,0.00,VWS V14.01,2013-03-13 15:17:00,
2013-03-13 11:19:00,68.5,13.9,30.21,SSE,158,2.0,2.9,12,0.00,,---,0.00,VWS V14.01,2013-03-13 15:19:00,
2013-03-13 11:20:00,73.8,8.8,30.21,NW,315,2.7,3.4,8,0.00,,---,0.00,VWS V14.01,2013-03-13 15:20:00,
2013-03-13 11:21:00,73.8,8.8,30.21,NW,315,1.6,2.7,8,0.00,,---,0.00,VWS V14.01,2013-03-13 15:21:00,
2013-03-13 11:22:00,73.6,8.7,30.21,SE,135,3.6,4.3,8,0.00,,---,0.00,VWS V14.01,2013-03-13 15:22:00,
2013-03-13 11:23:00,73.4,8.6,30.21,SE,135,4.0,4.0,8,0.00,,---,0.00,VWS V14.01,2013-03-13 15:23:00,
2013-03-13 11:24:00,70.0,8.6,30.21,West,270,2.0,3.1,9,0.00,,---,0.00,VWS V14.01,2013-03-13 15:24:00,
2013-03-13 11:25:00,73.2,11.1,30.21,South,180,4.9,4.9,9,0.00,,---,0.00,VWS V14.01,2013-03-13 15:25:00,
2013-03-13 11:26:00,72.7,10.6,30.21,SW,225,3.6,4.9,9,0.00,,---,0.00,VWS V14.01,2013-03-13 15:26:00,
2013-03-13 11:29:00,69.8,8.5,30.21,NW,315,4.0,4.0,9,0.00,,---,0.00,VWS V14.01,2013-03-13 15:29:00,
2013-03-13 11:30:00,72.9,10.8,30.21,NE,45,2.2,5.8,9,0.00,,---,0.00,VWS V14.01,2013-03-13 15:30:00,
2013-03-13 11:31:00,72.9,10.8,30.21,West,270,3.8,3.8,9,0.00,,---,0.00,VWS V14.01,2013-03-13 15:31:00,
2013-03-13 11:32:00,73.2,11.1,30.21,West,270,2.0,3.8,9,0.00,,---,0.00,VWS V14.01,2013-03-13 15:32:00,
2013-03-13 11:33:00,73.4,8.6,30.21,SW,225,5.4,5.4,8,0.00,,---,0.00,VWS V14.01,2013-03-13 15:33:00,
2013-03-13 11:34:00,73.4,8.6,30.21,NE,45,3.1,5.4,8,0.00,,---,0.00,VWS V14.01,2013-03-13 15:34:00,
2013-03-13 11:35:00,70.5,9.0,30.21,South,180,4.0,4.0,9,0.00,,---,0.00,VWS V14.01,2013-03-13 15:35:00,
2013-03-13 11:38:00,73.4,8.6,30.18,NW,315,4.5,4.5,8,0.00,,---,0.00,VWS V14.01,2013-03-13 15:38:00,
2013-03-13 11:39:00,73.6,8.7,30.18,NE,45,2.9,4.9,8,0.00,,---,0.00,VWS V14.01,2013-03-13 15:39:00,
2013-03-13 11:40:00,70.2,8.7,30.21,NW,315,3.1,3.1,9,0.00,,---,0.00,VWS V14.01,2013-03-13 15:40:00,
2013-03-13 11:41:00,73.6,8.7,30.18,NW,315,2.7,2.7,8,0.00,,---,0.00,VWS V14.01,2013-03-13 15:41:00,
2013-03-13 11:42:00,73.6,8.7,30.18,NW,315,3.4,3.4,8,0.00,,---,0.00,VWS V14.01,2013-03-13 15:42:00,
2013-03-13 11:43:00,74.1,9.1,30.18,North,0,2.9,3.4,8,0.00,,---,0.00,VWS V14.01,2013-03-13 15:43:00,
2013-03-13 11:44:00,74.3,9.2,30.18,SW,225,3.8,3.8,8,0.00,,---,0.00,VWS V14.01,2013-03-13 15:44:00,
2013-03-13 11:45:00,71.2,9.6,30.18,West,270,2.0,3.1,9,0.00,,---,0.00,VWS V14.01,2013-03-13 15:45:00,
2013-03-13 11:46:00,74.7,9.5,30.18,North,0,4.0,4.0,8,0.00,,---,0.00,VWS V14.01,2013-03-13 15:46:00,
2013-03-13 11:47:00,74.5,9.4,30.18,NW,315,2.9,4.3,8,0.00,,---,0.00,VWS V14.01,2013-03-13 15:47:00,
2013-03-13 11:48:00,73.9,9.0,30.18,NE,45,2.5,3.1,8,0.00,,---,0.00,VWS V14.01,2013-03-13 15:48:00,
2013-03-13 11:49:00,74.1,9.1,30.18,SW,225,2.5,4.9,8,0.00,,---,0.00,VWS V14.01,2013-03-13 15:49:00,
2013-03-13 11:50:00,71.1,9.4,30.18,SW,225,3.1,9.6,9,0.00,,---,0.00,VWS V14.01,2013-03-13 15:50:00,
2013-03-13 11:53:00,74.1,9.1,30.18,NW,315,6.0,6.0,8,0.00,,---,0.00,VWS V14.01,2013-03-13 15:53:00,
2013-03-13 11:54:00,73.2,11.1,30.18,South,180,5.6,6.0,9,0.00,,---,0.00,VWS V14.01,2013-03-13 15:54:00,
2013-03-13 11:55:00,71.8,10.0,30.24,SE,135,2.0,2.9,9,0.00,,---,0.00,VWS V14.01,2013-03-13 15:55:00,
2013-03-13 11:56:00,73.8,8.8,30.18,South,180,2.7,4.5,8,0.00,,---,0.00,VWS V14.01,2013-03-13 15:56:00,
2013-03-13 11:57:00,73.8,8.8,30.18,West,270,2.7,5.6,8,0.00,,---,0.00,VWS V14.01,2013-03-13 15:57:00,
2013-03-13 11:58:00,74.3,9.2,30.18,NW,315,1.3,2.7,8,0.00,,---,0.00,VWS V14.01,2013-03-13 15:58:00,
2013-03-13 11:59:00,74.5,9.4,30.18,SE,135,1.6,2.5,8,0.00,,---,0.00,VWS V14.01,2013-03-13 15:59:00,
2013-03-13 12:00:00,72.0,10.1,30.24,North,0,4.0,5.6,9,0.00,,---,0.00,VWS V14.01,2013-03-13 16:00:00,
2013-03-13 12:01:00,74.8,9.6,30.18,North,0,3.1,3.1,8,0.00,,---,0.00,VWS V14.01,2013-03-13 16:01:00,
2013-03-13 12:02:00,74.7,9.5,30.18,West,270,4.9,4.9,8,0.00,,---,0.00,VWS V14.01,2013-03-13 16:02:00,
2013-03-13 12:03:00,74.7,9.5,30.18,NW,315,3.8,4.9,8,0.00,,---,0.00,VWS V14.01,2013-03-13 16:03:00,
2013-03-13 12:04:00,74.3,9.2,30.18,SW,225,4.0,4.0,8,0.00,,---,0.00,VWS V14.01,2013-03-13 16:04:00,
2013-03-13 12:05:00,72.9,10.8,30.24,NW,315,1.1,2.5,9,0.00,,---,0.00,VWS V14.01,2013-03-13 16:05:00,
2013-03-13 12:08:00,75.2,9.9,30.18,NW,315,1.6,2.7,8,0.00,,---,0.00,VWS V14.01,2013-03-13 16:08:00,
2013-03-13 12:09:00,75.2,9.9,30.18,NE,45,5.8,5.8,8,0.00,,---,0.00,VWS V14.01,2013-03-13 16:09:00,
2013-03-13 12:10:00,73.2,11.1,30.21,NE,45,2.0,2.7,9,0.00,,---,0.00,VWS V14.01,2013-03-13 16:10:00,
2013-03-13 12:11:00,75.0,9.8,30.18,SW,225,3.4,3.6,8,0.00,,---,0.00,VWS V14.01,2013-03-13 16:11:00,
2013-03-13 12:12:00,74.7,9.5,30.18,SW,225,2.9,3.8,8,0.00,,---,0.00,VWS V14.01,2013-03-13 16:12:00,
2013-03-13 12:13:00,74.5,9.4,30.18,NW,315,4.3,4.3,8,0.00,,---,0.00,VWS V14.01,2013-03-13 16:13:00,
2013-03-13 12:14:00,74.7,9.5,30.18,SW,225,2.9,4.3,8,0.00,,---,0.00,VWS V14.01,2013-03-13 16:14:00,
2013-03-13 12:15:00,72.9,10.8,30.21,NW,315,2.9,4.7,9,0.00,,---,0.00,VWS V14.01,2013-03-13 16:15:00,
2013-03-13 12:18:00,74.1,9.1,30.18,South,180,2.5,3.4,8,0.00,,---,0.00,VWS V14.01,2013-03-13 16:18:00,
2013-03-13 12:19:00,74.8,9.6,30.18,West,270,2.0,2.5,8,0.00,,---,0.00,VWS V14.01,2013-03-13 16:19:00,
2013-03-13 12:20:00,73.0,10.9,30.21,NW,315,2.2,3.4,9,0.00,,---,0.00,VWS V14.01,2013-03-13 16:20:00,
2013-03-13 12:21:00,75.0,9.8,30.18,NW,315,2.7,4.3,8,0.00,,---,0.00,VWS V14.01,2013-03-13 16:21:00,
2013-03-13 12:22:00,75.0,9.8,30.18,West,270,2.9,3.1,8,0.00,,---,0.00,VWS V14.01,2013-03-13 16:22:00,
2013-03-13 12:23:00,75.4,10.0,30.18,West,270,1.6,2.9,8,0.00,,---,0.00,VWS V14.01,2013-03-13 16:23:00,
2013-03-13 12:24:00,75.7,10.3,30.18,West,270,1.6,2.7,8,0.00,,---,0.00,VWS V14.01,2013-03-13 16:24:00,
2013-03-13 12:25:00,73.2,11.1,30.21,South,180,4.9,4.9,9,0.00,,---,0.00,VWS V14.01,2013-03-13 16:25:00,
2013-03-13 12:26:00,75.9,10.4,30.18,NW,315,2.5,4.0,8,0.00,,---,0.00,VWS V14.01,2013-03-13 16:26:00,
2013-03-13 12:27:00,75.0,9.8,30.18,NW,315,3.8,3.8,8,0.00,,---,0.00,VWS V14.01,2013-03-13 16:27:00,
2013-03-13 12:28:00,74.8,9.6,30.18,North,0,3.6,3.8,8,0.00,,---,0.00,VWS V14.01,2013-03-13 16:28:00,
2013-03-13 12:29:00,75.2,9.9,30.18,NW,315,2.7,3.8,8,0.00,,---,0.00,VWS V14.01,2013-03-13 16:29:00,
2013-03-13 12:30:00,75.6,10.2,30.18,NW,315,2.9,3.1,8,0.00,,---,0.00,VWS V14.01,2013-03-13 16:30:00,
2013-03-13 12:31:00,72.9,10.8,30.21,SW,225,1.6,2.2,9,0.00,,---,0.00,VWS V14.01,2013-03-13 16:31:00,
2013-03-13 12:32:00,75.7,10.3,30.18,North,0,4.9,4.9,8,0.00,,---,0.00,VWS V14.01,2013-03-13 16:32:00,
2013-03-13 12:33:00,75.6,10.2,30.18,West,270,6.0,6.0,8,0.00,,---,0.00,VWS V14.01,2013-03-13 16:33:00,
2013-03-13 12:34:00,75.6,10.2,30.18,South,180,2.5,6.0,8,0.00,,---,0.00,VWS V14.01,2013-03-13 16:34:00,
2013-03-13 12:35:00,75.2,9.9,30.18,West,270,3.8,4.9,8,0.00,,---,0.00,VWS V14.01,2013-03-13 16:35:00,
2013-03-13 12:36:00,73.4,8.6,30.21,North,0,2.7,3.1,8,0.00,,---,0.00,VWS V14.01,2013-03-13 16:36:00,
2013-03-13 12:37:00,75.0,9.8,30.15,West,270,2.7,2.7,8,0.00,,---,0.00,VWS V14.01,2013-03-13 16:37:00,
2013-03-13 12:38:00,75.0,9.8,30.15,NW,315,2.7,4.3,8,0.00,,---,0.00,VWS V14.01,2013-03-13 16:38:00,
2013-03-13 12:39:00,74.7,9.5,30.15,West,270,3.8,4.3,8,0.00,,---,0.00,VWS V14.01,2013-03-13 16:39:00,
2013-03-13 12:40:00,74.8,9.6,30.15,West,270,3.8,3.8,8,0.00,,---,0.00,VWS V14.01,2013-03-13 16:40:00,
2013-03-13 12:41:00,73.6,8.7,30.18,NW,315,2.2,2.7,8,0.00,,---,0.00,VWS V14.01,2013-03-13 16:41:00,
2013-03-13 12:42:00,74.8,9.6,30.15,SE,135,4.0,4.0,8,0.00,,---,0.00,VWS V14.01,2013-03-13 16:42:00,
2013-03-13 12:43:00,74.8,9.6,30.15,West,270,8.1,8.1,8,0.00,,---,0.00,VWS V14.01,2013-03-13 16:43:00,
2013-03-13 12:44:00,74.8,9.6,30.15,South,180,2.7,8.1,8,0.00,,---,0.00,VWS V14.01,2013-03-13 16:44:00,
2013-03-13 12:45:00,74.7,9.5,30.15,SW,225,2.7,4.7,8,0.00,,---,0.00,VWS V14.01,2013-03-13 16:45:00,
2013-03-13 12:46:00,74.7,9.5,30.18,North,0,1.6,3.4,8,0.00,,---,0.00,VWS V14.01,2013-03-13 16:46:00,
2013-03-13 12:47:00,74.7,9.5,30.15,West,270,4.3,4.3,8,0.00,,---,0.00,VWS V14.01,2013-03-13 16:47:00,
2013-03-13 12:48:00,74.8,9.6,30.15,West,270,2.7,4.3,8,0.00,,---,0.00,VWS V14.01,2013-03-13 16:48:00,
2013-03-13 12:49:00,74.7,9.5,30.15,NW,315,4.3,4.3,8,0.00,,---,0.00,VWS V14.01,2013-03-13 16:49:00,
2013-03-13 12:50:00,74.8,9.6,30.15,NW,315,2.7,4.3,8,0.00,,---,0.00,VWS V14.01,2013-03-13 16:50:00,
2013-03-13 12:51:00,74.1,9.1,30.18,North,0,1.6,2.5,8,0.00,,---,0.00,VWS V14.01,2013-03-13 16:51:00,
2013-03-13 12:52:00,74.7,9.5,30.15,West,270,2.7,4.0,8,0.00,,---,0.00,VWS V14.01,2013-03-13 16:52:00,
2013-03-13 12:53:00,74.7,9.5,30.15,West,270,1.6,4.0,8,0.00,,---,0.00,VWS V14.01,2013-03-13 16:53:00,
2013-03-13 12:54:00,74.8,9.6,30.15,South,180,5.4,5.4,8,0.00,,---,0.00,VWS V14.01,2013-03-13 16:54:00,
2013-03-13 12:55:00,74.5,9.4,30.15,West,270,3.1,5.4,8,0.00,,---,0.00,VWS V14.01,2013-03-13 16:55:00,
2013-03-13 12:56:00,73.6,8.7,30.18,NW,315,4.3,4.3,8,0.00,,---,0.00,VWS V14.01,2013-03-13 16:56:00,
2013-03-13 12:58:00,74.5,9.4,30.15,NW,315,0.9,3.1,8,0.00,,---,0.00,VWS V14.01,2013-03-13 16:58:00,
2013-03-13 12:59:00,74.5,9.4,30.15,West,270,4.3,4.3,8,0.00,,---,0.00,VWS V14.01,2013-03-13 16:59:00,
2013-03-13 13:00:00,75.4,10.0,30.15,East,90,1.6,4.3,8,0.00,,---,0.00,VWS V14.01,2013-03-13 17:00:00,
2013-03-13 13:01:00,74.8,9.6,30.18,North,0,3.1,3.1,8,0.00,,---,0.00,VWS V14.01,2013-03-13 17:01:00,
2013-03-13 13:02:00,75.4,10.0,30.15,South,180,2.9,4.0,8,0.00,,---,0.00,VWS V14.01,2013-03-13 17:02:00,
2013-03-13 13:03:00,75.9,10.4,30.15,South,180,1.1,2.9,8,0.00,,---,0.00,VWS V14.01,2013-03-13 17:03:00,
2013-03-13 13:04:00,76.3,10.7,30.15,NW,315,3.1,3.1,8,0.00,,---,0.00,VWS V14.01,2013-03-13 17:04:00,
2013-03-13 13:05:00,76.5,10.8,30.15,South,180,1.3,3.1,8,0.00,,---,0.00,VWS V14.01,2013-03-13 17:05:00,
2013-03-13 13:06:00,74.3,9.2,30.18,NW,315,2.7,2.7,8,0.00,,---,0.00,VWS V14.01,2013-03-13 17:06:00,
2013-03-13 13:07:00,75.9,10.4,30.15,West,270,5.4,5.6,8,0.00,,---,0.00,VWS V14.01,2013-03-13 17:07:00,
2013-03-13 13:08:00,75.6,10.2,30.15,SW,225,3.6,5.8,8,0.00,,---,0.00,VWS V14.01,2013-03-13 17:08:00,
2013-03-13 13:09:00,75.2,9.9,30.15,NW,315,3.6,3.6,8,0.00,,---,0.00,VWS V14.01,2013-03-13 17:09:00,
2013-03-13 13:10:00,75.2,9.9,30.15,West,270,3.6,3.8,8,0.00,,---,0.00,VWS V14.01,2013-03-13 17:10:00,
2013-03-13 13:11:00,75.0,9.8,30.18,SW,225,3.4,3.6,8,0.00,,---,0.00,VWS V14.01,2013-03-13 17:11:00,
2013-03-13 13:12:00,74.8,9.6,30.15,North,0,3.6,3.6,8,0.00,,---,0.00,VWS V14.01,2013-03-13 17:12:00,
2013-03-13 13:13:00,75.0,9.8,30.15,NW,315,4.0,4.0,8,0.00,,---,0.00,VWS V14.01,2013-03-13 17:13:00,
2013-03-13 13:16:00,74.1,9.1,30.18,South,180,2.0,3.4,8,0.00,,---,0.00,VWS V14.01,2013-03-13 17:16:00,
2013-03-13 13:17:00,75.6,10.2,30.15,East,90,3.4,3.4,8,0.00,,---,0.00,VWS V14.01,2013-03-13 17:17:00,
2013-03-13 13:18:00,75.7,10.3,30.15,West,270,3.6,3.6,8,0.00,,---,0.00,VWS V14.01,2013-03-13 17:18:00,
2013-03-13 13:19:00,75.7,10.3,30.15,NW,315,4.0,4.0,8,0.00,,---,0.00,VWS V14.01,2013-03-13 17:19:00,
2013-03-13 13:21:00,75.0,9.8,30.18,NW,315,3.1,3.1,8,0.00,,---,0.00,VWS V14.01,2013-03-13 17:21:00,
2013-03-13 13:22:00,75.7,10.3,30.15,West,270,4.7,4.7,8,0.00,,---,0.00,VWS V14.01,2013-03-13 17:22:00,
2013-03-13 13:23:00,76.3,10.7,30.15,North,0,2.5,4.7,8,0.00,,---,0.00,VWS V14.01,2013-03-13 17:23:00,
2013-03-13 13:24:00,76.3,10.7,30.15,West,270,3.1,3.1,8,0.00,,---,0.00,VWS V14.01,2013-03-13 17:24:00,
2013-03-13 13:25:00,76.5,10.8,30.15,North,0,2.0,3.1,8,0.00,,---,0.00,VWS V14.01,2013-03-13 17:25:00,
2013-03-13 13:26:00,75.9,10.4,30.18,NW,315,3.4,3.4,8,0.00,,---,0.00,VWS V14.01,2013-03-13 17:26:00,
2013-03-13 13:27:00,76.6,11.0,30.15,West,270,2.7,2.9,8,0.00,,---,0.00,VWS V14.01,2013-03-13 17:27:00,
2013-03-13 13:30:00,76.6,11.0,30.15,NE,45,3.4,5.6,8,0.00,,---,0.00,VWS V14.01,2013-03-13 17:30:00,
2013-03-13 13:31:00,75.7,10.3,30.18,West,270,2.9,3.8,8,0.00,,---,0.00,VWS V14.01,2013-03-13 17:31:00,
2013-03-13 13:32:00,76.1,10.6,30.15,West,270,3.1,4.7,8,0.00,,---,0.00,VWS V14.01,2013-03-13 17:32:00,
2013-03-13 13:33:00,76.3,10.7,30.15,South,180,3.6,3.6,8,0.00,,---,0.00,VWS V14.01,2013-03-13 17:33:00,
2013-03-13 13:34:00,76.3,10.7,30.15,South,180,4.3,5.8,8,0.00,,---,0.00,VWS V14.01,2013-03-13 17:34:00,
2013-03-13 13:35:00,75.7,10.3,30.15,West,270,2.9,4.3,8,0.00,,---,0.00,VWS V14.01,2013-03-13 17:35:00,
2013-03-13 13:36:00,75.7,10.3,30.15,South,180,4.5,4.5,8,0.00,,---,0.00,VWS V14.01,2013-03-13 17:36:00,
2013-03-13 13:37:00,75.0,9.8,30.18,South,180,2.0,2.0,8,0.00,,---,0.00,VWS V14.01,2013-03-13 17:37:00,
2013-03-13 13:40:00,75.7,10.3,30.12,East,90,4.0,4.0,8,0.00,,---,0.00,VWS V14.01,2013-03-13 17:40:00,
2013-03-13 13:41:00,75.7,10.3,30.12,NW,315,2.9,4.0,8,0.00,,---,0.00,VWS V14.01,2013-03-13 17:41:00,
2013-03-13 13:42:00,74.8,9.6,30.15,West,270,2.5,3.1,8,0.00,,---,0.00,VWS V14.01,2013-03-13 17:42:00,
2013-03-13 13:43:00,75.6,10.2,30.12,SE,135,4.0,4.0,8,0.00,,---,0.00,VWS V14.01,2013-03-13 17:43:00,
2013-03-13 13:44:00,75.6,10.2,30.12,South,180,4.3,4.3,8,0.00,,---,0.00,VWS V14.01,2013-03-13 17:44:00,
2013-03-13 13:45:00,75.6,10.2,30.12,West,270,2.9,6.3,8,0.00,,---,0.00,VWS V14.01,2013-03-13 17:45:00,
2013-03-13 13:46:00,75.6,10.2,30.12,West,270,3.4,4.3,8,0.00,,---,0.00,VWS V14.01,2013-03-13 17:46:00,
2013-03-13 13:47:00,74.7,9.5,30.15,West,270,4.3,4.3,8,0.00,,---,0.00,VWS V14.01,2013-03-13 17:47:00,
2013-03-13 13:48:00,75.9,10.4,30.12,SW,225,1.1,1.6,8,0.00,,---,0.00,VWS V14.01,2013-03-13 17:48:00,
2013-03-13 13:49:00,76.1,10.6,30.12,West,270,1.6,2.9,8,0.00,,---,0.00,VWS V14.01,2013-03-13 17:49:00,
2013-03-13 13:52:00,74.7,9.5,30.15,West,270,2.7,4.0,8,0.00,,---,0.00,VWS V14.01,2013-03-13 17:52:00,
2013-03-13 13:53:00,76.1,10.6,30.12,North,0,2.5,4.0,8,0.00,,---,0.00,VWS V14.01,2013-03-13 17:53:00,
2013-03-13 13:54:00,76.1,10.6,30.12,NE,45,4.7,4.7,8,0.00,,---,0.00,VWS V14.01,2013-03-13 17:54:00,
2013-03-13 13:55:00,75.7,10.3,30.12,West,270,3.4,4.7,8,0.00,,---,0.00,VWS V14.01,2013-03-13 17:55:00,
2013-03-13 13:56:00,76.1,10.6,30.12,NW,315,2.0,3.6,8,0.00,,---,0.00,VWS V14.01,2013-03-13 17:56:00,
2013-03-13 13:57:00,74.5,9.4,30.15,West,270,3.1,3.1,8,0.00,,---,0.00,VWS V14.01,2013-03-13 17:57:00,
2013-03-13 13:58:00,76.3,10.7,30.12,West,270,2.7,2.7,8,0.00,,---,0.00,VWS V14.01,2013-03-13 17:58:00,
2013-03-13 13:59:00,76.3,10.7,30.12,NW,315,2.9,3.4,8,0.00,,---,0.00,VWS V14.01,2013-03-13 17:59:00,
2013-03-13 14:00:00,76.5,10.8,30.12,NW,315,1.1,2.9,8,0.00,,---,0.00,VWS V14.01,2013-03-13 18:00:00,
2013-03-13 14:01:00,76.8,11.1,30.12,North,0,2.5,2.5,8,0.00,,---,0.00,VWS V14.01,2013-03-13 18:01:00,
2013-03-13 14:02:00,75.6,10.2,30.15,ESE,112,2.2,2.9,8,0.00,,---,0.00,VWS V14.01,2013-03-13 18:02:00,
2013-03-13 14:03:00,76.8,11.1,30.12,East,90,2.5,4.0,8,0.00,,---,0.00,VWS V14.01,2013-03-13 18:03:00,
2013-03-13 14:04:00,76.5,10.8,30.12,NW,315,4.0,4.0,8,0.00,,---,0.00,VWS V14.01,2013-03-13 18:04:00,
2013-03-13 14:05:00,76.5,10.8,30.12,NW,315,3.1,4.0,8,0.00,,---,0.00,VWS V14.01,2013-03-13 18:05:00,
2013-03-13 14:06:00,76.6,11.0,30.12,West,270,3.6,5.4,8,0.00,,---,0.00,VWS V14.01,2013-03-13 18:06:00,
2013-03-13 14:08:00,75.6,10.2,30.15,West,270,5.8,5.8,8,0.00,,---,0.00,VWS V14.01,2013-03-13 18:08:00,
2013-03-13 14:10:00,76.6,11.0,30.12,West,270,2.5,4.0,8,0.00,,---,0.00,VWS V14.01,2013-03-13 18:10:00,
2013-03-13 14:11:00,76.3,10.7,30.12,South,180,2.5,4.0,8,0.00,,---,0.00,VWS V14.01,2013-03-13 18:11:00,
2013-03-13 14:12:00,75.7,10.3,30.12,North,0,2.9,3.6,8,0.00,,---,0.00,VWS V14.01,2013-03-13 18:12:00,
2013-03-13 14:13:00,74.8,9.6,30.15,West,270,4.0,4.0,8,0.00,,---,0.00,VWS V14.01,2013-03-13 18:13:00,
2013-03-13 14:14:00,76.3,10.7,30.12,West,270,4.0,4.0,8,0.00,,---,0.00,VWS V14.01,2013-03-13 18:14:00,
2013-03-13 14:15:00,76.1,10.6,30.12,North,0,1.3,4.0,8,0.00,,---,0.00,VWS V14.01,2013-03-13 18:15:00,
2013-03-13 14:16:00,76.3,10.7,30.12,SE,135,2.9,3.4,8,0.00,,---,0.00,VWS V14.01,2013-03-13 18:16:00,
2013-03-13 14:17:00,76.1,10.6,30.12,North,0,2.7,9.6,8,0.00,,---,0.00,VWS V14.01,2013-03-13 18:17:00,
2013-03-13 14:18:00,75.6,10.2,30.15,NW,315,3.4,3.4,8,0.00,,---,0.00,VWS V14.01,2013-03-13 18:18:00,
2013-03-13 14:20:00,76.1,10.6,30.12,NW,315,4.9,4.9,8,0.00,,---,0.00,VWS V14.01,2013-03-13 18:20:00,
2013-03-13 14:21:00,76.1,10.6,30.12,West,270,2.9,4.9,8,0.00,,---,0.00,VWS V14.01,2013-03-13 18:21:00,
2013-03-13 14:22:00,76.3,10.7,30.09,West,270,2.0,3.1,8,0.00,,---,0.00,VWS V14.01,2013-03-13 18:22:00,
2013-03-13 14:23:00,76.3,10.7,30.15,West,270,4.0,4.7,8,0.00,,---,0.00,VWS V14.01,2013-03-13 18:23:00,
2013-03-13 14:24:00,75.9,10.4,30.09,NW,315,4.3,4.3,8,0.00,,---,0.00,VWS V14.01,2013-03-13 18:24:00,
2013-03-13 14:25:00,75.9,10.4,30.09,NW,315,3.8,4.3,8,0.00,,---,0.00,VWS V14.01,2013-03-13 18:25:00,
2013-03-13 14:28:00,76.6,11.0,30.15,West,270,2.7,2.9,8,0.00,,---,0.00,VWS V14.01,2013-03-13 18:28:00,
2013-03-13 14:29:00,75.4,10.0,30.09,NW,315,5.6,5.6,8,0.00,,---,0.00,VWS V14.01,2013-03-13 18:29:00,
2013-03-13 14:30:00,75.0,9.8,30.09,South,180,2.5,5.8,8,0.00,,---,0.00,VWS V14.01,2013-03-13 18:30:00,
2013-03-13 14:31:00,75.2,9.9,30.09,SW,225,4.0,4.0,8,0.00,,---,0.00,VWS V14.01,2013-03-13 18:31:00,
2013-03-13 14:33:00,76.3,10.7,30.15,South,180,3.6,3.6,8,0.00,,---,0.00,VWS V14.01,2013-03-13 18:33:00,
2013-03-13 14:34:00,75.4,10.0,30.09,South,180,2.7,4.0,8,0.00,,---,0.00,VWS V14.01,2013-03-13 18:34:00,
2013-03-13 14:35:00,75.7,10.3,30.09,NE,45,2.0,2.7,8,0.00,,---,0.00,VWS V14.01,2013-03-13 18:35:00,
2013-03-13 14:36:00,76.1,10.6,30.09,SSE,158,1.3,2.2,8,0.00,,---,0.00,VWS V14.01,2013-03-13 18:36:00,
2013-03-13 14:37:00,76.5,10.8,30.09,NW,315,1.3,2.5,8,0.00,,---,0.00,VWS V14.01,2013-03-13 18:37:00,
2013-03-13 14:38:00,75.7,10.3,30.12,ESE,112,3.1,5.4,8,0.00,,---,0.00,VWS V14.01,2013-03-13 18:38:00,
2013-03-13 14:39:00,76.8,11.1,30.09,West,270,2.7,4.9,8,0.00,,---,0.00,VWS V14.01,2013-03-13 18:39:00,
2013-03-13 14:40:00,76.6,11.0,30.09,NW,315,3.1,4.7,8,0.00,,---,0.00,VWS V14.01,2013-03-13 18:40:00,
2013-03-13 14:41:00,76.3,10.7,30.09,NW,315,4.0,4.0,8,0.00,,---,0.00,VWS V14.01,2013-03-13 18:41:00,
2013-03-13 14:42:00,76.5,10.8,30.09,West,270,2.9,4.0,8,0.00,,---,0.00,VWS V14.01,2013-03-13 18:42:00,
2013-03-13 14:43:00,75.6,10.2,30.12,SE,135,4.0,4.0,8,0.00,,---,0.00,VWS V14.01,2013-03-13 18:43:00,
2013-03-13 14:45:00,76.3,10.7,30.09,North,0,3.1,4.0,8,0.00,,---,0.00,VWS V14.01,2013-03-13 18:45:00,
2013-03-13 14:46:00,76.3,10.7,30.09,South,180,2.7,3.1,8,0.00,,---,0.00,VWS V14.01,2013-03-13 18:46:00,
2013-03-13 14:47:00,75.9,10.4,30.09,NW,315,2.7,5.6,8,0.00,,---,0.00,VWS V14.01,2013-03-13 18:47:00,
2013-03-13 14:48:00,75.9,10.4,30.12,NW,315,2.5,2.5,8,0.00,,---,0.00,VWS V14.01,2013-03-13 18:48:00,
2013-03-13 14:50:00,75.6,10.2,30.09,West,270,3.6,3.6,8,0.00,,---,0.00,VWS V14.01,2013-03-13 18:50:00,
2013-03-13 14:51:00,75.7,10.3,30.09,NW,315,2.0,4.3,8,0.00,,---,0.00,VWS V14.01,2013-03-13 18:51:00,
2013-03-13 14:52:00,75.2,9.9,30.09,NW,315,3.8,7.4,8,0.00,,---,0.00,VWS V14.01,2013-03-13 18:52:00,
2013-03-13 14:53:00,75.4,10.0,30.09,NW,315,4.0,6.3,8,0.00,,---,0.00,VWS V14.01,2013-03-13 18:53:00,
2013-03-13 14:54:00,76.1,10.6,30.12,North,0,2.7,2.9,8,0.00,,---,0.00,VWS V14.01,2013-03-13 18:54:00,
2013-03-13 14:57:00,75.2,9.9,30.09,NW,315,2.5,3.1,8,0.00,,---,0.00,VWS V14.01,2013-03-13 18:57:00,
2013-03-13 14:58:00,75.2,9.9,30.09,NW,315,3.4,3.4,8,0.00,,---,0.00,VWS V14.01,2013-03-13 18:58:00,
2013-03-13 14:59:00,76.3,10.7,30.12,South,180,1.3,2.7,8,0.00,,---,0.00,VWS V14.01,2013-03-13 18:59:00,
2013-03-13 15:00:00,75.2,9.9,30.09,North,0,2.2,9.8,8,0.00,,---,0.00,VWS V14.01,2013-03-13 19:00:00,
2013-03-13 15:01:00,75.2,9.9,30.09,East,90,7.8,7.8,8,0.00,,---,0.00,VWS V14.01,2013-03-13 19:01:00,
2013-03-13 15:04:00,76.8,11.1,30.12,NW,315,3.4,3.4,8,0.00,,---,0.00,VWS V14.01,2013-03-13 19:04:00,
2013-03-13 15:05:00,75.7,10.3,30.09,SW,225,1.6,2.9,8,0.00,,---,0.00,VWS V14.01,2013-03-13 19:05:00,
2013-03-13 15:06:00,75.9,10.4,30.09,South,180,3.1,3.1,8,0.00,,---,0.00,VWS V14.01,2013-03-13 19:06:00,
2013-03-13 15:09:00,76.6,11.0,30.12,North,0,4.0,4.0,8,0.00,,---,0.00,VWS V14.01,2013-03-13 19:09:00,
2013-03-13 15:10:00,76.1,10.6,30.09,West,270,3.4,3.4,8,0.00,,---,0.00,VWS V14.01,2013-03-13 19:10:00,
2013-03-13 15:11:00,76.1,10.6,30.09,NE,45,3.4,3.4,8,0.00,,---,0.00,VWS V14.01,2013-03-13 19:11:00,
2013-03-13 15:12:00,76.5,10.8,30.09,SSE,158,2.7,3.6,8,0.00,,---,0.00,VWS V14.01,2013-03-13 19:12:00,
2013-03-13 15:13:00,75.7,10.3,30.09,North,0,3.1,4.3,8,0.00,,---,0.00,VWS V14.01,2013-03-13 19:13:00,
2013-03-13 15:14:00,76.3,10.7,30.12,East,90,4.0,4.0,8,0.00,,---,0.00,VWS V14.01,2013-03-13 19:14:00,
2013-03-13 15:15:00,75.6,10.2,30.09,West,270,1.6,6.5,8,0.00,,---,0.00,VWS V14.01,2013-03-13 19:15:00,
2013-03-13 15:16:00,75.4,10.0,30.09,NW,315,6.5,6.5,8,0.00,,---,0.00,VWS V14.01,2013-03-13 19:16:00,
2013-03-13 15:17:00,75.4,10.0,30.09,SW,225,4.9,6.5,8,0.00,,---,0.00,VWS V14.01,2013-03-13 19:17:00,
2013-03-13 15:18:00,75.2,9.9,30.09,North,0,2.7,4.9,8,0.00,,---,0.00,VWS V14.01,2013-03-13 19:18:00,
2013-03-13 15:19:00,76.1,10.6,30.12,North,0,2.7,2.7,8,0.00,,---,0.00,VWS V14.01,2013-03-13 19:19:00,
2013-03-13 15:22:00,74.5,9.4,30.06,East,90,2.9,3.1,8,0.00,,---,0.00,VWS V14.01,2013-03-13 19:22:00,
2013-03-13 15:23:00,74.7,9.5,30.06,SW,225,2.2,2.9,8,0.00,,---,0.00,VWS V14.01,2013-03-13 19:23:00,
2013-03-13 15:24:00,75.9,10.4,30.09,NW,315,4.3,4.3,8,0.00,,---,0.00,VWS V14.01,2013-03-13 19:24:00,
2013-03-13 15:25:00,74.7,9.5,30.06,South,180,2.7,4.9,8,0.00,,---,0.00,VWS V14.01,2013-03-13 19:25:00,
2013-03-13 15:26:00,74.7,9.5,30.06,SW,225,3.1,4.7,8,0.00,,---,0.00,VWS V14.01,2013-03-13 19:26:00,
2013-03-13 15:27:00,74.3,9.2,30.06,SW,225,0.9,3.1,8,0.00,,---,0.00,VWS V14.01,2013-03-13 19:27:00,
2013-03-13 15:28:00,74.5,9.4,30.06,NW,315,1.6,2.5,8,0.00,,---,0.00,VWS V14.01,2013-03-13 19:28:00,
2013-03-13 15:29:00,75.4,10.0,30.09,NW,315,5.6,5.6,8,0.00,,---,0.00,VWS V14.01,2013-03-13 19:29:00,
2013-03-13 15:30:00,74.8,9.6,30.06,West,270,1.6,2.5,8,0.00,,---,0.00,VWS V14.01,2013-03-13 19:30:00,
2013-03-13 15:33:00,74.8,9.6,30.06,SW,225,3.1,7.4,8,0.00,,---,0.00,VWS V14.01,2013-03-13 19:33:00,
2013-03-13 15:34:00,75.4,10.0,30.09,East,90,1.6,4.0,8,0.00,,---,0.00,VWS V14.01,2013-03-13 19:34:00,
2013-03-13 15:35:00,74.7,9.5,30.06,West,270,2.9,2.9,8,0.00,,---,0.00,VWS V14.01,2013-03-13 19:35:00,
2013-03-13 15:36:00,74.8,9.6,30.06,South,180,3.4,4.3,8,0.00,,---,0.00,VWS V14.01,2013-03-13 19:36:00,
2013-03-13 15:37:00,74.7,9.5,30.09,North,0,5.6,5.6,8,0.00,,---,0.00,VWS V14.01,2013-03-13 19:37:00,
2013-03-13 15:38:00,74.1,9.1,30.09,West,270,1.6,5.6,8,0.00,,---,0.00,VWS V14.01,2013-03-13 19:38:00,
2013-03-13 15:39:00,76.6,11.0,30.09,South,180,2.5,4.7,8,0.00,,---,0.00,VWS V14.01,2013-03-13 19:39:00,
2013-03-13 15:41:00,74.5,9.4,30.09,SW,225,1.3,2.5,8,0.00,,---,0.00,VWS V14.01,2013-03-13 19:41:00,
2013-03-13 15:42:00,74.7,9.5,30.09,NE,45,3.4,3.4,8,0.00,,---,0.00,VWS V14.01,2013-03-13 19:42:00,
2013-03-13 15:43:00,74.7,9.5,30.09,West,270,2.5,3.4,8,0.00,,---,0.00,VWS V14.01,2013-03-13 19:43:00,
2013-03-13 15:44:00,74.7,9.5,30.09,South,180,3.8,3.8,8,0.00,,---,0.00,VWS V14.01,2013-03-13 19:44:00,
2013-03-13 15:45:00,76.5,10.8,30.09,West,270,2.9,4.0,8,0.00,,---,0.00,VWS V14.01,2013-03-13 19:45:00,
2013-03-13 15:46:00,74.3,9.2,30.09,South,180,2.0,3.8,8,0.00,,---,0.00,VWS V14.01,2013-03-13 19:46:00,
2013-03-13 15:47:00,74.3,9.2,30.09,North,0,2.7,5.6,8,0.00,,---,0.00,VWS V14.01,2013-03-13 19:47:00,
2013-03-13 15:48:00,74.3,9.2,30.09,NW,315,4.0,4.0,8,0.00,,---,0.00,VWS V14.01,2013-03-13 19:48:00,
2013-03-13 15:49:00,73.8,8.8,30.09,West,270,1.3,4.3,8,0.00,,---,0.00,VWS V14.01,2013-03-13 19:49:00,
2013-03-13 15:50:00,75.9,10.4,30.09,NW,315,2.7,5.6,8,0.00,,---,0.00,VWS V14.01,2013-03-13 19:50:00,
2013-03-13 15:51:00,73.8,8.8,30.09,West,270,2.7,4.3,8,0.00,,---,0.00,VWS V14.01,2013-03-13 19:51:00,
2013-03-13 15:52:00,73.6,8.7,30.09,NW,315,2.9,3.4,8,0.00,,---,0.00,VWS V14.01,2013-03-13 19:52:00,
2013-03-13 15:53:00,73.2,11.1,30.09,West,270,3.4,3.4,9,0.00,,---,0.00,VWS V14.01,2013-03-13 19:53:00,
2013-03-13 15:54:00,73.2,11.1,30.09,NW,315,2.5,3.4,9,0.00,,---,0.00,VWS V14.01,2013-03-13 19:54:00,
2013-03-13 15:55:00,75.2,9.9,30.09,NW,315,3.1,4.0,8,0.00,,---,0.00,VWS V14.01,2013-03-13 19:55:00,
2013-03-13 15:58:00,72.9,10.8,30.09,SSW,202,3.8,3.8,9,0.00,,---,0.00,VWS V14.01,2013-03-13 19:58:00,
2013-03-13 15:59:00,72.5,10.5,30.09,NW,315,2.5,3.8,9,0.00,,---,0.00,VWS V14.01,2013-03-13 19:59:00,
2013-03-13 16:00:00,75.4,10.0,30.09,NW,315,7.4,9.8,8,0.00,,---,0.00,VWS V14.01,2013-03-13 20:00:00,
2013-03-13 16:01:00,72.7,10.6,30.09,NW,315,3.4,4.7,9,0.00,,---,0.00,VWS V14.01,2013-03-13 20:01:00,
2013-03-13 16:02:00,72.5,10.5,30.09,South,180,2.7,3.4,9,0.00,,---,0.00,VWS V14.01,2013-03-13 20:02:00,
2013-03-13 16:03:00,72.5,10.5,30.09,NW,315,3.1,3.1,9,0.00,,---,0.00,VWS V14.01,2013-03-13 20:03:00,
2013-03-13 16:05:00,75.4,10.0,30.09,West,270,2.9,2.9,8,0.00,,---,0.00,VWS V14.01,2013-03-13 20:05:00,
2013-03-13 16:06:00,71.8,10.0,30.09,North,0,2.9,3.6,9,0.00,,---,0.00,VWS V14.01,2013-03-13 20:06:00,
2013-03-13 16:07:00,72.0,10.1,30.06,West,270,3.4,4.3,9,0.00,,---,0.00,VWS V14.01,2013-03-13 20:07:00,
2013-03-13 16:08:00,71.8,10.0,30.06,West,270,2.7,3.6,9,0.00,,---,0.00,VWS V14.01,2013-03-13 20:08:00,
2013-03-13 16:09:00,71.4,9.7,30.06,NW,315,2.2,4.3,9,0.00,,---,0.00,VWS V14.01,2013-03-13 20:09:00,
2013-03-13 16:10:00,76.1,10.6,30.09,NW,315,2.5,5.4,8,0.00,,---,0.00,VWS V14.01,2013-03-13 20:10:00,
2013-03-13 16:11:00,71.2,9.6,30.06,SW,225,1.1,3.1,9,0.00,,---,0.00,VWS V14.01,2013-03-13 20:11:00,
2013-03-13 16:12:00,71.1,9.4,30.06,West,270,2.0,2.7,9,0.00,,---,0.00,VWS V14.01,2013-03-13 20:12:00,
2013-03-13 16:13:00,70.9,9.3,30.06,North,0,2.7,3.8,9,0.00,,---,0.00,VWS V14.01,2013-03-13 20:13:00,
2013-03-13 16:14:00,70.9,9.3,30.06,North,0,3.1,3.1,9,0.00,,---,0.00,VWS V14.01,2013-03-13 20:14:00,
2013-03-13 16:15:00,75.6,10.2,30.09,West,270,1.6,6.5,8,0.00,,---,0.00,VWS V14.01,2013-03-13 20:15:00,
2013-03-13 16:18:00,69.6,10.7,30.06,NW,315,1.6,4.0,10,0.00,,---,0.00,VWS V14.01,2013-03-13 20:18:00,
2013-03-13 16:19:00,69.6,10.7,30.06,NW,315,1.6,1.6,10,0.00,,---,0.00,VWS V14.01,2013-03-13 20:19:00,
2013-03-13 16:20:00,74.8,9.6,30.09,NW,315,3.1,3.8,8,0.00,,---,0.00,VWS V14.01,2013-03-13 20:20:00,
2013-03-13 16:21:00,69.4,10.5,30.06,East,90,1.3,1.6,10,0.00,,---,0.00,VWS V14.01,2013-03-13 20:21:00,
2013-03-13 16:22:00,69.4,10.5,30.09,West,270,3.8,3.8,10,0.00,,---,0.00,VWS V14.01,2013-03-13 20:22:00,
2013-03-13 16:23:00,68.9,10.1,30.09,NW,315,2.2,3.8,10,0.00,,---,0.00,VWS V14.01,2013-03-13 20:23:00,
2013-03-13 16:24:00,68.7,10.0,30.09,NW,315,2.9,2.9,10,0.00,,---,0.00,VWS V14.01,2013-03-13 20:24:00,
2013-03-13 16:25:00,74.7,9.5,30.06,South,180,2.7,4.9,8,0.00,,---,0.00,VWS V14.01,2013-03-13 20:25:00,
2013-03-13 16:28:00,68.0,9.4,30.09,SW,225,2.2,3.1,10,0.00,,---,0.00,VWS V14.01,2013-03-13 20:28:00,
2013-03-13 16:29:00,67.8,9.3,30.09,West,270,1.6,3.1,10,0.00,,---,0.00,VWS V14.01,2013-03-13 20:29:00,
2013-03-13 16:30:00,74.8,9.6,30.06,West,270,1.6,2.5,8,0.00,,---,0.00,VWS V14.01,2013-03-13 20:30:00,
2013-03-13 16:31:00,67.8,9.3,30.09,SW,225,2.9,3.6,10,0.00,,---,0.00,VWS V14.01,2013-03-13 20:31:00,
2013-03-13 16:32:00,67.6,9.1,30.09,East,90,4.3,4.3,10,0.00,,---,0.00,VWS V14.01,2013-03-13 20:32:00,
2013-03-13 16:33:00,67.5,9.0,30.09,NW,315,3.6,5.4,10,0.00,,---,0.00,VWS V14.01,2013-03-13 20:33:00,
2013-03-13 16:34:00,67.1,8.7,30.09,North,0,2.5,3.6,10,0.00,,---,0.00,VWS V14.01,2013-03-13 20:34:00,
2013-03-13 16:35:00,74.7,9.5,30.06,West,270,2.2,4.3,8,0.00,,---,0.00,VWS V14.01,2013-03-13 20:35:00,
2013-03-13 16:36:00,67.1,8.7,30.09,West,270,3.1,3.1,10,0.00,,---,0.00,VWS V14.01,2013-03-13 20:36:00,
2013-03-13 16:37:00,67.1,8.7,30.09,West,270,2.0,3.1,10,0.00,,---,0.00,VWS V14.01,2013-03-13 20:37:00,
2013-03-13 16:40:00,74.1,9.1,30.09,SE,135,2.2,2.2,8,0.00,,---,0.00,VWS V14.01,2013-03-13 20:40:00,
2013-03-13 16:41:00,66.6,8.3,30.09,West,270,1.6,2.9,10,0.00,,---,0.00,VWS V14.01,2013-03-13 20:41:00,
2013-03-13 16:42:00,66.6,8.3,30.09,NW,315,2.2,2.9,10,0.00,,---,0.00,VWS V14.01,2013-03-13 20:42:00,
2013-03-13 16:43:00,66.4,8.2,30.09,South,180,3.1,3.1,10,0.00,,---,0.00,VWS V14.01,2013-03-13 20:43:00,
2013-03-13 16:44:00,66.2,8.1,30.09,NW,315,2.7,3.6,10,0.00,,---,0.00,VWS V14.01,2013-03-13 20:44:00,
2013-03-13 16:45:00,74.3,9.2,30.09,NW,315,3.4,3.4,8,0.00,,---,0.00,VWS V14.01,2013-03-13 20:45:00,
2013-03-13 16:46:00,66.2,8.1,30.09,NW,315,2.9,3.8,10,0.00,,---,0.00,VWS V14.01,2013-03-13 20:46:00,
2013-03-13 16:47:00,66.0,7.9,30.09,West,270,2.7,4.0,10,0.00,,---,0.00,VWS V14.01,2013-03-13 20:47:00,
2013-03-13 16:48:00,66.0,7.9,30.09,West,270,3.1,3.1,10,0.00,,---,0.00,VWS V14.01,2013-03-13 20:48:00,
2013-03-13 16:49:00,65.8,7.8,30.09,NW,315,3.1,3.6,10,0.00,,---,0.00,VWS V14.01,2013-03-13 20:49:00,
2013-03-13 16:50:00,65.7,7.6,30.09,SW,225,2.7,3.1,10,0.00,,---,0.00,VWS V14.01,2013-03-13 20:50:00,
2013-03-13 16:51:00,73.6,8.7,30.09,West,270,2.9,4.3,8,0.00,,---,0.00,VWS V14.01,2013-03-13 20:51:00,
2013-03-13 16:52:00,65.5,7.5,30.06,SSW,202,2.0,2.9,10,0.00,,---,0.00,VWS V14.01,2013-03-13 20:52:00,
2013-03-13 16:55:00,65.3,7.4,30.06,NW,315,2.7,2.7,10,0.00,,---,0.00,VWS V14.01,2013-03-13 20:55:00,
2013-03-13 16:56:00,72.9,10.8,30.09,SE,135,3.6,3.6,9,0.00,,---,0.00,VWS V14.01,2013-03-13 20:56:00,
2013-03-13 16:59:00,64.8,6.9,30.06,South,180,2.0,4.3,10,0.00,,---,0.00,VWS V14.01,2013-03-13 20:59:00,
2013-03-13 17:00:00,64.6,6.8,30.06,West,270,2.9,2.9,10,0.00,,---,0.00,VWS V14.01,2013-03-13 21:00:00,
2013-03-13 17:01:00,72.7,10.6,30.09,East,90,4.7,4.7,9,0.00,,---,0.00,VWS V14.01,2013-03-13 21:01:00,
2013-03-13 17:02:00,64.4,6.7,30.06,West,270,2.7,3.4,10,0.00,,---,0.00,VWS V14.01,2013-03-13 21:02:00,
2013-03-13 17:05:00,64.0,8.5,30.06,North,0,3.4,5.6,11,0.00,,---,0.00,VWS V14.01,2013-03-13 21:05:00,
2013-03-13 17:06:00,72.5,10.5,30.09,NW,315,3.1,3.1,9,0.00,,---,0.00,VWS V14.01,2013-03-13 21:06:00,
2013-03-13 17:09:00,63.5,8.1,30.06,North,0,2.7,3.1,11,0.00,,---,0.00,VWS V14.01,2013-03-13 21:09:00,
2013-03-13 17:10:00,63.5,8.1,30.09,West,270,1.3,2.7,11,0.00,,---,0.00,VWS V14.01,2013-03-13 21:10:00,
2013-03-13 17:11:00,71.2,9.6,30.06,SW,225,1.1,3.1,9,0.00,,---,0.00,VWS V14.01,2013-03-13 21:11:00,
2013-03-13 17:12:00,63.3,7.9,30.09,West,270,2.9,4.7,11,0.00,,---,0.00,VWS V14.01,2013-03-13 21:12:00,
2013-03-13 17:13:00,63.1,7.8,30.09,South,180,1.6,2.9,11,0.00,,---,0.00,VWS V14.01,2013-03-13 21:13:00,
2013-03-13 17:14:00,63.1,7.8,30.09,SW,225,2.5,3.6,11,0.00,,---,0.00,VWS V14.01,2013-03-13 21:14:00,
2013-03-13 17:16:00,70.5,9.0,30.06,North,0,4.0,4.0,9,0.00,,---,0.00,VWS V14.01,2013-03-13 21:16:00,
2013-03-13 17:17:00,63.1,7.8,30.09,SW,225,1.1,2.5,11,0.00,,---,0.00,VWS V14.01,2013-03-13 21:17:00,
2013-03-13 17:20:00,63.0,7.7,30.09,NW,315,3.4,3.4,11,0.00,,---,0.00,VWS V14.01,2013-03-13 21:20:00,
2013-03-13 17:21:00,69.4,10.5,30.06,East,90,1.3,1.6,10,0.00,,---,0.00,VWS V14.01,2013-03-13 21:21:00,
2013-03-13 17:22:00,62.6,7.4,30.09,SE,135,2.0,2.5,11,0.00,,---,0.00,VWS V14.01,2013-03-13 21:22:00,
2013-03-13 17:23:00,62.6,7.4,30.09,West,270,2.9,6.0,11,0.00,,---,0.00,VWS V14.01,2013-03-13 21:23:00,
2013-03-13 17:26:00,68.7,10.0,30.09,NW,315,3.1,3.6,10,0.00,,---,0.00,VWS V14.01,2013-03-13 21:26:00,
2013-03-13 17:27:00,62.6,7.4,30.09,NW,315,2.0,3.8,11,0.00,,---,0.00,VWS V14.01,2013-03-13 21:27:00,
2013-03-13 17:28:00,62.2,7.1,30.09,NW,315,1.6,2.5,11,0.00,,---,0.00,VWS V14.01,2013-03-13 21:28:00,
2013-03-13 17:31:00,67.8,9.3,30.09,SW,225,2.9,3.6,10,0.00,,---,0.00,VWS V14.01,2013-03-13 21:31:00,
2013-03-13 17:32:00,61.9,6.8,30.09,West,270,2.7,3.1,11,0.00,,---,0.00,VWS V14.01,2013-03-13 21:32:00,
2013-03-13 17:36:00,67.1,8.7,30.09,West,270,2.0,3.1,10,0.00,,---,0.00,VWS V14.01,2013-03-13 21:36:00,
2013-03-13 17:39:00,61.9,6.8,30.09,West,270,0.9,1.3,11,0.00,,---,0.00,VWS V14.01,2013-03-13 21:39:00,
2013-03-13 17:40:00,61.3,6.4,30.09,North,0,4.9,4.9,11,0.00,,---,0.00,VWS V14.01,2013-03-13 21:40:00,
2013-03-13 17:41:00,61.3,6.4,30.09,SE,135,2.7,4.9,11,0.00,,---,0.00,VWS V14.01,2013-03-13 21:41:00,
2013-03-13 17:42:00,66.6,8.3,30.09,North,0,2.0,2.7,10,0.00,,---,0.00,VWS V14.01,2013-03-13 21:42:00,
2013-03-13 17:43:00,61.2,6.3,30.09,NW,315,2.2,4.9,11,0.00,,---,0.00,VWS V14.01,2013-03-13 21:43:00,
2013-03-13 17:44:00,61.2,6.3,30.09,West,270,0.0,2.2,11,0.00,,---,0.00,VWS V14.01,2013-03-13 21:44:00,
2013-03-13 17:45:00,61.0,6.1,30.09,South,180,1.3,1.3,11,0.00,,---,0.00,VWS V14.01,2013-03-13 21:45:00,
2013-03-13 17:46:00,61.0,6.1,30.09,NW,315,1.3,2.7,11,0.00,,---,0.00,VWS V14.01,2013-03-13 21:46:00,
2013-03-13 17:47:00,66.0,7.9,30.09,West,270,2.7,4.0,10,0.00,,---,0.00,VWS V14.01,2013-03-13 21:47:00,
2013-03-13 17:48:00,60.8,6.0,30.09,West,270,1.3,3.4,11,0.00,,---,0.00,VWS V14.01,2013-03-13 21:48:00,
2013-03-13 17:49:00,60.6,7.8,30.09,West,270,1.6,2.9,12,0.00,,---,0.00,VWS V14.01,2013-03-13 21:49:00,
2013-03-13 17:50:00,60.6,7.8,30.09,NW,315,1.3,3.1,12,0.00,,---,0.00,VWS V14.01,2013-03-13 21:50:00,
2013-03-13 17:52:00,65.5,7.5,30.06,SSW,202,2.0,2.9,10,0.00,,---,0.00,VWS V14.01,2013-03-13 21:52:00,
2013-03-13 17:54:00,60.4,7.6,30.09,South,180,2.5,2.5,12,0.00,,---,0.00,VWS V14.01,2013-03-13 21:54:00,
2013-03-13 17:55:00,60.4,7.6,30.09,West,270,1.3,2.5,12,0.00,,---,0.00,VWS V14.01,2013-03-13 21:55:00,
2013-03-13 17:56:00,60.3,7.5,30.09,NW,315,3.4,3.4,12,0.00,,---,0.00,VWS V14.01,2013-03-13 21:56:00,
2013-03-13 17:57:00,65.3,7.4,30.06,NW,315,2.7,2.7,10,0.00,,---,0.00,VWS V14.01,2013-03-13 21:57:00,
2013-03-13 17:58:00,60.1,7.3,30.09,NW,315,1.6,1.6,12,0.00,,---,0.00,VWS V14.01,2013-03-13 21:58:00,
2013-03-13 17:59:00,59.9,7.2,30.09,SE,135,0.9,2.9,12,0.00,,---,0.00,VWS V14.01,2013-03-13 21:59:00,
2013-03-13 18:02:00,64.4,6.7,30.06,West,270,2.7,3.4,10,0.00,,---,0.00,VWS V14.01,2013-03-13 22:02:00,
2013-03-13 18:03:00,59.4,6.8,30.09,NE,45,1.3,2.0,12,0.00,,---,0.00,VWS V14.01,2013-03-13 22:03:00,
2013-03-13 18:04:00,59.4,6.8,30.09,West,270,0.0,1.3,12,0.00,,---,0.00,VWS V14.01,2013-03-13 22:04:00,
2013-03-13 18:05:00,59.2,6.6,30.09,North,0,1.1,1.3,12,0.00,,---,0.00,VWS V14.01,2013-03-13 22:05:00,
2013-03-13 18:06:00,59.0,6.5,30.09,NW,315,1.6,1.6,12,0.00,,---,0.00,VWS V14.01,2013-03-13 22:06:00,
2013-03-13 18:07:00,63.9,8.4,30.06,NW,315,2.9,3.1,11,0.00,,---,0.00,VWS V14.01,2013-03-13 22:07:00,
2013-03-13 18:08:00,59.0,6.5,30.09,West,270,0.0,4.0,12,0.00,,---,0.00,VWS V14.01,2013-03-13 22:08:00,
2013-03-13 18:09:00,58.8,6.3,30.09,North,0,3.6,4.9,12,0.00,,---,0.00,VWS V14.01,2013-03-13 22:09:00,
2013-03-13 18:10:00,58.8,6.3,30.09,West,270,2.0,3.6,12,0.00,,---,0.00,VWS V14.01,2013-03-13 22:10:00,
2013-03-13 18:11:00,58.8,6.3,30.09,NW,315,3.6,3.6,12,0.00,,---,0.00,VWS V14.01,2013-03-13 22:11:00,
2013-03-13 18:12:00,63.3,7.9,30.09,West,270,2.9,4.7,11,0.00,,---,0.00,VWS V14.01,2013-03-13 22:12:00,
2013-03-13 18:14:00,58.8,6.3,30.09,NE,45,1.3,3.6,12,0.00,,---,0.00,VWS V14.01,2013-03-13 22:14:00,
2013-03-13 18:15:00,58.6,6.2,30.09,SW,225,1.1,2.2,12,0.00,,---,0.00,VWS V14.01,2013-03-13 22:15:00,
2013-03-13 18:16:00,58.6,6.2,30.09,West,270,2.0,2.7,12,0.00,,---,0.00,VWS V14.01,2013-03-13 22:16:00,
2013-03-13 18:17:00,63.1,7.8,30.09,SW,225,1.1,2.5,11,0.00,,---,0.00,VWS V14.01,2013-03-13 22:17:00,
2013-03-13 18:18:00,58.5,6.1,30.09,NW,315,0.9,1.6,12,0.00,,---,0.00,VWS V14.01,2013-03-13 22:18:00,
2013-03-13 18:22:00,57.9,5.6,30.09,South,180,0.0,2.0,12,0.00,,---,0.00,VWS V14.01,2013-03-13 22:22:00,
2013-03-13 18:23:00,62.6,7.4,30.09,West,270,2.9,6.0,11,0.00,,---,0.00,VWS V14.01,2013-03-13 22:23:00,
2013-03-13 18:24:00,57.6,5.3,30.09,South,180,0.0,0.0,12,0.00,,---,0.00,VWS V14.01,2013-03-13 22:24:00,
2013-03-13 18:25:00,57.4,5.2,30.09,South,180,0.0,0.9,12,0.00,,---,0.00,VWS V14.01,2013-03-13 22:25:00,
2013-03-13 18:28:00,62.2,7.1,30.09,NW,315,1.6,2.5,11,0.00,,---,0.00,VWS V14.01,2013-03-13 22:28:00,
2013-03-13 18:29:00,56.8,4.8,30.09,SW,225,0.0,0.0,12,0.00,,---,0.00,VWS V14.01,2013-03-13 22:29:00,
2013-03-13 18:30:00,56.8,4.8,30.09,SW,225,0.0,0.0,12,0.00,,---,0.00,VWS V14.01,2013-03-13 22:30:00,
2013-03-13 18:31:00,56.7,4.6,30.09,West,270,0.0,0.0,12,0.00,,---,0.00,VWS V14.01,2013-03-13 22:31:00,
2013-03-13 18:32:00,56.7,4.6,30.09,NW,315,0.9,0.9,12,0.00,,---,0.00,VWS V14.01,2013-03-13 22:32:00,
2013-03-13 18:33:00,61.9,6.8,30.09,SW,225,1.3,2.7,11,0.00,,---,0.00,VWS V14.01,2013-03-13 22:33:00,
2013-03-13 18:34:00,56.3,4.4,30.09,West,270,0.0,1.3,12,0.00,,---,0.00,VWS V14.01,2013-03-13 22:34:00,
2013-03-13 18:35:00,56.3,4.4,30.09,West,270,0.0,0.0,12,0.00,,---,0.00,VWS V14.01,2013-03-13 22:35:00,
2013-03-13 18:36:00,55.9,4.1,30.09,West,270,0.0,0.0,12,0.00,,---,0.00,VWS V14.01,2013-03-13 22:36:00,
2013-03-13 18:37:00,55.9,4.1,30.12,West,270,0.0,0.0,12,0.00,,---,0.00,VWS V14.01,2013-03-13 22:37:00,
2013-03-13 18:38:00,61.9,6.8,30.09,SW,225,1.3,2.7,11,0.00,,---,0.00,VWS V14.01,2013-03-13 22:38:00,
2013-03-13 18:39:00,55.8,3.9,30.12,West,270,0.0,0.0,12,0.00,,---,0.00,VWS V14.01,2013-03-13 22:39:00,
2013-03-13 18:40:00,55.6,3.8,30.12,West,270,0.0,0.0,12,0.00,,---,0.00,VWS V14.01,2013-03-13 22:40:00,
2013-03-13 18:41:00,55.6,3.8,30.12,West,270,0.0,0.0,12,0.00,,---,0.00,VWS V14.01,2013-03-13 22:41:00,
2013-03-13 18:42:00,55.2,5.2,30.12,NW,315,0.0,0.0,13,0.00,,---,0.00,VWS V14.01,2013-03-13 22:42:00,
2013-03-13 18:43:00,61.2,6.3,30.09,NW,315,2.2,4.9,11,0.00,,---,0.00,VWS V14.01,2013-03-13 22:43:00,
2013-03-13 18:44:00,55.0,5.1,30.12,NW,315,0.0,0.0,13,0.00,,---,0.00,VWS V14.01,2013-03-13 22:44:00,
2013-03-13 18:47:00,54.7,4.8,30.12,West,270,0.0,0.0,13,0.00,,---,0.00,VWS V14.01,2013-03-13 22:47:00,
2013-03-13 18:48:00,60.8,6.0,30.09,West,270,1.3,3.4,11,0.00,,---,0.00,VWS V14.01,2013-03-13 22:48:00,
2013-03-13 18:49:00,54.5,4.7,30.12,South,180,1.3,1.3,13,0.00,,---,0.00,VWS V14.01,2013-03-13 22:49:00,
2013-03-13 18:50:00,54.3,4.5,30.12,South,180,0.0,1.3,13,0.00,,---,0.00,VWS V14.01,2013-03-13 22:50:00,
2013-03-13 18:51:00,54.3,4.5,30.12,South,180,0.0,0.0,13,0.00,,---,0.00,VWS V14.01,2013-03-13 22:51:00,
2013-03-13 18:53:00,60.6,7.8,30.09,West,270,0.9,1.6,12,0.00,,---,0.00,VWS V14.01,2013-03-13 22:53:00,
2013-03-13 18:54:00,54.3,4.5,30.12,South,180,0.0,0.0,13,0.00,,---,0.00,VWS V14.01,2013-03-13 22:54:00,
2013-03-13 18:55:00,54.3,4.5,30.12,South,180,0.0,0.0,13,0.00,,---,0.00,VWS V14.01,2013-03-13 22:55:00,
2013-03-13 18:56:00,53.6,4.0,30.12,South,180,0.0,0.0,13,0.00,,---,0.00,VWS V14.01,2013-03-13 22:56:00,
2013-03-13 18:57:00,53.4,3.8,30.12,South,180,0.0,1.3,13,0.00,,---,0.00,VWS V14.01,2013-03-13 22:57:00,
2013-03-13 18:58:00,60.1,7.3,30.09,NW,315,1.6,1.6,12,0.00,,---,0.00,VWS V14.01,2013-03-13 22:58:00,
2013-03-13 18:59:00,53.2,3.7,30.12,South,180,0.0,0.0,13,0.00,,---,0.00,VWS V14.01,2013-03-13 22:59:00,
2013-03-13 19:00:00,53.1,3.5,30.12,South,180,0.0,0.0,13,0.00,,---,0.00,VWS V14.01,2013-03-13 23:00:00,
2013-03-13 19:01:00,53.1,3.5,30.12,South,180,0.0,0.0,13,0.00,,---,0.00,VWS V14.01,2013-03-13 23:01:00,
2013-03-13 19:02:00,53.1,3.5,30.12,South,180,0.0,0.0,13,0.00,,---,0.00,VWS V14.01,2013-03-13 23:02:00,
2013-03-13 19:03:00,52.9,3.4,30.12,South,180,0.0,0.0,13,0.00,,---,0.00,VWS V14.01,2013-03-13 23:03:00,
2013-03-13 19:04:00,59.4,6.8,30.09,West,270,1.3,1.3,12,0.00,,---,0.00,VWS V14.01,2013-03-13 23:04:00,
2013-03-13 19:05:00,52.7,3.2,30.12,South,180,0.0,0.0,13,0.00,,---,0.00,VWS V14.01,2013-03-13 23:05:00,
2013-03-13 19:06:00,52.5,3.1,30.12,South,180,0.0,0.0,13,0.00,,---,0.00,VWS V14.01,2013-03-13 23:06:00,
2013-03-13 19:07:00,52.5,3.1,30.12,South,180,0.0,0.0,13,0.00,,---,0.00,VWS V14.01,2013-03-13 23:07:00,
2013-03-13 19:08:00,52.3,3.0,30.12,South,180,0.0,0.0,13,0.00,,---,0.00,VWS V14.01,2013-03-13 23:08:00,
2013-03-13 19:09:00,59.0,6.5,30.09,West,270,2.0,2.0,12,0.00,,---,0.00,VWS V14.01,2013-03-13 23:09:00,
2013-03-13 19:10:00,52.2,-0.8,30.12,South,180,0.0,0.0,11,0.00,,---,0.00,VWS V14.01,2013-03-13 23:10:00,
2013-03-13 19:11:00,52.0,-0.9,30.12,South,180,0.0,0.0,11,0.00,,---,0.00,VWS V14.01,2013-03-13 23:11:00,
2013-03-13 19:12:00,52.0,2.7,30.12,South,180,0.0,0.0,13,0.00,,---,0.00,VWS V14.01,2013-03-13 23:12:00,
2013-03-13 19:13:00,51.8,2.5,30.12,South,180,0.0,0.0,13,0.00,,---,0.00,VWS V14.01,2013-03-13 23:13:00,
2013-03-13 19:14:00,58.8,6.3,30.09,West,270,2.9,3.6,12,0.00,,---,0.00,VWS V14.01,2013-03-13 23:14:00,
2013-03-13 19:15:00,51.6,4.0,30.12,South,180,0.9,0.9,14,0.00,,---,0.00,VWS V14.01,2013-03-13 23:15:00,
2013-03-13 19:18:00,51.6,4.0,30.12,South,180,0.0,0.9,14,0.00,,---,0.00,VWS V14.01,2013-03-13 23:18:00,
2013-03-13 19:19:00,58.3,5.9,30.09,West,270,1.1,2.0,12,0.00,,---,0.00,VWS V14.01,2013-03-13 23:19:00,
2013-03-13 19:20:00,51.3,3.7,30.12,South,180,0.0,0.0,14,0.00,,---,0.00,VWS V14.01,2013-03-13 23:20:00,
2013-03-13 19:21:00,51.3,3.7,30.12,South,180,0.0,0.0,14,0.00,,---,0.00,VWS V14.01,2013-03-13 23:21:00,
2013-03-13 19:22:00,51.3,3.7,30.15,SE,135,0.0,0.0,14,0.00,,---,0.00,VWS V14.01,2013-03-13 23:22:00,
2013-03-13 19:23:00,51.3,3.7,30.15,SW,225,1.6,3.1,14,0.00,,---,0.00,VWS V14.01,2013-03-13 23:23:00,
2013-03-13 19:24:00,57.7,5.5,30.09,SE,135,0.0,0.0,12,0.00,,---,0.00,VWS V14.01,2013-03-13 23:24:00,
2013-03-13 19:26:00,51.3,3.7,30.15,SW,225,1.1,1.6,14,0.00,,---,0.00,VWS V14.01,2013-03-13 23:26:00,
2013-03-13 19:27:00,51.3,3.7,30.15,SW,225,1.1,1.1,14,0.00,,---,0.00,VWS V14.01,2013-03-13 23:27:00,
2013-03-13 19:28:00,51.3,3.7,30.15,SW,225,0.0,1.1,14,0.00,,---,0.00,VWS V14.01,2013-03-13 23:28:00,
2013-03-13 19:29:00,57.4,5.2,30.09,SW,225,0.0,1.1,12,0.00,,---,0.00,VWS V14.01,2013-03-13 23:29:00,
2013-03-13 19:30:00,51.1,3.6,30.15,SW,225,0.0,0.0,14,0.00,,---,0.00,VWS V14.01,2013-03-13 23:30:00,
2013-03-13 19:31:00,51.1,3.6,30.15,SW,225,0.0,0.0,14,0.00,,---,0.00,VWS V14.01,2013-03-13 23:31:00,
2013-03-13 19:32:00,51.1,3.6,30.15,SW,225,0.0,0.0,14,0.00,,---,0.00,VWS V14.01,2013-03-13 23:32:00,
2013-03-13 19:33:00,50.9,3.4,30.15,SW,225,0.0,0.0,14,0.00,,---,0.00,VWS V14.01,2013-03-13 23:33:00,
2013-03-13 19:34:00,56.3,4.4,30.09,West,270,1.3,1.3,12,0.00,,---,0.00,VWS V14.01,2013-03-13 23:34:00,
2013-03-13 19:35:00,50.9,3.4,30.15,SW,225,0.0,0.0,14,0.00,,---,0.00,VWS V14.01,2013-03-13 23:35:00,
2013-03-13 19:36:00,50.9,3.4,30.15,NW,315,0.0,0.0,14,0.00,,---,0.00,VWS V14.01,2013-03-13 23:36:00,
2013-03-13 19:37:00,50.7,3.3,30.15,NW,315,0.0,1.3,14,0.00,,---,0.00,VWS V14.01,2013-03-13 23:37:00,
2013-03-13 19:38:00,50.7,3.3,30.15,NW,315,0.0,0.0,14,0.00,,---,0.00,VWS V14.01,2013-03-13 23:38:00,
2013-03-13 19:39:00,55.8,3.9,30.12,West,270,0.0,0.0,12,0.00,,---,0.00,VWS V14.01,2013-03-13 23:39:00,
2013-03-13 19:41:00,50.7,3.3,30.15,NW,315,0.0,0.9,14,0.00,,---,0.00,VWS V14.01,2013-03-13 23:41:00,
2013-03-13 19:42:00,50.5,3.1,30.15,NW,315,0.0,0.0,14,0.00,,---,0.00,VWS V14.01,2013-03-13 23:42:00,
2013-03-13 19:43:00,50.5,3.1,30.15,NW,315,0.0,0.0,14,0.00,,---,0.00,VWS V14.01,2013-03-13 23:43:00,
2013-03-13 19:44:00,55.0,5.1,30.12,NW,315,0.0,0.0,13,0.00,,---,0.00,VWS V14.01,2013-03-13 23:44:00,
2013-03-13 19:46:00,50.2,2.8,30.15,SW,225,0.0,0.0,14,0.00,,---,0.00,VWS V14.01,2013-03-13 23:46:00,
2013-03-13 19:47:00,50.2,2.8,30.15,SW,225,0.0,0.0,14,0.00,,---,0.00,VWS V14.01,2013-03-13 23:47:00,
2013-03-13 19:48:00,50.2,2.8,30.15,South,180,1.1,1.1,14,0.00,,---,0.00,VWS V14.01,2013-03-13 23:48:00,
2013-03-13 19:49:00,54.5,4.7,30.12,South,180,1.3,1.3,13,0.00,,---,0.00,VWS V14.01,2013-03-13 23:49:00,
2013-03-13 19:50:00,50.0,2.7,30.15,SW,225,0.0,2.0,14,0.00,,---,0.00,VWS V14.01,2013-03-13 23:50:00,
2013-03-13 19:53:00,50.0,2.7,30.15,West,270,3.1,3.1,14,0.00,,---,0.00,VWS V14.01,2013-03-13 23:53:00,
2013-03-13 19:54:00,54.3,4.5,30.12,South,180,0.0,0.0,13,0.00,,---,0.00,VWS V14.01,2013-03-13 23:54:00,
2013-03-13 19:55:00,50.2,2.8,30.12,NW,315,2.7,2.7,14,0.00,,---,0.00,VWS V14.01,2013-03-13 23:55:00,
2013-03-13 19:56:00,50.2,2.8,30.12,South,180,1.6,2.7,14,0.00,,---,0.00,VWS V14.01,2013-03-13 23:56:00,
2013-03-13 19:57:00,50.2,2.8,30.12,SW,225,0.9,1.6,14,0.00,,---,0.00,VWS V14.01,2013-03-13 23:57:00,
2013-03-13 19:58:00,50.2,2.8,30.12,West,270,0.9,1.1,14,0.00,,---,0.00,VWS V14.01,2013-03-13 23:58:00,
2013-03-13 19:59:00,50.4,3.0,30.12,SW,225,1.3,1.6,14,0.00,,---,0.00,VWS V14.01,2013-03-13 23:59:00,
2013-03-13 20:00:00,53.2,3.7,30.12,South,180,0.0,0.0,13,0.00,,---,0.00,VWS V14.01,2013-03-14 00:00:00,
2013-03-13 20:01:00,50.4,3.0,30.12,SW,225,0.9,1.3,14,0.00,,---,0.00,VWS V14.01,2013-03-14 00:01:00,
2013-03-13 20:02:00,50.4,3.0,30.12,West,270,1.6,1.6,14,0.00,,---,0.00,VWS V14.01,2013-03-14 00:02:00,
2013-03-13 20:05:00,52.7,3.2,30.12,South,180,0.0,0.0,13,0.00,,---,0.00,VWS V14.01,2013-03-14 00:05:00,
2013-03-13 20:06:00,50.5,3.1,30.12,NW,315,0.0,1.3,14,0.00,,---,0.00,VWS V14.01,2013-03-14 00:06:00,
2013-03-13 20:07:00,50.4,3.0,30.15,NW,315,0.0,0.0,14,0.00,,---,0.00,VWS V14.01,2013-03-14 00:07:00,
2013-03-13 20:08:00,50.5,3.1,30.15,East,90,2.5,3.1,14,0.00,,---,0.00,VWS V14.01,2013-03-14 00:08:00,
2013-03-13 20:09:00,50.4,3.0,30.15,West,270,1.3,2.5,14,0.00,,---,0.00,VWS V14.01,2013-03-14 00:09:00,
2013-03-13 20:10:00,52.2,-0.8,30.12,South,180,0.0,0.0,11,0.00,,---,0.00,VWS V14.01,2013-03-14 00:10:00,
2013-03-13 20:11:00,50.4,3.0,30.15,West,270,0.0,0.0,14,0.00,,---,0.00,VWS V14.01,2013-03-14 00:11:00,
2013-03-13 20:12:00,50.2,2.8,30.15,West,270,0.0,0.0,14,0.00,,---,0.00,VWS V14.01,2013-03-14 00:12:00,
2013-03-13 20:13:00,50.2,2.8,30.15,West,270,0.0,0.0,14,0.00,,---,0.00,VWS V14.01,2013-03-14 00:13:00,
2013-03-13 20:14:00,50.2,2.8,30.15,West,270,0.0,0.9,14,0.00,,---,0.00,VWS V14.01,2013-03-14 00:14:00,
2013-03-13 20:15:00,51.6,4.0,30.12,South,180,0.9,0.9,14,0.00,,---,0.00,VWS V14.01,2013-03-14 00:15:00,
2013-03-13 20:16:00,50.2,2.8,30.15,West,270,0.0,0.9,14,0.00,,---,0.00,VWS V14.01,2013-03-14 00:16:00,
2013-03-13 20:17:00,50.0,2.7,30.15,West,270,0.0,0.0,14,0.00,,---,0.00,VWS V14.01,2013-03-14 00:17:00,
2013-03-13 20:18:00,50.0,2.7,30.15,West,270,0.0,0.0,14,0.00,,---,0.00,VWS V14.01,2013-03-14 00:18:00,
2013-03-13 20:20:00,51.3,3.7,30.12,South,180,0.0,0.0,14,0.00,,---,0.00,VWS V14.01,2013-03-14 00:20:00,
2013-03-13 20:21:00,50.0,2.7,30.15,West,270,2.0,2.9,14,0.00,,---,0.00,VWS V14.01,2013-03-14 00:21:00,
2013-03-13 20:22:00,50.0,2.7,30.18,SW,225,1.1,2.0,14,0.00,,---,0.00,VWS V14.01,2013-03-14 00:22:00,
2013-03-13 20:23:00,50.0,2.7,30.18,SW,225,0.0,1.1,14,0.00,,---,0.00,VWS V14.01,2013-03-14 00:23:00,
2013-03-13 20:24:00,50.0,2.7,30.18,NW,315,2.7,2.7,14,0.00,,---,0.00,VWS V14.01,2013-03-14 00:24:00,
2013-03-13 20:25:00,51.3,3.7,30.15,SW,225,1.6,3.1,14,0.00,,---,0.00,VWS V14.01,2013-03-14 00:25:00,
2013-03-13 20:26:00,50.2,2.8,30.18,North,0,2.5,3.6,14,0.00,,---,0.00,VWS V14.01,2013-03-14 00:26:00,
2013-03-13 20:27:00,50.2,2.8,30.18,NW,315,0.9,2.5,14,0.00,,---,0.00,VWS V14.01,2013-03-14 00:27:00,
2013-03-13 20:28:00,50.4,3.0,30.18,South,180,0.0,0.9,14,0.00,,---,0.00,VWS V14.01,2013-03-14 00:28:00,
2013-03-13 20:31:00,51.1,3.6,30.15,SW,225,0.0,0.0,14,0.00,,---,0.00,VWS V14.01,2013-03-14 00:31:00,
2013-03-13 20:32:00,50.2,2.8,30.18,NE,45,0.9,1.1,14,0.00,,---,0.00,VWS V14.01,2013-03-14 00:32:00,
2013-03-13 20:33:00,50.2,2.8,30.18,NE,45,0.0,0.9,14,0.00,,---,0.00,VWS V14.01,2013-03-14 00:33:00,
2013-03-13 20:36:00,50.9,3.4,30.15,SW,225,0.0,0.0,14,0.00,,---,0.00,VWS V14.01,2013-03-14 00:36:00,
2013-03-13 20:37:00,50.2,2.8,30.15,SE,135,0.0,0.9,14,0.00,,---,0.00,VWS V14.01,2013-03-14 00:37:00,
2013-03-13 20:41:00,50.7,3.3,30.15,NW,315,0.0,0.0,14,0.00,,---,0.00,VWS V14.01,2013-03-14 00:41:00,
2013-03-13 20:42:00,50.0,2.7,30.15,NE,45,0.0,2.2,14,0.00,,---,0.00,VWS V14.01,2013-03-14 00:42:00,
2013-03-13 20:43:00,50.0,2.7,30.15,South,180,2.5,2.5,14,0.00,,---,0.00,VWS V14.01,2013-03-14 00:43:00,
2013-03-13 20:44:00,50.0,2.7,30.15,NW,315,1.1,3.6,14,0.00,,---,0.00,VWS V14.01,2013-03-14 00:44:00,
2013-03-13 20:46:00,50.5,3.1,30.15,NW,315,0.0,0.0,14,0.00,,---,0.00,VWS V14.01,2013-03-14 00:46:00,
2013-03-13 20:47:00,50.2,2.8,30.15,North,0,4.0,4.0,14,0.00,,---,0.00,VWS V14.01,2013-03-14 00:47:00,
2013-03-13 20:48:00,50.4,3.0,30.15,NW,315,1.3,4.0,14,0.00,,---,0.00,VWS V14.01,2013-03-14 00:48:00,
2013-03-13 20:49:00,50.4,3.0,30.15,NW,315,0.9,1.3,14,0.00,,---,0.00,VWS V14.01,2013-03-14 00:49:00,
2013-03-13 20:50:00,50.4,3.0,30.15,North,0,0.0,0.9,14,0.00,,---,0.00,VWS V14.01,2013-03-14 00:50:00,
2013-03-13 20:52:00,50.0,2.7,30.15,West,270,1.3,1.3,14,0.00,,---,0.00,VWS V14.01,2013-03-14 00:52:00,
2013-03-13 20:54:00,50.2,2.8,30.18,East,90,0.0,0.0,14,0.00,,---,0.00,VWS V14.01,2013-03-14 00:54:00,
2013-03-13 20:55:00,50.0,2.7,30.18,SE,135,0.0,0.0,14,0.00,,---,0.00,VWS V14.01,2013-03-14 00:55:00,
2013-03-13 20:56:00,50.0,2.7,30.18,NE,45,1.3,1.3,14,0.00,,---,0.00,VWS V14.01,2013-03-14 00:56:00,
2013-03-13 20:57:00,50.2,2.8,30.12,SW,225,0.9,1.6,14,0.00,,---,0.00,VWS V14.01,2013-03-14 00:57:00,
2013-03-13 20:59:00,49.6,2.4,30.18,NW,315,2.0,2.0,14,0.00,,---,0.00,VWS V14.01,2013-03-14 00:59:00,
2013-03-13 21:00:00,49.8,2.5,30.18,West,270,1.1,2.0,14,0.00,,---,0.00,VWS V14.01,2013-03-14 01:00:00,
2013-03-13 21:01:00,49.8,2.5,30.18,West,270,2.7,2.7,14,0.00,,---,0.00,VWS V14.01,2013-03-14 01:01:00,
2013-03-13 21:02:00,50.4,3.0,30.12,West,270,1.6,1.6,14,0.00,,---,0.00,VWS V14.01,2013-03-14 01:02:00,
2013-03-13 21:05:00,49.6,2.4,30.18,West,270,0.0,0.0,14,0.00,,---,0.00,VWS V14.01,2013-03-14 01:05:00,
2013-03-13 21:06:00,49.6,2.4,30.18,West,270,3.4,3.8,14,0.00,,---,0.00,VWS V14.01,2013-03-14 01:06:00,
2013-03-13 21:07:00,50.4,3.0,30.15,NW,315,0.0,0.0,14,0.00,,---,0.00,VWS V14.01,2013-03-14 01:07:00,
2013-03-13 21:08:00,49.6,2.4,30.18,West,270,3.4,3.4,14,0.00,,---,0.00,VWS V14.01,2013-03-14 01:08:00,
2013-03-13 21:09:00,49.8,2.5,30.18,North,0,1.3,3.4,14,0.00,,---,0.00,VWS V14.01,2013-03-14 01:09:00,
2013-03-13 21:10:00,49.8,2.5,30.18,South,180,1.6,3.4,14,0.00,,---,0.00,VWS V14.01,2013-03-14 01:10:00,
2013-03-13 21:11:00,49.8,2.5,30.18,West,270,0.0,1.6,14,0.00,,---,0.00,VWS V14.01,2013-03-14 01:11:00,
2013-03-13 21:12:00,50.2,2.8,30.15,West,270,0.0,0.0,14,0.00,,---,0.00,VWS V14.01,2013-03-14 01:12:00,
2013-03-13 21:13:00,49.8,2.5,30.18,SW,225,1.1,1.3,14,0.00,,---,0.00,VWS V14.01,2013-03-14 01:13:00,
2013-03-13 21:14:00,49.6,2.4,30.18,South,180,1.1,1.1,14,0.00,,---,0.00,VWS V14.01,2013-03-14 01:14:00,
2013-03-13 21:15:00,49.8,2.5,30.18,West,270,1.3,4.9,14,0.00,,---,0.00,VWS V14.01,2013-03-14 01:15:00,
2013-03-13 21:16:00,49.8,2.5,30.18,SW,225,0.9,1.6,14,0.00,,---,0.00,VWS V14.01,2013-03-14 01:16:00,
2013-03-13 21:17:00,50.0,2.7,30.15,West,270,0.0,0.0,14,0.00,,---,0.00,VWS V14.01,2013-03-14 01:17:00,
2013-03-13 21:18:00,49.6,2.4,30.18,South,180,1.1,2.2,14,0.00,,---,0.00,VWS V14.01,2013-03-14 01:18:00,
2013-03-13 21:21:00,49.6,2.4,30.18,North,0,0.0,1.3,14,0.00,,---,0.00,VWS V14.01,2013-03-14 01:21:00,
2013-03-13 21:22:00,50.0,2.7,30.18,SW,225,1.1,2.0,14,0.00,,---,0.00,VWS V14.01,2013-03-14 01:22:00,
2013-03-13 21:23:00,49.1,2.0,30.18,South,180,0.0,1.1,14,0.00,,---,0.00,VWS V14.01,2013-03-14 01:23:00,
2013-03-13 21:24:00,49.1,2.0,30.18,SW,225,0.0,2.0,14,0.00,,---,0.00,VWS V14.01,2013-03-14 01:24:00,
2013-03-13 21:27:00,50.2,2.8,30.18,NW,315,0.9,2.5,14,0.00,,---,0.00,VWS V14.01,2013-03-14 01:27:00,
2013-03-13 21:28:00,48.9,1.8,30.18,West,270,0.0,0.0,14,0.00,,---,0.00,VWS V14.01,2013-03-14 01:28:00,
2013-03-13 21:29:00,48.7,1.7,30.18,West,270,0.0,1.3,14,0.00,,---,0.00,VWS V14.01,2013-03-14 01:29:00,
2013-03-13 21:30:00,48.7,1.7,30.18,West,270,0.0,1.1,14,0.00,,---,0.00,VWS V14.01,2013-03-14 01:30:00,
2013-03-13 21:31:00,48.7,1.7,30.18,West,270,0.0,0.9,14,0.00,,---,0.00,VWS V14.01,2013-03-14 01:31:00,
2013-03-13 21:32:00,50.2,2.8,30.18,NE,45,0.9,1.1,14,0.00,,---,0.00,VWS V14.01,2013-03-14 01:32:00,
2013-03-13 21:34:00,48.7,1.7,30.18,SW,225,1.1,1.1,14,0.00,,---,0.00,VWS V14.01,2013-03-14 01:34:00,
2013-03-13 21:35:00,48.7,1.7,30.18,West,270,0.0,1.1,14,0.00,,---,0.00,VWS V14.01,2013-03-14 01:35:00,
2013-03-13 21:36:00,48.7,1.7,30.18,NW,315,1.1,2.5,14,0.00,,---,0.00,VWS V14.01,2013-03-14 01:36:00,
2013-03-13 21:37:00,50.2,2.8,30.15,East,90,0.0,0.0,14,0.00,,---,0.00,VWS V14.01,2013-03-14 01:37:00,
2013-03-13 21:38:00,48.9,1.8,30.18,West,270,2.0,2.5,14,0.00,,---,0.00,VWS V14.01,2013-03-14 01:38:00,
2013-03-13 21:39:00,48.9,1.8,30.18,West,270,0.0,2.0,14,0.00,,---,0.00,VWS V14.01,2013-03-14 01:39:00,
2013-03-13 21:40:00,48.7,1.7,30.18,SW,225,0.0,0.0,14,0.00,,---,0.00,VWS V14.01,2013-03-14 01:40:00,
2013-03-13 21:41:00,48.7,1.7,30.18,SW,225,0.0,0.0,14,0.00,,---,0.00,VWS V14.01,2013-03-14 01:41:00,
2013-03-13 21:42:00,48.7,1.7,30.18,West,270,1.1,1.1,14,0.00,,---,0.00,VWS V14.01,2013-03-14 01:42:00,
2013-03-13 21:43:00,50.0,2.7,30.15,SW,225,0.0,0.0,14,0.00,,---,0.00,VWS V14.01,2013-03-14 01:43:00,
2013-03-13 21:44:00,48.6,1.5,30.18,SW,225,0.0,0.0,14,0.00,,---,0.00,VWS V14.01,2013-03-14 01:44:00,
2013-03-13 21:47:00,48.4,1.4,30.18,East,90,0.0,0.0,14,0.00,,---,0.00,VWS V14.01,2013-03-14 01:47:00,
2013-03-13 21:48:00,50.2,2.8,30.15,North,0,4.0,4.0,14,0.00,,---,0.00,VWS V14.01,2013-03-14 01:48:00,
2013-03-13 21:49:00,48.2,1.2,30.18,West,270,0.0,1.1,14,0.00,,---,0.00,VWS V14.01,2013-03-14 01:49:00,
2013-03-13 21:50:00,48.2,1.2,30.18,South,180,1.1,1.1,14,0.00,,---,0.00,VWS V14.01,2013-03-14 01:50:00,
2013-03-13 21:51:00,48.0,1.1,30.18,South,180,0.0,1.1,14,0.00,,---,0.00,VWS V14.01,2013-03-14 01:51:00,
2013-03-13 21:52:00,48.0,1.1,30.21,SW,225,0.0,2.2,14,0.00,,---,0.00,VWS V14.01,2013-03-14 01:52:00,
2013-03-13 21:53:00,50.2,2.8,30.15,NW,315,0.0,0.0,14,0.00,,---,0.00,VWS V14.01,2013-03-14 01:53:00,
2013-03-13 21:54:00,47.8,1.0,30.21,West,270,1.3,2.2,14,0.00,,---,0.00,VWS V14.01,2013-03-14 01:54:00,
2013-03-13 21:55:00,48.0,1.1,30.21,SW,225,0.0,1.3,14,0.00,,---,0.00,VWS V14.01,2013-03-14 01:55:00,
2013-03-13 21:56:00,48.0,1.1,30.21,SW,225,0.0,0.0,14,0.00,,---,0.00,VWS V14.01,2013-03-14 01:56:00,
2013-03-13 21:57:00,48.0,1.1,30.21,SW,225,2.0,2.0,14,0.00,,---,0.00,VWS V14.01,2013-03-14 01:57:00,
2013-03-13 21:58:00,49.8,2.5,30.18,NE,45,0.9,1.3,14,0.00,,---,0.00,VWS V14.01,2013-03-14 01:58:00,
2013-03-13 21:59:00,48.0,1.1,30.21,East,90,1.6,1.6,14,0.00,,---,0.00,VWS V14.01,2013-03-14 01:59:00,
2013-03-13 22:02:00,47.8,1.0,30.21,NE,45,1.1,3.6,14,0.00,,---,0.00,VWS V14.01,2013-03-14 02:02:00,
2013-03-13 22:03:00,49.8,2.5,30.18,West,270,0.0,0.0,14,0.00,,---,0.00,VWS V14.01,2013-03-14 02:03:00,
2013-03-13 22:04:00,48.0,1.1,30.21,West,270,0.0,2.0,14,0.00,,---,0.00,VWS V14.01,2013-03-14 02:04:00,
2013-03-13 22:05:00,47.8,1.0,30.21,West,270,0.0,1.1,14,0.00,,---,0.00,VWS V14.01,2013-03-14 02:05:00,
2013-03-13 22:06:00,47.8,1.0,30.21,SW,225,1.3,1.3,14,0.00,,---,0.00,VWS V14.01,2013-03-14 02:06:00,
2013-03-13 22:07:00,47.8,1.0,30.21,West,270,1.1,2.0,14,0.00,,---,0.00,VWS V14.01,2013-03-14 02:07:00,
2013-03-13 22:08:00,49.6,2.4,30.18,West,270,3.4,3.4,14,0.00,,---,0.00,VWS V14.01,2013-03-14 02:08:00,
2013-03-13 22:09:00,48.0,1.1,30.21,West,270,0.0,0.9,14,0.00,,---,0.00,VWS V14.01,2013-03-14 02:09:00,
2013-03-13 22:10:00,47.8,1.0,30.21,SW,225,0.0,0.0,14,0.00,,---,0.00,VWS V14.01,2013-03-14 02:10:00,
2013-03-13 22:11:00,47.8,1.0,30.21,SW,225,0.0,0.0,14,0.00,,---,0.00,VWS V14.01,2013-03-14 02:11:00,
2013-03-13 22:12:00,47.8,1.0,30.21,West,270,2.9,2.9,14,0.00,,---,0.00,VWS V14.01,2013-03-14 02:12:00,
2013-03-13 22:13:00,47.8,1.0,30.21,SW,225,0.9,2.9,14,0.00,,---,0.00,VWS V14.01,2013-03-14 02:13:00,
2013-03-13 22:14:00,49.6,2.4,30.18,SW,225,0.0,1.1,14,0.00,,---,0.00,VWS V14.01,2013-03-14 02:14:00,
2013-03-13 22:15:00,47.7,0.8,30.21,South,180,1.3,1.3,14,0.00,,---,0.00,VWS V14.01,2013-03-14 02:15:00,
2013-03-13 22:16:00,47.7,0.8,30.21,South,180,0.0,1.3,14,0.00,,---,0.00,VWS V14.01,2013-03-14 02:16:00,
2013-03-13 22:17:00,47.7,0.8,30.21,SW,225,0.0,0.0,14,0.00,,---,0.00,VWS V14.01,2013-03-14 02:17:00,
2013-03-13 22:19:00,49.6,2.4,30.18,South,180,0.9,1.3,14,0.00,,---,0.00,VWS V14.01,2013-03-14 02:19:00,
2013-03-13 22:20:00,47.5,0.7,30.21,South,180,1.1,1.1,14,0.00,,---,0.00,VWS V14.01,2013-03-14 02:20:00,
2013-03-13 22:21:00,47.5,0.7,30.21,South,180,0.0,1.1,14,0.00,,---,0.00,VWS V14.01,2013-03-14 02:21:00,
2013-03-13 22:22:00,47.5,0.7,30.21,SW,225,1.1,1.3,14,0.00,,---,0.00,VWS V14.01,2013-03-14 02:22:00,
2013-03-13 22:23:00,47.5,0.7,30.21,SW,225,0.0,1.1,14,0.00,,---,0.00,VWS V14.01,2013-03-14 02:23:00,
2013-03-13 22:24:00,49.1,2.0,30.18,SW,225,0.0,2.0,14,0.00,,---,0.00,VWS V14.01,2013-03-14 02:24:00,
2013-03-13 22:25:00,47.3,0.5,30.21,West,270,0.0,0.0,14,0.00,,---,0.00,VWS V14.01,2013-03-14 02:25:00,
2013-03-13 22:26:00,47.3,0.5,30.21,SSW,202,0.0,0.9,14,0.00,,---,0.00,VWS V14.01,2013-03-14 02:26:00,
2013-03-13 22:27:00,47.3,0.5,30.21,SSW,202,0.0,0.0,14,0.00,,---,0.00,VWS V14.01,2013-03-14 02:27:00,
2013-03-13 22:28:00,47.1,0.4,30.21,SSW,202,0.0,0.0,14,0.00,,---,0.00,VWS V14.01,2013-03-14 02:28:00,
2013-03-13 22:29:00,48.7,1.7,30.18,West,270,0.0,1.3,14,0.00,,---,0.00,VWS V14.01,2013-03-14 02:29:00,
2013-03-13 22:30:00,47.1,0.4,30.21,SW,225,0.0,1.3,14,0.00,,---,0.00,VWS V14.01,2013-03-14 02:30:00,
2013-03-13 22:31:00,46.9,0.2,30.21,NW,315,0.0,0.0,14,0.00,,---,0.00,VWS V14.01,2013-03-14 02:31:00,
2013-03-13 22:32:00,46.9,0.2,30.21,North,0,2.5,3.1,14,0.00,,---,0.00,VWS V14.01,2013-03-14 02:32:00,
2013-03-13 22:33:00,46.9,0.2,30.21,South,180,0.9,2.5,14,0.00,,---,0.00,VWS V14.01,2013-03-14 02:33:00,
2013-03-13 22:34:00,48.7,1.7,30.18,SW,225,1.1,1.1,14,0.00,,---,0.00,VWS V14.01,2013-03-14 02:34:00,
2013-03-13 22:35:00,46.9,0.2,30.21,West,270,1.3,1.6,14,0.00,,---,0.00,VWS V14.01,2013-03-14 02:35:00,
2013-03-13 22:36:00,46.9,0.2,30.21,SE,135,1.3,1.3,14,0.00,,---,0.00,VWS V14.01,2013-03-14 02:36:00,
2013-03-13 22:37:00,46.9,0.2,30.21,NE,45,2.0,2.7,14,0.00,,---,0.00,VWS V14.01,2013-03-14 02:37:00,
2013-03-13 22:39:00,48.9,1.8,30.18,West,270,0.0,2.0,14,0.00,,---,0.00,VWS V14.01,2013-03-14 02:39:00,
2013-03-13 22:40:00,46.9,0.2,30.21,NW,315,1.1,2.0,14,0.00,,---,0.00,VWS V14.01,2013-03-14 02:40:00,
2013-03-13 22:41:00,47.5,0.7,30.21,NE,45,0.0,1.1,14,0.00,,---,0.00,VWS V14.01,2013-03-14 02:41:00,
2013-03-13 22:42:00,47.5,0.7,30.21,North,0,1.3,1.3,14,0.00,,---,0.00,VWS V14.01,2013-03-14 02:42:00,
2013-03-13 22:43:00,47.5,0.7,30.21,West,270,1.1,2.0,14,0.00,,---,0.00,VWS V14.01,2013-03-14 02:43:00,
2013-03-13 22:44:00,48.6,1.5,30.18,SW,225,0.0,0.0,14,0.00,,---,0.00,VWS V14.01,2013-03-14 02:44:00,
2013-03-13 22:45:00,47.5,0.7,30.21,NW,315,2.5,2.5,14,0.00,,---,0.00,VWS V14.01,2013-03-14 02:45:00,
2013-03-13 22:48:00,47.3,0.5,30.21,West,270,1.1,2.5,14,0.00,,---,0.00,VWS V14.01,2013-03-14 02:48:00,
2013-03-13 22:49:00,48.2,1.2,30.18,West,270,0.0,1.1,14,0.00,,---,0.00,VWS V14.01,2013-03-14 02:49:00,
2013-03-13 22:50:00,47.3,0.5,30.21,West,270,1.3,1.3,14,0.00,,---,0.00,VWS V14.01,2013-03-14 02:50:00,
2013-03-13 22:51:00,47.5,0.7,30.21,West,270,2.2,3.6,14,0.00,,---,0.00,VWS V14.01,2013-03-14 02:51:00,
2013-03-13 22:52:00,47.5,0.7,30.21,NE,45,2.2,2.2,14,0.00,,---,0.00,VWS V14.01,2013-03-14 02:52:00,
2013-03-13 22:53:00,47.5,0.7,30.21,West,270,1.1,2.2,14,0.00,,---,0.00,VWS V14.01,2013-03-14 02:53:00,
2013-03-13 22:54:00,47.8,1.0,30.21,West,270,1.3,2.2,14,0.00,,---,0.00,VWS V14.01,2013-03-14 02:54:00,
2013-03-13 22:55:00,47.5,0.7,30.21,NW,315,0.0,1.6,14,0.00,,---,0.00,VWS V14.01,2013-03-14 02:55:00,
2013-03-13 22:56:00,47.5,0.7,30.21,NW,315,0.9,2.0,14,0.00,,---,0.00,VWS V14.01,2013-03-14 02:56:00,
2013-03-13 22:57:00,47.5,0.7,30.21,NE,45,2.0,2.0,14,0.00,,---,0.00,VWS V14.01,2013-03-14 02:57:00,
2013-03-13 22:58:00,47.5,0.7,30.21,North,0,1.1,2.0,14,0.00,,---,0.00,VWS V14.01,2013-03-14 02:58:00,
2013-03-13 22:59:00,48.0,1.1,30.21,East,90,1.6,1.6,14,0.00,,---,0.00,VWS V14.01,2013-03-14 02:59:00,
2013-03-13 23:00:00,47.3,0.5,30.21,East,90,0.9,1.3,14,0.00,,---,0.00,VWS V14.01,2013-03-14 03:00:00,
2013-03-13 23:01:00,47.3,0.5,30.21,SE,135,1.3,1.3,14,0.00,,---,0.00,VWS V14.01,2013-03-14 03:01:00,
2013-03-13 23:02:00,47.3,0.5,30.21,NW,315,1.3,2.2,14,0.00,,---,0.00,VWS V14.01,2013-03-14 03:02:00,
2013-03-13 23:03:00,47.1,0.4,30.21,NW,315,0.0,1.3,14,0.00,,---,0.00,VWS V14.01,2013-03-14 03:03:00,
2013-03-13 23:04:00,48.0,1.1,30.21,West,270,0.0,2.0,14,0.00,,---,0.00,VWS V14.01,2013-03-14 03:04:00,
2013-03-13 23:05:00,47.1,0.4,30.21,NW,315,0.0,1.1,14,0.00,,---,0.00,VWS V14.01,2013-03-14 03:05:00,
2013-03-13 23:06:00,47.1,0.4,30.21,North,0,1.6,1.6,14,0.00,,---,0.00,VWS V14.01,2013-03-14 03:06:00,
2013-03-13 23:07:00,46.9,0.2,30.18,West,270,1.3,1.6,14,0.00,,---,0.00,VWS V14.01,2013-03-14 03:07:00,
2013-03-13 23:08:00,46.9,0.2,30.18,NW,315,2.9,2.9,14,0.00,,---,0.00,VWS V14.01,2013-03-14 03:08:00,
2013-03-13 23:09:00,48.0,1.1,30.21,West,270,0.0,0.9,14,0.00,,---,0.00,VWS V14.01,2013-03-14 03:09:00,
2013-03-13 23:10:00,46.9,0.2,30.18,NE,45,2.9,2.9,14,0.00,,---,0.00,VWS V14.01,2013-03-14 03:10:00,
2013-03-13 23:11:00,47.3,0.5,30.18,North,0,2.9,9.6,14,0.00,,---,0.00,VWS V14.01,2013-03-14 03:11:00,
2013-03-13 23:12:00,47.7,0.8,30.18,NW,315,2.2,3.4,14,0.00,,---,0.00,VWS V14.01,2013-03-14 03:12:00,
2013-03-13 23:13:00,47.7,0.8,30.18,NW,315,5.4,5.4,14,0.00,,---,0.00,VWS V14.01,2013-03-14 03:13:00,
2013-03-13 23:14:00,47.7,0.8,30.21,West,270,1.1,1.3,14,0.00,,---,0.00,VWS V14.01,2013-03-14 03:14:00,
2013-03-13 23:15:00,47.7,0.8,30.18,South,180,2.2,2.2,14,0.00,,---,0.00,VWS V14.01,2013-03-14 03:15:00,
2013-03-13 23:16:00,47.7,0.8,30.18,North,0,3.8,3.8,14,0.00,,---,0.00,VWS V14.01,2013-03-14 03:16:00,
2013-03-13 23:17:00,47.7,0.8,30.18,NW,315,1.6,3.8,14,0.00,,---,0.00,VWS V14.01,2013-03-14 03:17:00,
2013-03-13 23:18:00,47.7,0.8,30.18,NW,315,1.3,2.0,14,0.00,,---,0.00,VWS V14.01,2013-03-14 03:18:00,
2013-03-13 23:19:00,47.7,0.8,30.21,West,270,0.0,0.0,14,0.00,,---,0.00,VWS V14.01,2013-03-14 03:19:00,
2013-03-13 23:21:00,47.7,0.8,30.18,East,90,0.0,1.3,14,0.00,,---,0.00,VWS V14.01,2013-03-14 03:21:00,
2013-03-13 23:22:00,47.3,0.5,30.21,NW,315,1.6,2.5,14,0.00,,---,0.00,VWS V14.01,2013-03-14 03:22:00,
2013-03-13 23:23:00,47.3,0.5,30.21,NW,315,1.3,2.5,14,0.00,,---,0.00,VWS V14.01,2013-03-14 03:23:00,
2013-03-13 23:24:00,47.3,0.5,30.21,West,270,0.0,0.0,14,0.00,,---,0.00,VWS V14.01,2013-03-14 03:24:00,
2013-03-13 23:27:00,47.1,0.4,30.21,NW,315,5.4,5.4,14,0.00,,---,0.00,VWS V14.01,2013-03-14 03:27:00,
2013-03-13 23:28:00,47.3,0.5,30.21,NW,315,3.6,5.4,14,0.00,,---,0.00,VWS V14.01,2013-03-14 03:28:00,
2013-03-13 23:29:00,47.1,0.4,30.21,West,270,1.3,1.3,14,0.00,,---,0.00,VWS V14.01,2013-03-14 03:29:00,
2013-03-13 23:30:00,47.3,0.5,30.21,NE,45,2.5,2.5,14,0.00,,---,0.00,VWS V14.01,2013-03-14 03:30:00,
2013-03-13 23:31:00,47.3,0.5,30.21,SW,225,2.5,4.0,14,0.00,,---,0.00,VWS V14.01,2013-03-14 03:31:00,
2013-03-13 23:32:00,47.3,0.5,30.21,West,270,2.0,2.5,14,0.00,,---,0.00,VWS V14.01,2013-03-14 03:32:00,
2013-03-13 23:33:00,47.3,0.5,30.21,North,0,2.7,2.7,14,0.00,,---,0.00,VWS V14.01,2013-03-14 03:33:00,
2013-03-13 23:34:00,47.3,0.5,30.21,West,270,1.3,2.0,14,0.00,,---,0.00,VWS V14.01,2013-03-14 03:34:00,
2013-03-13 23:35:00,46.9,0.2,30.21,West,270,1.1,1.6,14,0.00,,---,0.00,VWS V14.01,2013-03-14 03:35:00,
2013-03-13 23:36:00,47.3,0.5,30.21,NW,315,0.0,2.9,14,0.00,,---,0.00,VWS V14.01,2013-03-14 03:36:00,
2013-03-13 23:37:00,47.3,0.5,30.21,East,90,2.5,2.5,14,0.00,,---,0.00,VWS V14.01,2013-03-14 03:37:00,
2013-03-13 23:38:00,47.3,0.5,30.21,East,90,2.5,2.7,14,0.00,,---,0.00,VWS V14.01,2013-03-14 03:38:00,
2013-03-13 23:39:00,47.1,0.4,30.21,East,90,1.1,2.5,14,0.00,,---,0.00,VWS V14.01,2013-03-14 03:39:00,
2013-03-13 23:40:00,46.9,0.2,30.21,NE,45,2.0,2.7,14,0.00,,---,0.00,VWS V14.01,2013-03-14 03:40:00,
2013-03-13 23:42:00,46.9,0.2,30.21,North,0,2.0,2.9,14,0.00,,---,0.00,VWS V14.01,2013-03-14 03:42:00,
2013-03-13 23:43:00,46.9,0.2,30.21,NE,45,1.6,2.0,14,0.00,,---,0.00,VWS V14.01,2013-03-14 03:43:00,
2013-03-13 23:44:00,46.9,0.2,30.21,NW,315,2.2,2.2,14,0.00,,---,0.00,VWS V14.01,2013-03-14 03:44:00,
2013-03-13 23:45:00,47.5,0.7,30.21,NW,315,1.6,2.0,14,0.00,,---,0.00,VWS V14.01,2013-03-14 03:45:00,
2013-03-13 23:46:00,46.9,0.2,30.21,SE,135,2.5,3.8,14,0.00,,---,0.00,VWS V14.01,2013-03-14 03:46:00,
2013-03-13 23:47:00,46.8,0.1,30.21,NE,45,0.9,2.5,14,0.00,,---,0.00,VWS V14.01,2013-03-14 03:47:00,
2013-03-13 23:48:00,46.8,0.1,30.21,West,270,0.0,1.3,14,0.00,,---,0.00,VWS V14.01,2013-03-14 03:48:00,
2013-03-13 23:49:00,46.6,-0.1,30.21,NE,45,2.5,3.1,14,0.00,,---,0.00,VWS V14.01,2013-03-14 03:49:00,
2013-03-13 23:50:00,47.3,0.5,30.21,West,270,1.3,1.3,14,0.00,,---,0.00,VWS V14.01,2013-03-14 03:50:00,
2013-03-13 23:55:00,47.5,0.7,30.21,NW,315,0.0,1.6,14,0.00,,---,0.00,VWS V14.01,2013-03-14 03:55:00,
2013-03-13 23:56:00,46.2,1.1,30.21,NW,315,1.3,2.5,15,0.00,,---,0.00,VWS V14.01,2013-03-14 03:56:00,
2013-03-13 23:57:00,46.2,1.1,30.21,NW,315,0.0,1.3,15,0.00,,---,0.00,VWS V14.01,2013-03-14 03:57:00,
2013-03-13 23:58:00,46.0,1.0,30.21,North,0,0.9,1.3,15,0.00,,---,0.00,VWS V14.01,2013-03-14 03:58:00,
2013-03-13 23:59:00,46.0,1.0,30.21,NE,45,2.0,2.0,15,0.00,,---,0.00,VWS V14.01,2013-03-14 03:59:00,